<?xml version='1.0' encoding='UTF-8'?>
<gpx version="1.1" creator="https://www.komoot.de" xmlns="http://www.topografix.com/GPX/1/1" xmlns:xsi="http://www.w3.org/2001/XMLSchema-instance" xsi:schemaLocation="http://www.topografix.com/GPX/1/1 http://www.topografix.com/GPX/1/1/gpx.xsd">
  <metadata>
    <name>Uppsala</name>
    <author>
      <link href="https://www.komoot.de">
        <text>komoot</text>
        <type>text/html</type>
      </link>
    </author>
  </metadata>
  <trk>
    <name>Uppsala</name>
    <trkseg>
      <trkpt lat="59.440606" lon="17.928712">
        <ele>16.470480</ele>
        <time>2024-04-04T13:41:10.264Z</time>
      </trkpt>
      <trkpt lat="59.441248" lon="17.928185">
        <ele>16.470480</ele>
        <time>2024-04-04T13:42:06.057Z</time>
      </trkpt>
      <trkpt lat="59.441734" lon="17.927869">
        <ele>16.517092</ele>
        <time>2024-04-04T13:42:46.842Z</time>
      </trkpt>
      <trkpt lat="59.441915" lon="17.927828">
        <ele>16.544646</ele>
        <time>2024-04-04T13:43:01.291Z</time>
      </trkpt>
      <trkpt lat="59.443428" lon="17.927492">
        <ele>16.900426</ele>
        <time>2024-04-04T13:45:03.675Z</time>
      </trkpt>
      <trkpt lat="59.443389" lon="17.927003">
        <ele>17.085811</ele>
        <time>2024-04-04T13:45:06.927Z</time>
      </trkpt>
      <trkpt lat="59.443372" lon="17.926783">
        <ele>17.169154</ele>
        <time>2024-04-04T13:45:09.589Z</time>
      </trkpt>
      <trkpt lat="59.443430" lon="17.926748">
        <ele>17.213849</ele>
        <time>2024-04-04T13:45:10.692Z</time>
      </trkpt>
      <trkpt lat="59.443528" lon="17.926654">
        <ele>17.294172</ele>
        <time>2024-04-04T13:45:11.900Z</time>
      </trkpt>
      <trkpt lat="59.443549" lon="17.926586">
        <ele>17.323970</ele>
        <time>2024-04-04T13:45:12.643Z</time>
      </trkpt>
      <trkpt lat="59.443552" lon="17.926376">
        <ele>17.402652</ele>
        <time>2024-04-04T13:45:14.911Z</time>
      </trkpt>
      <trkpt lat="59.443553" lon="17.926180">
        <ele>17.476064</ele>
        <time>2024-04-04T13:45:17.129Z</time>
      </trkpt>
      <trkpt lat="59.443559" lon="17.926017">
        <ele>17.537272</ele>
        <time>2024-04-04T13:45:18.081Z</time>
      </trkpt>
      <trkpt lat="59.444173" lon="17.925960">
        <ele>17.990110</ele>
        <time>2024-04-04T13:45:31.014Z</time>
      </trkpt>
      <trkpt lat="59.444249" lon="17.925950">
        <ele>18.046224</ele>
        <time>2024-04-04T13:45:32.252Z</time>
      </trkpt>
      <trkpt lat="59.445122" lon="17.925828">
        <ele>18.830697</ele>
        <time>2024-04-04T13:45:49.996Z</time>
      </trkpt>
      <trkpt lat="59.445768" lon="17.925625">
        <ele>19.420645</ele>
        <time>2024-04-04T13:46:01.992Z</time>
      </trkpt>
      <trkpt lat="59.445861" lon="17.925550">
        <ele>19.511286</ele>
        <time>2024-04-04T13:46:03.743Z</time>
      </trkpt>
      <trkpt lat="59.445934" lon="17.925393">
        <ele>19.608825</ele>
        <time>2024-04-04T13:46:05.617Z</time>
      </trkpt>
      <trkpt lat="59.446995" lon="17.925138">
        <ele>18.783607</ele>
        <time>2024-04-04T13:46:20.255Z</time>
      </trkpt>
      <trkpt lat="59.447081" lon="17.925113">
        <ele>18.703189</ele>
        <time>2024-04-04T13:46:21.264Z</time>
      </trkpt>
      <trkpt lat="59.447215" lon="17.925199">
        <ele>18.572802</ele>
        <time>2024-04-04T13:46:22.905Z</time>
      </trkpt>
      <trkpt lat="59.448288" lon="17.924903">
        <ele>16.930945</ele>
        <time>2024-04-04T13:46:34.869Z</time>
      </trkpt>
      <trkpt lat="59.448762" lon="17.924877">
        <ele>15.876017</ele>
        <time>2024-04-04T13:46:39.948Z</time>
      </trkpt>
      <trkpt lat="59.449086" lon="17.924773">
        <ele>15.145675</ele>
        <time>2024-04-04T13:46:43.437Z</time>
      </trkpt>
      <trkpt lat="59.449346" lon="17.924930">
        <ele>14.540614</ele>
        <time>2024-04-04T13:46:46.320Z</time>
      </trkpt>
      <trkpt lat="59.450589" lon="17.924986">
        <ele>11.930176</ele>
        <time>2024-04-04T13:46:59.566Z</time>
      </trkpt>
      <trkpt lat="59.450706" lon="17.924996">
        <ele>11.687660</ele>
        <time>2024-04-04T13:47:00.840Z</time>
      </trkpt>
      <trkpt lat="59.450784" lon="17.924999">
        <ele>11.526104</ele>
        <time>2024-04-04T13:47:01.711Z</time>
      </trkpt>
      <trkpt lat="59.451206" lon="17.925127">
        <ele>10.641888</ele>
        <time>2024-04-04T13:47:06.389Z</time>
      </trkpt>
      <trkpt lat="59.451367" lon="17.925130">
        <ele>10.308469</ele>
        <time>2024-04-04T13:47:08.219Z</time>
      </trkpt>
      <trkpt lat="59.451516" lon="17.925118">
        <ele>10.220659</ele>
        <time>2024-04-04T13:47:09.991Z</time>
      </trkpt>
      <trkpt lat="59.452117" lon="17.925070">
        <ele>9.892972</ele>
        <time>2024-04-04T13:47:17.463Z</time>
      </trkpt>
      <trkpt lat="59.452181" lon="17.925109">
        <ele>9.856472</ele>
        <time>2024-04-04T13:47:18.364Z</time>
      </trkpt>
      <trkpt lat="59.452259" lon="17.925143">
        <ele>9.812948</ele>
        <time>2024-04-04T13:47:19.489Z</time>
      </trkpt>
      <trkpt lat="59.452987" lon="17.924904">
        <ele>9.410859</ele>
        <time>2024-04-04T13:47:30.524Z</time>
      </trkpt>
      <trkpt lat="59.453161" lon="17.924840">
        <ele>9.316115</ele>
        <time>2024-04-04T13:47:33.351Z</time>
      </trkpt>
      <trkpt lat="59.453415" lon="17.924668">
        <ele>9.216880</ele>
        <time>2024-04-04T13:47:36.949Z</time>
      </trkpt>
      <trkpt lat="59.453625" lon="17.924608">
        <ele>9.138487</ele>
        <time>2024-04-04T13:47:40.080Z</time>
      </trkpt>
      <trkpt lat="59.454615" lon="17.924091">
        <ele>8.760097</ele>
        <time>2024-04-04T13:47:53.950Z</time>
      </trkpt>
      <trkpt lat="59.454643" lon="17.924388">
        <ele>8.703384</ele>
        <time>2024-04-04T13:47:55.966Z</time>
      </trkpt>
      <trkpt lat="59.454650" lon="17.924501">
        <ele>8.682012</ele>
        <time>2024-04-04T13:47:56.600Z</time>
      </trkpt>
      <trkpt lat="59.455891" lon="17.924310">
        <ele>7.906548</ele>
        <time>2024-04-04T13:48:12.651Z</time>
      </trkpt>
      <trkpt lat="59.456454" lon="17.924223">
        <ele>7.545878</ele>
        <time>2024-04-04T13:48:19.785Z</time>
      </trkpt>
      <trkpt lat="59.456863" lon="17.924208">
        <ele>7.420471</ele>
        <time>2024-04-04T13:48:25.394Z</time>
      </trkpt>
      <trkpt lat="59.458184" lon="17.923924">
        <ele>7.091398</ele>
        <time>2024-04-04T13:48:44.222Z</time>
      </trkpt>
      <trkpt lat="59.458382" lon="17.923918">
        <ele>7.053647</ele>
        <time>2024-04-04T13:48:47.121Z</time>
      </trkpt>
      <trkpt lat="59.458512" lon="17.923981">
        <ele>7.040465</ele>
        <time>2024-04-04T13:48:49.138Z</time>
      </trkpt>
      <trkpt lat="59.458926" lon="17.923969">
        <ele>6.999698</ele>
        <time>2024-04-04T13:48:55.297Z</time>
      </trkpt>
      <trkpt lat="59.460088" lon="17.923796">
        <ele>6.884961</ele>
        <time>2024-04-04T13:49:12.068Z</time>
      </trkpt>
      <trkpt lat="59.460500" lon="17.923678">
        <ele>6.813161</ele>
        <time>2024-04-04T13:49:17.914Z</time>
      </trkpt>
      <trkpt lat="59.461408" lon="17.923492">
        <ele>6.654108</ele>
        <time>2024-04-04T13:49:30.546Z</time>
      </trkpt>
      <trkpt lat="59.462640" lon="17.923359">
        <ele>6.772037</ele>
        <time>2024-04-04T13:49:48.524Z</time>
      </trkpt>
      <trkpt lat="59.463675" lon="17.923031">
        <ele>7.055736</ele>
        <time>2024-04-04T13:50:05.878Z</time>
      </trkpt>
      <trkpt lat="59.465299" lon="17.922117">
        <ele>9.015489</ele>
        <time>2024-04-04T13:50:37.828Z</time>
      </trkpt>
      <trkpt lat="59.466944" lon="17.920930">
        <ele>12.777683</ele>
        <time>2024-04-04T13:51:19.474Z</time>
      </trkpt>
      <trkpt lat="59.468243" lon="17.919932">
        <ele>15.755299</ele>
        <time>2024-04-04T13:51:55.872Z</time>
      </trkpt>
      <trkpt lat="59.469498" lon="17.919102">
        <ele>16.727765</ele>
        <time>2024-04-04T13:52:20.179Z</time>
      </trkpt>
      <trkpt lat="59.469588" lon="17.919093">
        <ele>16.703175</ele>
        <time>2024-04-04T13:52:21.413Z</time>
      </trkpt>
      <trkpt lat="59.469764" lon="17.919214">
        <ele>16.652305</ele>
        <time>2024-04-04T13:52:23.877Z</time>
      </trkpt>
      <trkpt lat="59.469928" lon="17.919171">
        <ele>16.607159</ele>
        <time>2024-04-04T13:52:25.992Z</time>
      </trkpt>
      <trkpt lat="59.470066" lon="17.919072">
        <ele>16.567080</ele>
        <time>2024-04-04T13:52:27.776Z</time>
      </trkpt>
      <trkpt lat="59.470336" lon="17.918696">
        <ele>16.476834</ele>
        <time>2024-04-04T13:52:31.611Z</time>
      </trkpt>
      <trkpt lat="59.470757" lon="17.918187">
        <ele>15.570976</ele>
        <time>2024-04-04T13:52:37.138Z</time>
      </trkpt>
      <trkpt lat="59.471317" lon="17.917963">
        <ele>14.264678</ele>
        <time>2024-04-04T13:52:43.138Z</time>
      </trkpt>
      <trkpt lat="59.471387" lon="17.917973">
        <ele>14.104240</ele>
        <time>2024-04-04T13:52:43.902Z</time>
      </trkpt>
      <trkpt lat="59.471526" lon="17.918140">
        <ele>13.731991</ele>
        <time>2024-04-04T13:52:45.611Z</time>
      </trkpt>
      <trkpt lat="59.471609" lon="17.918139">
        <ele>13.542253</ele>
        <time>2024-04-04T13:52:46.516Z</time>
      </trkpt>
      <trkpt lat="59.471844" lon="17.917883">
        <ele>12.928290</ele>
        <time>2024-04-04T13:52:49.361Z</time>
      </trkpt>
      <trkpt lat="59.472036" lon="17.917832">
        <ele>12.485408</ele>
        <time>2024-04-04T13:52:51.475Z</time>
      </trkpt>
      <trkpt lat="59.473230" lon="17.917775">
        <ele>9.835309</ele>
        <time>2024-04-04T13:53:03.856Z</time>
      </trkpt>
      <trkpt lat="59.474245" lon="17.917745">
        <ele>8.215763</ele>
        <time>2024-04-04T13:53:15.496Z</time>
      </trkpt>
      <trkpt lat="59.474338" lon="17.917778">
        <ele>8.178717</ele>
        <time>2024-04-04T13:53:16.676Z</time>
      </trkpt>
      <trkpt lat="59.474407" lon="17.917990">
        <ele>8.128580</ele>
        <time>2024-04-04T13:53:18.314Z</time>
      </trkpt>
      <trkpt lat="59.474478" lon="17.917976">
        <ele>8.100607</ele>
        <time>2024-04-04T13:53:19.245Z</time>
      </trkpt>
      <trkpt lat="59.474555" lon="17.917960">
        <ele>8.070253</ele>
        <time>2024-04-04T13:53:20.229Z</time>
      </trkpt>
      <trkpt lat="59.474562" lon="17.917751">
        <ele>8.028547</ele>
        <time>2024-04-04T13:53:21.805Z</time>
      </trkpt>
      <trkpt lat="59.474596" lon="17.917651">
        <ele>8.004586</ele>
        <time>2024-04-04T13:53:22.794Z</time>
      </trkpt>
      <trkpt lat="59.474706" lon="17.917546">
        <ele>7.956662</ele>
        <time>2024-04-04T13:53:24.519Z</time>
      </trkpt>
      <trkpt lat="59.475422" lon="17.917179">
        <ele>7.666614</ele>
        <time>2024-04-04T13:53:35.934Z</time>
      </trkpt>
      <trkpt lat="59.475850" lon="17.917039">
        <ele>7.677577</ele>
        <time>2024-04-04T13:53:43.008Z</time>
      </trkpt>
      <trkpt lat="59.476007" lon="17.917051">
        <ele>7.690645</ele>
        <time>2024-04-04T13:53:45.906Z</time>
      </trkpt>
      <trkpt lat="59.476554" lon="17.917255">
        <ele>7.736949</ele>
        <time>2024-04-04T13:53:54.788Z</time>
      </trkpt>
      <trkpt lat="59.477720" lon="17.917896">
        <ele>7.508283</ele>
        <time>2024-04-04T13:54:11.493Z</time>
      </trkpt>
      <trkpt lat="59.478299" lon="17.918139">
        <ele>7.172791</ele>
        <time>2024-04-04T13:54:18.996Z</time>
      </trkpt>
      <trkpt lat="59.479255" lon="17.918336">
        <ele>6.806749</ele>
        <time>2024-04-04T13:54:31.329Z</time>
      </trkpt>
      <trkpt lat="59.479332" lon="17.918386">
        <ele>6.816229</ele>
        <time>2024-04-04T13:54:32.519Z</time>
      </trkpt>
      <trkpt lat="59.479529" lon="17.918455">
        <ele>6.839624</ele>
        <time>2024-04-04T13:54:34.950Z</time>
      </trkpt>
      <trkpt lat="59.479696" lon="17.918486">
        <ele>6.859236</ele>
        <time>2024-04-04T13:54:37.787Z</time>
      </trkpt>
      <trkpt lat="59.479736" lon="17.918492">
        <ele>6.863926</ele>
        <time>2024-04-04T13:54:38.300Z</time>
      </trkpt>
      <trkpt lat="59.480351" lon="17.918573">
        <ele>6.935992</ele>
        <time>2024-04-04T13:54:47.703Z</time>
      </trkpt>
      <trkpt lat="59.480962" lon="17.918709">
        <ele>7.089884</ele>
        <time>2024-04-04T13:54:58.908Z</time>
      </trkpt>
      <trkpt lat="59.481077" lon="17.918800">
        <ele>7.159901</ele>
        <time>2024-04-04T13:55:02.248Z</time>
      </trkpt>
      <trkpt lat="59.481264" lon="17.918858">
        <ele>7.266846</ele>
        <time>2024-04-04T13:55:05.705Z</time>
      </trkpt>
      <trkpt lat="59.481603" lon="17.918869">
        <ele>7.458384</ele>
        <time>2024-04-04T13:55:12.007Z</time>
      </trkpt>
      <trkpt lat="59.481638" lon="17.918823">
        <ele>7.482156</ele>
        <time>2024-04-04T13:55:12.468Z</time>
      </trkpt>
      <trkpt lat="59.481644" lon="17.918755">
        <ele>7.501956</ele>
        <time>2024-04-04T13:55:12.865Z</time>
      </trkpt>
      <trkpt lat="59.481648" lon="17.918645">
        <ele>7.533594</ele>
        <time>2024-04-04T13:55:13.553Z</time>
      </trkpt>
      <trkpt lat="59.481655" lon="17.918499">
        <ele>7.575665</ele>
        <time>2024-04-04T13:55:15.586Z</time>
      </trkpt>
      <trkpt lat="59.481658" lon="17.918445">
        <ele>7.591249</ele>
        <time>2024-04-04T13:55:16.065Z</time>
      </trkpt>
      <trkpt lat="59.481711" lon="17.918409">
        <ele>7.622921</ele>
        <time>2024-04-04T13:55:17.036Z</time>
      </trkpt>
      <trkpt lat="59.481840" lon="17.918436">
        <ele>7.696208</ele>
        <time>2024-04-04T13:55:18.583Z</time>
      </trkpt>
      <trkpt lat="59.481927" lon="17.918455">
        <ele>7.745659</ele>
        <time>2024-04-04T13:55:19.832Z</time>
      </trkpt>
      <trkpt lat="59.482038" lon="17.918498">
        <ele>7.809568</ele>
        <time>2024-04-04T13:55:22.389Z</time>
      </trkpt>
      <trkpt lat="59.482411" lon="17.918419">
        <ele>8.046204</ele>
        <time>2024-04-04T13:55:28.131Z</time>
      </trkpt>
      <trkpt lat="59.482810" lon="17.918182">
        <ele>8.589254</ele>
        <time>2024-04-04T13:55:34.387Z</time>
      </trkpt>
      <trkpt lat="59.482967" lon="17.918139">
        <ele>8.795801</ele>
        <time>2024-04-04T13:55:36.681Z</time>
      </trkpt>
      <trkpt lat="59.483082" lon="17.918124">
        <ele>8.945980</ele>
        <time>2024-04-04T13:55:40.002Z</time>
      </trkpt>
      <trkpt lat="59.483387" lon="17.918176">
        <ele>9.344895</ele>
        <time>2024-04-04T13:55:45.277Z</time>
      </trkpt>
      <trkpt lat="59.483453" lon="17.918114">
        <ele>9.440179</ele>
        <time>2024-04-04T13:55:47.100Z</time>
      </trkpt>
      <trkpt lat="59.483525" lon="17.918130">
        <ele>9.534594</ele>
        <time>2024-04-04T13:55:47.997Z</time>
      </trkpt>
      <trkpt lat="59.483721" lon="17.918210">
        <ele>9.795419</ele>
        <time>2024-04-04T13:55:52.663Z</time>
      </trkpt>
      <trkpt lat="59.484961" lon="17.918151">
        <ele>13.723008</ele>
        <time>2024-04-04T13:56:24.117Z</time>
      </trkpt>
      <trkpt lat="59.485190" lon="17.918146">
        <ele>14.668852</ele>
        <time>2024-04-04T13:56:32.758Z</time>
      </trkpt>
      <trkpt lat="59.485452" lon="17.918104">
        <ele>15.754508</ele>
        <time>2024-04-04T13:56:42.113Z</time>
      </trkpt>
      <trkpt lat="59.486748" lon="17.917895">
        <ele>22.024101</ele>
        <time>2024-04-04T13:57:29.704Z</time>
      </trkpt>
      <trkpt lat="59.487289" lon="17.917781">
        <ele>24.874298</ele>
        <time>2024-04-04T13:57:49.367Z</time>
      </trkpt>
      <trkpt lat="59.488443" lon="17.917664">
        <ele>29.279475</ele>
        <time>2024-04-04T13:58:28.955Z</time>
      </trkpt>
      <trkpt lat="59.489184" lon="17.917897">
        <ele>31.473790</ele>
        <time>2024-04-04T13:58:47.504Z</time>
      </trkpt>
      <trkpt lat="59.489272" lon="17.917854">
        <ele>31.738925</ele>
        <time>2024-04-04T13:58:49.447Z</time>
      </trkpt>
      <trkpt lat="59.489373" lon="17.917897">
        <ele>32.041096</ele>
        <time>2024-04-04T13:58:51.435Z</time>
      </trkpt>
      <trkpt lat="59.489466" lon="17.917939">
        <ele>32.320109</ele>
        <time>2024-04-04T13:58:53.246Z</time>
      </trkpt>
      <trkpt lat="59.489527" lon="17.918023">
        <ele>32.445711</ele>
        <time>2024-04-04T13:58:54.710Z</time>
      </trkpt>
      <trkpt lat="59.491107" lon="17.918693">
        <ele>31.804615</ele>
        <time>2024-04-04T13:59:15.742Z</time>
      </trkpt>
      <trkpt lat="59.493343" lon="17.919576">
        <ele>29.318406</ele>
        <time>2024-04-04T13:59:43.076Z</time>
      </trkpt>
      <trkpt lat="59.493602" lon="17.919616">
        <ele>28.956492</ele>
        <time>2024-04-04T13:59:46.210Z</time>
      </trkpt>
      <trkpt lat="59.493816" lon="17.919635">
        <ele>28.658071</ele>
        <time>2024-04-04T13:59:48.771Z</time>
      </trkpt>
      <trkpt lat="59.493894" lon="17.919551">
        <ele>28.534233</ele>
        <time>2024-04-04T13:59:49.780Z</time>
      </trkpt>
      <trkpt lat="59.493967" lon="17.919560">
        <ele>28.432340</ele>
        <time>2024-04-04T13:59:50.576Z</time>
      </trkpt>
      <trkpt lat="59.494030" lon="17.919588">
        <ele>28.342370</ele>
        <time>2024-04-04T13:59:51.325Z</time>
      </trkpt>
      <trkpt lat="59.494091" lon="17.919632">
        <ele>28.251875</ele>
        <time>2024-04-04T13:59:52.035Z</time>
      </trkpt>
      <trkpt lat="59.494138" lon="17.919854">
        <ele>28.081778</ele>
        <time>2024-04-04T13:59:53.346Z</time>
      </trkpt>
      <trkpt lat="59.494206" lon="17.919922">
        <ele>27.975542</ele>
        <time>2024-04-04T13:59:54.145Z</time>
      </trkpt>
      <trkpt lat="59.494703" lon="17.920139">
        <ele>27.267317</ele>
        <time>2024-04-04T13:59:59.795Z</time>
      </trkpt>
      <trkpt lat="59.495272" lon="17.920327">
        <ele>26.825412</ele>
        <time>2024-04-04T14:00:07.802Z</time>
      </trkpt>
      <trkpt lat="59.495820" lon="17.920487">
        <ele>26.401095</ele>
        <time>2024-04-04T14:00:17.835Z</time>
      </trkpt>
      <trkpt lat="59.496456" lon="17.920611">
        <ele>25.911580</ele>
        <time>2024-04-04T14:00:25.753Z</time>
      </trkpt>
      <trkpt lat="59.496781" lon="17.920607">
        <ele>25.783277</ele>
        <time>2024-04-04T14:00:29.985Z</time>
      </trkpt>
      <trkpt lat="59.497058" lon="17.920683">
        <ele>25.682318</ele>
        <time>2024-04-04T14:00:33.873Z</time>
      </trkpt>
      <trkpt lat="59.497260" lon="17.920634">
        <ele>25.608847</ele>
        <time>2024-04-04T14:00:36.978Z</time>
      </trkpt>
      <trkpt lat="59.497335" lon="17.920665">
        <ele>25.581183</ele>
        <time>2024-04-04T14:00:38.627Z</time>
      </trkpt>
      <trkpt lat="59.497423" lon="17.920694">
        <ele>25.548975</ele>
        <time>2024-04-04T14:00:40.067Z</time>
      </trkpt>
      <trkpt lat="59.497553" lon="17.920816">
        <ele>25.496994</ele>
        <time>2024-04-04T14:00:42.871Z</time>
      </trkpt>
      <trkpt lat="59.498771" lon="17.921267">
        <ele>24.702006</ele>
        <time>2024-04-04T14:00:58.292Z</time>
      </trkpt>
      <trkpt lat="59.499670" lon="17.921535">
        <ele>23.779281</ele>
        <time>2024-04-04T14:01:09.352Z</time>
      </trkpt>
      <trkpt lat="59.499820" lon="17.921637">
        <ele>23.618244</ele>
        <time>2024-04-04T14:01:11.229Z</time>
      </trkpt>
      <trkpt lat="59.500689" lon="17.921878">
        <ele>22.930246</ele>
        <time>2024-04-04T14:01:21.798Z</time>
      </trkpt>
      <trkpt lat="59.500906" lon="17.921918">
        <ele>22.774144</ele>
        <time>2024-04-04T14:01:24.517Z</time>
      </trkpt>
      <trkpt lat="59.501330" lon="17.921821">
        <ele>22.468419</ele>
        <time>2024-04-04T14:01:30.053Z</time>
      </trkpt>
      <trkpt lat="59.501414" lon="17.921902">
        <ele>22.401436</ele>
        <time>2024-04-04T14:01:31.307Z</time>
      </trkpt>
      <trkpt lat="59.501525" lon="17.922099">
        <ele>22.294438</ele>
        <time>2024-04-04T14:01:33.272Z</time>
      </trkpt>
      <trkpt lat="59.501727" lon="17.922328">
        <ele>22.128231</ele>
        <time>2024-04-04T14:01:36.585Z</time>
      </trkpt>
      <trkpt lat="59.502073" lon="17.922483">
        <ele>22.314106</ele>
        <time>2024-04-04T14:01:41.757Z</time>
      </trkpt>
      <trkpt lat="59.502711" lon="17.922720">
        <ele>22.654205</ele>
        <time>2024-04-04T14:01:51.423Z</time>
      </trkpt>
      <trkpt lat="59.503305" lon="17.922941">
        <ele>22.970866</ele>
        <time>2024-04-04T14:02:03.265Z</time>
      </trkpt>
      <trkpt lat="59.503403" lon="17.922934">
        <ele>23.022236</ele>
        <time>2024-04-04T14:02:05.493Z</time>
      </trkpt>
      <trkpt lat="59.503485" lon="17.922944">
        <ele>23.065274</ele>
        <time>2024-04-04T14:02:07.406Z</time>
      </trkpt>
      <trkpt lat="59.503477" lon="17.923178">
        <ele>23.207005</ele>
        <time>2024-04-04T14:02:09.652Z</time>
      </trkpt>
      <trkpt lat="59.503470" lon="17.923374">
        <ele>23.331371</ele>
        <time>2024-04-04T14:02:11.539Z</time>
      </trkpt>
      <trkpt lat="59.503562" lon="17.923417">
        <ele>23.449302</ele>
        <time>2024-04-04T14:02:13.823Z</time>
      </trkpt>
      <trkpt lat="59.503676" lon="17.923454">
        <ele>23.593403</ele>
        <time>2024-04-04T14:02:16.058Z</time>
      </trkpt>
      <trkpt lat="59.503654" lon="17.923688">
        <ele>23.744035</ele>
        <time>2024-04-04T14:02:24.474Z</time>
      </trkpt>
      <trkpt lat="59.504026" lon="17.923714">
        <ele>24.208301</ele>
        <time>2024-04-04T14:02:33.429Z</time>
      </trkpt>
      <trkpt lat="59.504152" lon="17.923683">
        <ele>24.366674</ele>
        <time>2024-04-04T14:02:36.856Z</time>
      </trkpt>
      <trkpt lat="59.504536" lon="17.923870">
        <ele>24.860023</ele>
        <time>2024-04-04T14:02:46.373Z</time>
      </trkpt>
      <trkpt lat="59.504879" lon="17.924088">
        <ele>25.309529</ele>
        <time>2024-04-04T14:02:55.829Z</time>
      </trkpt>
      <trkpt lat="59.505273" lon="17.924447">
        <ele>25.767003</ele>
        <time>2024-04-04T14:03:07.463Z</time>
      </trkpt>
      <trkpt lat="59.505861" lon="17.925211">
        <ele>26.508269</ele>
        <time>2024-04-04T14:03:24.914Z</time>
      </trkpt>
      <trkpt lat="59.506131" lon="17.925523">
        <ele>26.837688</ele>
        <time>2024-04-04T14:03:30.660Z</time>
      </trkpt>
      <trkpt lat="59.506553" lon="17.925831">
        <ele>27.180874</ele>
        <time>2024-04-04T14:03:38.426Z</time>
      </trkpt>
      <trkpt lat="59.506980" lon="17.926007">
        <ele>27.068598</ele>
        <time>2024-04-04T14:03:45.921Z</time>
      </trkpt>
      <trkpt lat="59.507286" lon="17.926032">
        <ele>26.989773</ele>
        <time>2024-04-04T14:03:50.682Z</time>
      </trkpt>
      <trkpt lat="59.507669" lon="17.926341">
        <ele>26.883259</ele>
        <time>2024-04-04T14:03:56.341Z</time>
      </trkpt>
      <trkpt lat="59.507821" lon="17.926429">
        <ele>26.842485</ele>
        <time>2024-04-04T14:03:58.295Z</time>
      </trkpt>
      <trkpt lat="59.508450" lon="17.927008">
        <ele>26.162226</ele>
        <time>2024-04-04T14:04:06.475Z</time>
      </trkpt>
      <trkpt lat="59.508565" lon="17.927025">
        <ele>25.945921</ele>
        <time>2024-04-04T14:04:07.802Z</time>
      </trkpt>
      <trkpt lat="59.508982" lon="17.927258">
        <ele>25.132949</ele>
        <time>2024-04-04T14:04:12.676Z</time>
      </trkpt>
      <trkpt lat="59.509208" lon="17.927299">
        <ele>24.707261</ele>
        <time>2024-04-04T14:04:15.151Z</time>
      </trkpt>
      <trkpt lat="59.509394" lon="17.927474">
        <ele>24.320676</ele>
        <time>2024-04-04T14:04:17.368Z</time>
      </trkpt>
      <trkpt lat="59.510020" lon="17.927626">
        <ele>23.044649</ele>
        <time>2024-04-04T14:04:24.118Z</time>
      </trkpt>
      <trkpt lat="59.510493" lon="17.927795">
        <ele>21.782092</ele>
        <time>2024-04-04T14:04:29.215Z</time>
      </trkpt>
      <trkpt lat="59.511089" lon="17.927801">
        <ele>20.216710</ele>
        <time>2024-04-04T14:04:35.456Z</time>
      </trkpt>
      <trkpt lat="59.512423" lon="17.927628">
        <ele>16.674576</ele>
        <time>2024-04-04T14:04:49.252Z</time>
      </trkpt>
      <trkpt lat="59.513055" lon="17.927816">
        <ele>14.969150</ele>
        <time>2024-04-04T14:04:55.866Z</time>
      </trkpt>
      <trkpt lat="59.513322" lon="17.927914">
        <ele>14.244482</ele>
        <time>2024-04-04T14:04:58.732Z</time>
      </trkpt>
      <trkpt lat="59.513340" lon="17.927798">
        <ele>14.080272</ele>
        <time>2024-04-04T14:04:59.385Z</time>
      </trkpt>
      <trkpt lat="59.513390" lon="17.927689">
        <ele>13.881348</ele>
        <time>2024-04-04T14:05:00.174Z</time>
      </trkpt>
      <trkpt lat="59.513494" lon="17.927585">
        <ele>13.764800</ele>
        <time>2024-04-04T14:05:01.486Z</time>
      </trkpt>
      <trkpt lat="59.514086" lon="17.927544">
        <ele>13.296627</ele>
        <time>2024-04-04T14:05:08.062Z</time>
      </trkpt>
      <trkpt lat="59.514192" lon="17.927548">
        <ele>13.212835</ele>
        <time>2024-04-04T14:05:09.445Z</time>
      </trkpt>
      <trkpt lat="59.514251" lon="17.927550">
        <ele>13.166197</ele>
        <time>2024-04-04T14:05:10.178Z</time>
      </trkpt>
      <trkpt lat="59.514350" lon="17.927545">
        <ele>13.087928</ele>
        <time>2024-04-04T14:05:11.270Z</time>
      </trkpt>
      <trkpt lat="59.514412" lon="17.927537">
        <ele>13.038821</ele>
        <time>2024-04-04T14:05:12.093Z</time>
      </trkpt>
      <trkpt lat="59.514770" lon="17.927447">
        <ele>12.753586</ele>
        <time>2024-04-04T14:05:16.944Z</time>
      </trkpt>
      <trkpt lat="59.515028" lon="17.927461">
        <ele>12.549599</ele>
        <time>2024-04-04T14:05:21.458Z</time>
      </trkpt>
      <trkpt lat="59.515256" lon="17.927458">
        <ele>12.559437</ele>
        <time>2024-04-04T14:05:25.589Z</time>
      </trkpt>
      <trkpt lat="59.515303" lon="17.927422">
        <ele>12.655402</ele>
        <time>2024-04-04T14:05:26.596Z</time>
      </trkpt>
      <trkpt lat="59.515382" lon="17.927408">
        <ele>12.806359</ele>
        <time>2024-04-04T14:05:28.007Z</time>
      </trkpt>
      <trkpt lat="59.515422" lon="17.927412">
        <ele>12.882584</ele>
        <time>2024-04-04T14:05:28.523Z</time>
      </trkpt>
      <trkpt lat="59.516444" lon="17.927591">
        <ele>14.835292</ele>
        <time>2024-04-04T14:05:53.067Z</time>
      </trkpt>
      <trkpt lat="59.516974" lon="17.927770">
        <ele>15.854745</ele>
        <time>2024-04-04T14:06:05.635Z</time>
      </trkpt>
      <trkpt lat="59.517160" lon="17.927887">
        <ele>16.085757</ele>
        <time>2024-04-04T14:06:10.533Z</time>
      </trkpt>
      <trkpt lat="59.517416" lon="17.928125">
        <ele>16.420656</ele>
        <time>2024-04-04T14:06:17.592Z</time>
      </trkpt>
      <trkpt lat="59.517785" lon="17.928354">
        <ele>16.878389</ele>
        <time>2024-04-04T14:06:25.924Z</time>
      </trkpt>
      <trkpt lat="59.518025" lon="17.928502">
        <ele>17.175931</ele>
        <time>2024-04-04T14:06:30.370Z</time>
      </trkpt>
      <trkpt lat="59.518205" lon="17.928619">
        <ele>17.400189</ele>
        <time>2024-04-04T14:06:34.819Z</time>
      </trkpt>
      <trkpt lat="59.518408" lon="17.928715">
        <ele>17.647197</ele>
        <time>2024-04-04T14:06:38.438Z</time>
      </trkpt>
      <trkpt lat="59.518519" lon="17.928814">
        <ele>17.791350</ele>
        <time>2024-04-04T14:06:40.348Z</time>
      </trkpt>
      <trkpt lat="59.518707" lon="17.928982">
        <ele>17.960725</ele>
        <time>2024-04-04T14:06:43.466Z</time>
      </trkpt>
      <trkpt lat="59.518764" lon="17.928988">
        <ele>17.942719</ele>
        <time>2024-04-04T14:06:44.540Z</time>
      </trkpt>
      <trkpt lat="59.519435" lon="17.929067">
        <ele>17.730681</ele>
        <time>2024-04-04T14:06:53.026Z</time>
      </trkpt>
      <trkpt lat="59.519709" lon="17.929158">
        <ele>17.643032</ele>
        <time>2024-04-04T14:06:56.727Z</time>
      </trkpt>
      <trkpt lat="59.519987" lon="17.929258">
        <ele>17.553891</ele>
        <time>2024-04-04T14:07:00.566Z</time>
      </trkpt>
      <trkpt lat="59.520725" lon="17.929272">
        <ele>17.403639</ele>
        <time>2024-04-04T14:07:10.754Z</time>
      </trkpt>
      <trkpt lat="59.520860" lon="17.929264">
        <ele>17.400990</ele>
        <time>2024-04-04T14:07:12.831Z</time>
      </trkpt>
      <trkpt lat="59.520989" lon="17.929328">
        <ele>17.398380</ele>
        <time>2024-04-04T14:07:14.911Z</time>
      </trkpt>
      <trkpt lat="59.521229" lon="17.929547">
        <ele>17.393191</ele>
        <time>2024-04-04T14:07:18.992Z</time>
      </trkpt>
      <trkpt lat="59.521478" lon="17.929687">
        <ele>17.388111</ele>
        <time>2024-04-04T14:07:22.842Z</time>
      </trkpt>
      <trkpt lat="59.522053" lon="17.929727">
        <ele>17.376823</ele>
        <time>2024-04-04T14:07:31.491Z</time>
      </trkpt>
      <trkpt lat="59.522357" lon="17.929748">
        <ele>17.358851</ele>
        <time>2024-04-04T14:07:36.219Z</time>
      </trkpt>
      <trkpt lat="59.522430" lon="17.929725">
        <ele>17.351541</ele>
        <time>2024-04-04T14:07:37.275Z</time>
      </trkpt>
      <trkpt lat="59.522866" lon="17.929266">
        <ele>17.302666</ele>
        <time>2024-04-04T14:07:44.565Z</time>
      </trkpt>
      <trkpt lat="59.522929" lon="17.929139">
        <ele>17.293756</ele>
        <time>2024-04-04T14:07:45.886Z</time>
      </trkpt>
      <trkpt lat="59.523092" lon="17.928554">
        <ele>17.260280</ele>
        <time>2024-04-04T14:07:50.679Z</time>
      </trkpt>
      <trkpt lat="59.523203" lon="17.928452">
        <ele>17.248170</ele>
        <time>2024-04-04T14:07:52.419Z</time>
      </trkpt>
      <trkpt lat="59.524232" lon="17.928153">
        <ele>17.002906</ele>
        <time>2024-04-04T14:08:07.089Z</time>
      </trkpt>
      <trkpt lat="59.524332" lon="17.928147">
        <ele>16.965196</ele>
        <time>2024-04-04T14:08:08.506Z</time>
      </trkpt>
      <trkpt lat="59.524352" lon="17.928142">
        <ele>16.957597</ele>
        <time>2024-04-04T14:08:08.784Z</time>
      </trkpt>
      <trkpt lat="59.525538" lon="17.927772">
        <ele>16.481988</ele>
        <time>2024-04-04T14:08:24.873Z</time>
      </trkpt>
      <trkpt lat="59.526021" lon="17.927588">
        <ele>15.968548</ele>
        <time>2024-04-04T14:08:31.087Z</time>
      </trkpt>
      <trkpt lat="59.526510" lon="17.927290">
        <ele>15.434348</ele>
        <time>2024-04-04T14:08:37.264Z</time>
      </trkpt>
      <trkpt lat="59.527280" lon="17.926687">
        <ele>14.563803</ele>
        <time>2024-04-04T14:08:46.932Z</time>
      </trkpt>
      <trkpt lat="59.527720" lon="17.926462">
        <ele>14.050557</ele>
        <time>2024-04-04T14:08:52.408Z</time>
      </trkpt>
      <trkpt lat="59.528432" lon="17.925901">
        <ele>13.184823</ele>
        <time>2024-04-04T14:09:01.873Z</time>
      </trkpt>
      <trkpt lat="59.528602" lon="17.925896">
        <ele>12.992851</ele>
        <time>2024-04-04T14:09:03.966Z</time>
      </trkpt>
      <trkpt lat="59.529225" lon="17.925577">
        <ele>12.230707</ele>
        <time>2024-04-04T14:09:11.523Z</time>
      </trkpt>
      <trkpt lat="59.529363" lon="17.926152">
        <ele>11.828983</ele>
        <time>2024-04-04T14:09:16.985Z</time>
      </trkpt>
      <trkpt lat="59.529497" lon="17.926706">
        <ele>11.441375</ele>
        <time>2024-04-04T14:09:22.204Z</time>
      </trkpt>
      <trkpt lat="59.529529" lon="17.926827">
        <ele>11.355197</ele>
        <time>2024-04-04T14:09:23.367Z</time>
      </trkpt>
      <trkpt lat="59.529918" lon="17.928219">
        <ele>10.367005</ele>
        <time>2024-04-04T14:09:36.802Z</time>
      </trkpt>
      <trkpt lat="59.529944" lon="17.928344">
        <ele>10.353335</ele>
        <time>2024-04-04T14:09:37.998Z</time>
      </trkpt>
      <trkpt lat="59.529981" lon="17.928479">
        <ele>10.337809</ele>
        <time>2024-04-04T14:09:39.348Z</time>
      </trkpt>
      <trkpt lat="59.530018" lon="17.928605">
        <ele>10.323078</ele>
        <time>2024-04-04T14:09:40.641Z</time>
      </trkpt>
      <trkpt lat="59.530041" lon="17.928912">
        <ele>10.291680</ele>
        <time>2024-04-04T14:09:43.296Z</time>
      </trkpt>
      <trkpt lat="59.530598" lon="17.930264">
        <ele>10.115437</ele>
        <time>2024-04-04T14:09:59.968Z</time>
      </trkpt>
      <trkpt lat="59.530746" lon="17.930339">
        <ele>10.084948</ele>
        <time>2024-04-04T14:10:03.066Z</time>
      </trkpt>
      <trkpt lat="59.531024" lon="17.930878">
        <ele>10.026071</ele>
        <time>2024-04-04T14:10:12.763Z</time>
      </trkpt>
      <trkpt lat="59.531276" lon="17.931292">
        <ele>10.275858</ele>
        <time>2024-04-04T14:10:20.880Z</time>
      </trkpt>
      <trkpt lat="59.531425" lon="17.931925">
        <ele>10.545360</ele>
        <time>2024-04-04T14:10:29.239Z</time>
      </trkpt>
      <trkpt lat="59.531443" lon="17.932067">
        <ele>10.601883</ele>
        <time>2024-04-04T14:10:31.136Z</time>
      </trkpt>
      <trkpt lat="59.531424" lon="17.932260">
        <ele>10.677806</ele>
        <time>2024-04-04T14:10:33.952Z</time>
      </trkpt>
      <trkpt lat="59.531402" lon="17.932517">
        <ele>10.778457</ele>
        <time>2024-04-04T14:10:36.662Z</time>
      </trkpt>
      <trkpt lat="59.531461" lon="17.933679">
        <ele>11.229433</ele>
        <time>2024-04-04T14:10:50.978Z</time>
      </trkpt>
      <trkpt lat="59.531857" lon="17.934414">
        <ele>11.044012</ele>
        <time>2024-04-04T14:11:02.355Z</time>
      </trkpt>
      <trkpt lat="59.532159" lon="17.934922">
        <ele>10.656308</ele>
        <time>2024-04-04T14:11:09.877Z</time>
      </trkpt>
      <trkpt lat="59.532267" lon="17.935081">
        <ele>10.524668</ele>
        <time>2024-04-04T14:11:12.088Z</time>
      </trkpt>
      <trkpt lat="59.532341" lon="17.935158">
        <ele>10.442945</ele>
        <time>2024-04-04T14:11:13.394Z</time>
      </trkpt>
      <trkpt lat="59.532582" lon="17.935204">
        <ele>10.206447</ele>
        <time>2024-04-04T14:11:17.370Z</time>
      </trkpt>
      <trkpt lat="59.532712" lon="17.935289">
        <ele>10.072672</ele>
        <time>2024-04-04T14:11:19.527Z</time>
      </trkpt>
      <trkpt lat="59.532898" lon="17.935505">
        <ele>9.861840</ele>
        <time>2024-04-04T14:11:22.950Z</time>
      </trkpt>
      <trkpt lat="59.533232" lon="17.935893">
        <ele>9.374689</ele>
        <time>2024-04-04T14:11:29.179Z</time>
      </trkpt>
      <trkpt lat="59.533385" lon="17.936078">
        <ele>9.064328</ele>
        <time>2024-04-04T14:11:32.153Z</time>
      </trkpt>
      <trkpt lat="59.533566" lon="17.936457">
        <ele>8.607799</ele>
        <time>2024-04-04T14:11:36.325Z</time>
      </trkpt>
      <trkpt lat="59.533699" lon="17.936770">
        <ele>8.249712</ele>
        <time>2024-04-04T14:11:39.663Z</time>
      </trkpt>
      <trkpt lat="59.533858" lon="17.936691">
        <ele>7.966152</ele>
        <time>2024-04-04T14:11:42.249Z</time>
      </trkpt>
      <trkpt lat="59.534014" lon="17.936557">
        <ele>7.671895</ele>
        <time>2024-04-04T14:11:44.930Z</time>
      </trkpt>
      <trkpt lat="59.534099" lon="17.936115">
        <ele>7.257395</ele>
        <time>2024-04-04T14:11:48.674Z</time>
      </trkpt>
      <trkpt lat="59.534137" lon="17.935918">
        <ele>7.072581</ele>
        <time>2024-04-04T14:11:50.331Z</time>
      </trkpt>
      <trkpt lat="59.534194" lon="17.935587">
        <ele>6.766067</ele>
        <time>2024-04-04T14:11:53.134Z</time>
      </trkpt>
      <trkpt lat="59.534714" lon="17.935185">
        <ele>6.286428</ele>
        <time>2024-04-04T14:12:02.594Z</time>
      </trkpt>
      <trkpt lat="59.534874" lon="17.935297">
        <ele>6.192946</ele>
        <time>2024-04-04T14:12:05.982Z</time>
      </trkpt>
      <trkpt lat="59.534947" lon="17.935273">
        <ele>6.152196</ele>
        <time>2024-04-04T14:12:07.383Z</time>
      </trkpt>
      <trkpt lat="59.535081" lon="17.935139">
        <ele>6.069473</ele>
        <time>2024-04-04T14:12:10.246Z</time>
      </trkpt>
      <trkpt lat="59.535098" lon="17.935053">
        <ele>6.043704</ele>
        <time>2024-04-04T14:12:11.207Z</time>
      </trkpt>
      <trkpt lat="59.535435" lon="17.935188">
        <ele>5.854359</ele>
        <time>2024-04-04T14:12:16.176Z</time>
      </trkpt>
      <trkpt lat="59.536828" lon="17.935433">
        <ele>5.675096</ele>
        <time>2024-04-04T14:12:35.709Z</time>
      </trkpt>
      <trkpt lat="59.537428" lon="17.935535">
        <ele>5.789854</ele>
        <time>2024-04-04T14:12:45.843Z</time>
      </trkpt>
      <trkpt lat="59.541462" lon="17.936356">
        <ele>8.041739</ele>
        <time>2024-04-04T14:13:56.121Z</time>
      </trkpt>
      <trkpt lat="59.541829" lon="17.936350">
        <ele>8.075123</ele>
        <time>2024-04-04T14:14:01.728Z</time>
      </trkpt>
      <trkpt lat="59.542031" lon="17.936268">
        <ele>8.093883</ele>
        <time>2024-04-04T14:14:04.796Z</time>
      </trkpt>
      <trkpt lat="59.544231" lon="17.934954">
        <ele>8.387532</ele>
        <time>2024-04-04T14:14:38.876Z</time>
      </trkpt>
      <trkpt lat="59.547524" lon="17.933049">
        <ele>9.908828</ele>
        <time>2024-04-04T14:15:35.829Z</time>
      </trkpt>
      <trkpt lat="59.550390" lon="17.931377">
        <ele>12.421394</ele>
        <time>2024-04-04T14:16:30.952Z</time>
      </trkpt>
      <trkpt lat="59.550642" lon="17.931308">
        <ele>12.650322</ele>
        <time>2024-04-04T14:16:35.967Z</time>
      </trkpt>
      <trkpt lat="59.550806" lon="17.931344">
        <ele>12.798803</ele>
        <time>2024-04-04T14:16:38.893Z</time>
      </trkpt>
      <trkpt lat="59.550982" lon="17.931460">
        <ele>12.965773</ele>
        <time>2024-04-04T14:16:42.583Z</time>
      </trkpt>
      <trkpt lat="59.551361" lon="17.931899">
        <ele>13.361218</ele>
        <time>2024-04-04T14:16:50.629Z</time>
      </trkpt>
      <trkpt lat="59.551976" lon="17.932304">
        <ele>13.777361</ele>
        <time>2024-04-04T14:17:02.409Z</time>
      </trkpt>
      <trkpt lat="59.553835" lon="17.933373">
        <ele>14.170343</ele>
        <time>2024-04-04T14:17:31.812Z</time>
      </trkpt>
      <trkpt lat="59.554082" lon="17.933595">
        <ele>14.190009</ele>
        <time>2024-04-04T14:17:35.737Z</time>
      </trkpt>
      <trkpt lat="59.554167" lon="17.933734">
        <ele>14.198007</ele>
        <time>2024-04-04T14:17:37.102Z</time>
      </trkpt>
      <trkpt lat="59.554488" lon="17.934383">
        <ele>14.231304</ele>
        <time>2024-04-04T14:17:44.083Z</time>
      </trkpt>
      <trkpt lat="59.554685" lon="17.935057">
        <ele>14.259872</ele>
        <time>2024-04-04T14:17:50.365Z</time>
      </trkpt>
      <trkpt lat="59.554783" lon="17.935573">
        <ele>14.288443</ele>
        <time>2024-04-04T14:17:54.815Z</time>
      </trkpt>
      <trkpt lat="59.554915" lon="17.936919">
        <ele>14.393553</ele>
        <time>2024-04-04T14:18:05.731Z</time>
      </trkpt>
      <trkpt lat="59.554976" lon="17.938497">
        <ele>14.514886</ele>
        <time>2024-04-04T14:18:18.135Z</time>
      </trkpt>
      <trkpt lat="59.555100" lon="17.939173">
        <ele>14.516068</ele>
        <time>2024-04-04T14:18:23.729Z</time>
      </trkpt>
      <trkpt lat="59.555288" lon="17.939917">
        <ele>14.444579</ele>
        <time>2024-04-04T14:18:29.540Z</time>
      </trkpt>
      <trkpt lat="59.555801" lon="17.941937">
        <ele>14.250288</ele>
        <time>2024-04-04T14:18:45.242Z</time>
      </trkpt>
      <trkpt lat="59.555960" lon="17.942763">
        <ele>14.447029</ele>
        <time>2024-04-04T14:18:52.093Z</time>
      </trkpt>
      <trkpt lat="59.556094" lon="17.943687">
        <ele>14.710909</ele>
        <time>2024-04-04T14:19:00.381Z</time>
      </trkpt>
      <trkpt lat="59.556091" lon="17.944345">
        <ele>14.891576</ele>
        <time>2024-04-04T14:19:06.229Z</time>
      </trkpt>
      <trkpt lat="59.555951" lon="17.945200">
        <ele>15.138278</ele>
        <time>2024-04-04T14:19:14.567Z</time>
      </trkpt>
      <trkpt lat="59.555898" lon="17.945690">
        <ele>15.267420</ele>
        <time>2024-04-04T14:19:19.296Z</time>
      </trkpt>
      <trkpt lat="59.555900" lon="17.946203">
        <ele>15.389096</ele>
        <time>2024-04-04T14:19:24.124Z</time>
      </trkpt>
      <trkpt lat="59.555945" lon="17.946796">
        <ele>15.531311</ele>
        <time>2024-04-04T14:19:29.690Z</time>
      </trkpt>
      <trkpt lat="59.556559" lon="17.949877">
        <ele>16.019764</ele>
        <time>2024-04-04T14:19:56.272Z</time>
      </trkpt>
      <trkpt lat="59.556867" lon="17.951580">
        <ele>15.960323</ele>
        <time>2024-04-04T14:20:09.352Z</time>
      </trkpt>
      <trkpt lat="59.557016" lon="17.952676">
        <ele>15.871959</ele>
        <time>2024-04-04T14:20:17.198Z</time>
      </trkpt>
      <trkpt lat="59.557120" lon="17.953275">
        <ele>15.785449</ele>
        <time>2024-04-04T14:20:21.406Z</time>
      </trkpt>
      <trkpt lat="59.557239" lon="17.953689">
        <ele>15.720418</ele>
        <time>2024-04-04T14:20:24.614Z</time>
      </trkpt>
      <trkpt lat="59.557517" lon="17.954297">
        <ele>15.608528</ele>
        <time>2024-04-04T14:20:30.239Z</time>
      </trkpt>
      <trkpt lat="59.558262" lon="17.955724">
        <ele>15.375973</ele>
        <time>2024-04-04T14:20:45.431Z</time>
      </trkpt>
      <trkpt lat="59.558397" lon="17.955890">
        <ele>15.349262</ele>
        <time>2024-04-04T14:20:47.792Z</time>
      </trkpt>
      <trkpt lat="59.558660" lon="17.955976">
        <ele>15.304495</ele>
        <time>2024-04-04T14:20:51.604Z</time>
      </trkpt>
      <trkpt lat="59.559248" lon="17.955770">
        <ele>15.204209</ele>
        <time>2024-04-04T14:21:00.111Z</time>
      </trkpt>
      <trkpt lat="59.559474" lon="17.955808">
        <ele>15.166119</ele>
        <time>2024-04-04T14:21:03.371Z</time>
      </trkpt>
      <trkpt lat="59.560728" lon="17.956496">
        <ele>14.548481</ele>
        <time>2024-04-04T14:21:20.981Z</time>
      </trkpt>
      <trkpt lat="59.561078" lon="17.956851">
        <ele>14.353509</ele>
        <time>2024-04-04T14:21:25.980Z</time>
      </trkpt>
      <trkpt lat="59.561516" lon="17.957642">
        <ele>13.946868</ele>
        <time>2024-04-04T14:21:33.415Z</time>
      </trkpt>
      <trkpt lat="59.561792" lon="17.958000">
        <ele>13.691924</ele>
        <time>2024-04-04T14:21:37.535Z</time>
      </trkpt>
      <trkpt lat="59.563043" lon="17.959162">
        <ele>12.684515</ele>
        <time>2024-04-04T14:21:55.070Z</time>
      </trkpt>
      <trkpt lat="59.563475" lon="17.959617">
        <ele>12.397847</ele>
        <time>2024-04-04T14:22:01.370Z</time>
      </trkpt>
      <trkpt lat="59.564194" lon="17.960470">
        <ele>11.906729</ele>
        <time>2024-04-04T14:22:12.335Z</time>
      </trkpt>
      <trkpt lat="59.564797" lon="17.961413">
        <ele>12.010245</ele>
        <time>2024-04-04T14:22:22.916Z</time>
      </trkpt>
      <trkpt lat="59.565035" lon="17.961814">
        <ele>12.106490</ele>
        <time>2024-04-04T14:22:27.826Z</time>
      </trkpt>
      <trkpt lat="59.565625" lon="17.962764">
        <ele>12.340680</ele>
        <time>2024-04-04T14:22:41.112Z</time>
      </trkpt>
      <trkpt lat="59.565875" lon="17.963046">
        <ele>12.549186</ele>
        <time>2024-04-04T14:22:46.898Z</time>
      </trkpt>
      <trkpt lat="59.566125" lon="17.963227">
        <ele>12.804865</ele>
        <time>2024-04-04T14:22:52.260Z</time>
      </trkpt>
      <trkpt lat="59.566777" lon="17.963506">
        <ele>13.445441</ele>
        <time>2024-04-04T14:23:05.306Z</time>
      </trkpt>
      <trkpt lat="59.567336" lon="17.963507">
        <ele>13.982182</ele>
        <time>2024-04-04T14:23:15.808Z</time>
      </trkpt>
      <trkpt lat="59.567769" lon="17.963548">
        <ele>13.905401</ele>
        <time>2024-04-04T14:23:22.989Z</time>
      </trkpt>
      <trkpt lat="59.567908" lon="17.963597">
        <ele>13.817190</ele>
        <time>2024-04-04T14:23:25.101Z</time>
      </trkpt>
      <trkpt lat="59.568507" lon="17.963934">
        <ele>13.428077</ele>
        <time>2024-04-04T14:23:33.204Z</time>
      </trkpt>
      <trkpt lat="59.568921" lon="17.964049">
        <ele>13.166890</ele>
        <time>2024-04-04T14:23:38.099Z</time>
      </trkpt>
      <trkpt lat="59.569098" lon="17.964175">
        <ele>13.049344</ele>
        <time>2024-04-04T14:23:40.243Z</time>
      </trkpt>
      <trkpt lat="59.569608" lon="17.964676">
        <ele>12.418587</ele>
        <time>2024-04-04T14:23:46.733Z</time>
      </trkpt>
      <trkpt lat="59.569922" lon="17.964833">
        <ele>12.019391</ele>
        <time>2024-04-04T14:23:50.467Z</time>
      </trkpt>
      <trkpt lat="59.570068" lon="17.964827">
        <ele>11.839418</ele>
        <time>2024-04-04T14:23:52.160Z</time>
      </trkpt>
      <trkpt lat="59.570938" lon="17.964567">
        <ele>10.758486</ele>
        <time>2024-04-04T14:24:02.677Z</time>
      </trkpt>
      <trkpt lat="59.574626" lon="17.963485">
        <ele>9.935974</ele>
        <time>2024-04-04T14:24:56.254Z</time>
      </trkpt>
      <trkpt lat="59.575549" lon="17.963442">
        <ele>9.196635</ele>
        <time>2024-04-04T14:25:08.497Z</time>
      </trkpt>
      <trkpt lat="59.576502" lon="17.963573">
        <ele>8.297163</ele>
        <time>2024-04-04T14:25:19.701Z</time>
      </trkpt>
      <trkpt lat="59.576651" lon="17.962704">
        <ele>7.634109</ele>
        <time>2024-04-04T14:25:25.015Z</time>
      </trkpt>
      <trkpt lat="59.576756" lon="17.962441">
        <ele>7.392070</ele>
        <time>2024-04-04T14:25:26.926Z</time>
      </trkpt>
      <trkpt lat="59.577391" lon="17.961660">
        <ele>6.324421</ele>
        <time>2024-04-04T14:25:35.472Z</time>
      </trkpt>
      <trkpt lat="59.578521" lon="17.960383">
        <ele>5.287535</ele>
        <time>2024-04-04T14:25:51.295Z</time>
      </trkpt>
      <trkpt lat="59.579911" lon="17.958578">
        <ele>4.782380</ele>
        <time>2024-04-04T14:26:15.835Z</time>
      </trkpt>
      <trkpt lat="59.580079" lon="17.958310">
        <ele>4.775737</ele>
        <time>2024-04-04T14:26:19.096Z</time>
      </trkpt>
      <trkpt lat="59.580877" lon="17.956332">
        <ele>4.935303</ele>
        <time>2024-04-04T14:26:37.911Z</time>
      </trkpt>
      <trkpt lat="59.581039" lon="17.955873">
        <ele>5.011597</ele>
        <time>2024-04-04T14:26:42.229Z</time>
      </trkpt>
      <trkpt lat="59.581166" lon="17.955350">
        <ele>5.090689</ele>
        <time>2024-04-04T14:26:46.957Z</time>
      </trkpt>
      <trkpt lat="59.581342" lon="17.954540">
        <ele>5.210880</ele>
        <time>2024-04-04T14:26:54.417Z</time>
      </trkpt>
      <trkpt lat="59.581410" lon="17.954023">
        <ele>5.350348</ele>
        <time>2024-04-04T14:26:59.150Z</time>
      </trkpt>
      <trkpt lat="59.581416" lon="17.953730">
        <ele>5.452911</ele>
        <time>2024-04-04T14:27:01.822Z</time>
      </trkpt>
      <trkpt lat="59.581376" lon="17.953042">
        <ele>5.695125</ele>
        <time>2024-04-04T14:27:08.175Z</time>
      </trkpt>
      <trkpt lat="59.581391" lon="17.952747">
        <ele>5.798823</ele>
        <time>2024-04-04T14:27:10.929Z</time>
      </trkpt>
      <trkpt lat="59.581491" lon="17.952099">
        <ele>6.035759</ele>
        <time>2024-04-04T14:27:16.957Z</time>
      </trkpt>
      <trkpt lat="59.581743" lon="17.950582">
        <ele>6.625094</ele>
        <time>2024-04-04T14:27:31.249Z</time>
      </trkpt>
      <trkpt lat="59.581788" lon="17.950089">
        <ele>6.849327</ele>
        <time>2024-04-04T14:27:35.710Z</time>
      </trkpt>
      <trkpt lat="59.581834" lon="17.949217">
        <ele>7.241763</ele>
        <time>2024-04-04T14:27:43.637Z</time>
      </trkpt>
      <trkpt lat="59.581871" lon="17.948902">
        <ele>7.386507</ele>
        <time>2024-04-04T14:27:46.574Z</time>
      </trkpt>
      <trkpt lat="59.581947" lon="17.948575">
        <ele>7.547562</ele>
        <time>2024-04-04T14:27:49.954Z</time>
      </trkpt>
      <trkpt lat="59.582089" lon="17.948233">
        <ele>7.745539</ele>
        <time>2024-04-04T14:27:53.965Z</time>
      </trkpt>
      <trkpt lat="59.583603" lon="17.945738">
        <ele>10.047765</ele>
        <time>2024-04-04T14:28:32.921Z</time>
      </trkpt>
      <trkpt lat="59.583915" lon="17.945210">
        <ele>10.555155</ele>
        <time>2024-04-04T14:28:41.280Z</time>
      </trkpt>
      <trkpt lat="59.584491" lon="17.944073">
        <ele>11.562030</ele>
        <time>2024-04-04T14:28:57.491Z</time>
      </trkpt>
      <trkpt lat="59.584976" lon="17.942988">
        <ele>12.468064</ele>
        <time>2024-04-04T14:29:11.877Z</time>
      </trkpt>
      <trkpt lat="59.586289" lon="17.941054">
        <ele>14.338318</ele>
        <time>2024-04-04T14:29:43.422Z</time>
      </trkpt>
      <trkpt lat="59.586794" lon="17.940199">
        <ele>15.095950</ele>
        <time>2024-04-04T14:29:56.511Z</time>
      </trkpt>
      <trkpt lat="59.587149" lon="17.939166">
        <ele>15.815794</ele>
        <time>2024-04-04T14:30:09.354Z</time>
      </trkpt>
      <trkpt lat="59.587265" lon="17.938909">
        <ele>16.014310</ele>
        <time>2024-04-04T14:30:12.709Z</time>
      </trkpt>
      <trkpt lat="59.588210" lon="17.937468">
        <ele>16.852275</ele>
        <time>2024-04-04T14:30:34.300Z</time>
      </trkpt>
      <trkpt lat="59.588236" lon="17.937405">
        <ele>16.866957</ele>
        <time>2024-04-04T14:30:34.981Z</time>
      </trkpt>
      <trkpt lat="59.589524" lon="17.934734">
        <ele>17.084007</ele>
        <time>2024-04-04T14:31:03.267Z</time>
      </trkpt>
      <trkpt lat="59.590252" lon="17.933430">
        <ele>16.866373</ele>
        <time>2024-04-04T14:31:16.293Z</time>
      </trkpt>
      <trkpt lat="59.590370" lon="17.933141">
        <ele>16.778812</ele>
        <time>2024-04-04T14:31:18.801Z</time>
      </trkpt>
      <trkpt lat="59.590445" lon="17.932834">
        <ele>16.687341</ele>
        <time>2024-04-04T14:31:21.199Z</time>
      </trkpt>
      <trkpt lat="59.590553" lon="17.931423">
        <ele>16.304417</ele>
        <time>2024-04-04T14:31:31.742Z</time>
      </trkpt>
      <trkpt lat="59.590580" lon="17.930694">
        <ele>16.108278</ele>
        <time>2024-04-04T14:31:36.666Z</time>
      </trkpt>
      <trkpt lat="59.590563" lon="17.930063">
        <ele>15.938720</ele>
        <time>2024-04-04T14:31:40.496Z</time>
      </trkpt>
      <trkpt lat="59.590491" lon="17.929574">
        <ele>15.565376</ele>
        <time>2024-04-04T14:31:43.479Z</time>
      </trkpt>
      <trkpt lat="59.590341" lon="17.929085">
        <ele>15.056428</ele>
        <time>2024-04-04T14:31:46.804Z</time>
      </trkpt>
      <trkpt lat="59.590004" lon="17.928429">
        <ele>14.224480</ele>
        <time>2024-04-04T14:31:52.327Z</time>
      </trkpt>
      <trkpt lat="59.589991" lon="17.928402">
        <ele>14.191311</ele>
        <time>2024-04-04T14:31:52.550Z</time>
      </trkpt>
      <trkpt lat="59.589623" lon="17.927725">
        <ele>13.307057</ele>
        <time>2024-04-04T14:31:58.101Z</time>
      </trkpt>
      <trkpt lat="59.589353" lon="17.927479">
        <ele>12.784205</ele>
        <time>2024-04-04T14:32:01.242Z</time>
      </trkpt>
      <trkpt lat="59.588514" lon="17.926948">
        <ele>10.837261</ele>
        <time>2024-04-04T14:32:10.448Z</time>
      </trkpt>
      <trkpt lat="59.588354" lon="17.926808">
        <ele>10.448295</ele>
        <time>2024-04-04T14:32:12.255Z</time>
      </trkpt>
      <trkpt lat="59.588238" lon="17.926608">
        <ele>10.106062</ele>
        <time>2024-04-04T14:32:13.946Z</time>
      </trkpt>
      <trkpt lat="59.588177" lon="17.926410">
        <ele>9.845259</ele>
        <time>2024-04-04T14:32:15.211Z</time>
      </trkpt>
      <trkpt lat="59.588133" lon="17.926118">
        <ele>9.502457</ele>
        <time>2024-04-04T14:32:16.921Z</time>
      </trkpt>
      <trkpt lat="59.588124" lon="17.924460">
        <ele>8.413220</ele>
        <time>2024-04-04T14:32:26.565Z</time>
      </trkpt>
      <trkpt lat="59.588079" lon="17.923301">
        <ele>8.022988</ele>
        <time>2024-04-04T14:32:34.019Z</time>
      </trkpt>
      <trkpt lat="59.588037" lon="17.922229">
        <ele>7.662029</ele>
        <time>2024-04-04T14:32:42.342Z</time>
      </trkpt>
      <trkpt lat="59.588111" lon="17.921145">
        <ele>7.575238</ele>
        <time>2024-04-04T14:32:50.877Z</time>
      </trkpt>
      <trkpt lat="59.588271" lon="17.919980">
        <ele>7.614348</ele>
        <time>2024-04-04T14:32:59.950Z</time>
      </trkpt>
      <trkpt lat="59.588291" lon="17.919563">
        <ele>7.627919</ele>
        <time>2024-04-04T14:33:03.046Z</time>
      </trkpt>
      <trkpt lat="59.588268" lon="17.919060">
        <ele>7.644282</ele>
        <time>2024-04-04T14:33:06.834Z</time>
      </trkpt>
      <trkpt lat="59.588290" lon="17.918764">
        <ele>7.653975</ele>
        <time>2024-04-04T14:33:09.103Z</time>
      </trkpt>
      <trkpt lat="59.588336" lon="17.918522">
        <ele>7.662350</ele>
        <time>2024-04-04T14:33:11.107Z</time>
      </trkpt>
      <trkpt lat="59.588457" lon="17.918103">
        <ele>7.659437</ele>
        <time>2024-04-04T14:33:14.875Z</time>
      </trkpt>
      <trkpt lat="59.588962" lon="17.917117">
        <ele>7.636385</ele>
        <time>2024-04-04T14:33:25.839Z</time>
      </trkpt>
      <trkpt lat="59.589418" lon="17.916186">
        <ele>7.615095</ele>
        <time>2024-04-04T14:33:35.188Z</time>
      </trkpt>
      <trkpt lat="59.589550" lon="17.915825">
        <ele>7.607776</ele>
        <time>2024-04-04T14:33:38.265Z</time>
      </trkpt>
      <trkpt lat="59.589652" lon="17.915302">
        <ele>7.970844</ele>
        <time>2024-04-04T14:33:42.019Z</time>
      </trkpt>
      <trkpt lat="59.589838" lon="17.913983">
        <ele>8.909328</ele>
        <time>2024-04-04T14:33:52.762Z</time>
      </trkpt>
      <trkpt lat="59.590165" lon="17.912205">
        <ele>10.501728</ele>
        <time>2024-04-04T14:34:17.665Z</time>
      </trkpt>
      <trkpt lat="59.590326" lon="17.911512">
        <ele>11.971815</ele>
        <time>2024-04-04T14:34:28.843Z</time>
      </trkpt>
      <trkpt lat="59.590317" lon="17.910811">
        <ele>13.323752</ele>
        <time>2024-04-04T14:34:39.520Z</time>
      </trkpt>
      <trkpt lat="59.590373" lon="17.910577">
        <ele>13.822776</ele>
        <time>2024-04-04T14:34:43.510Z</time>
      </trkpt>
      <trkpt lat="59.590587" lon="17.910356">
        <ele>14.742516</ele>
        <time>2024-04-04T14:34:51.114Z</time>
      </trkpt>
      <trkpt lat="59.590999" lon="17.910124">
        <ele>16.374263</ele>
        <time>2024-04-04T14:35:05.096Z</time>
      </trkpt>
      <trkpt lat="59.591573" lon="17.909918">
        <ele>17.980636</ele>
        <time>2024-04-04T14:35:24.186Z</time>
      </trkpt>
      <trkpt lat="59.591817" lon="17.909764">
        <ele>18.603503</ele>
        <time>2024-04-04T14:35:30.286Z</time>
      </trkpt>
      <trkpt lat="59.592073" lon="17.909452">
        <ele>19.334925</ele>
        <time>2024-04-04T14:35:36.738Z</time>
      </trkpt>
      <trkpt lat="59.592297" lon="17.908933">
        <ele>20.174408</ele>
        <time>2024-04-04T14:35:43.602Z</time>
      </trkpt>
      <trkpt lat="59.592445" lon="17.908361">
        <ele>20.965071</ele>
        <time>2024-04-04T14:35:50.228Z</time>
      </trkpt>
      <trkpt lat="59.592673" lon="17.907103">
        <ele>22.126933</ele>
        <time>2024-04-04T14:36:05.286Z</time>
      </trkpt>
      <trkpt lat="59.592651" lon="17.906307">
        <ele>22.755274</ele>
        <time>2024-04-04T14:36:15.006Z</time>
      </trkpt>
      <trkpt lat="59.592566" lon="17.905358">
        <ele>23.514897</ele>
        <time>2024-04-04T14:36:24.472Z</time>
      </trkpt>
      <trkpt lat="59.592586" lon="17.905089">
        <ele>23.729198</ele>
        <time>2024-04-04T14:36:27.015Z</time>
      </trkpt>
      <trkpt lat="59.592710" lon="17.904674">
        <ele>24.089784</ele>
        <time>2024-04-04T14:36:31.452Z</time>
      </trkpt>
      <trkpt lat="59.592870" lon="17.904415">
        <ele>24.260053</ele>
        <time>2024-04-04T14:36:34.833Z</time>
      </trkpt>
      <trkpt lat="59.593160" lon="17.904055">
        <ele>24.541982</ele>
        <time>2024-04-04T14:36:42.522Z</time>
      </trkpt>
      <trkpt lat="59.593314" lon="17.903863">
        <ele>24.691880</ele>
        <time>2024-04-04T14:36:47.161Z</time>
      </trkpt>
      <trkpt lat="59.593553" lon="17.903676">
        <ele>24.903484</ele>
        <time>2024-04-04T14:36:51.801Z</time>
      </trkpt>
      <trkpt lat="59.593996" lon="17.903571">
        <ele>25.270764</ele>
        <time>2024-04-04T14:37:00.321Z</time>
      </trkpt>
      <trkpt lat="59.594190" lon="17.903479">
        <ele>25.434995</ele>
        <time>2024-04-04T14:37:02.931Z</time>
      </trkpt>
      <trkpt lat="59.594197" lon="17.902644">
        <ele>25.313890</ele>
        <time>2024-04-04T14:37:10.793Z</time>
      </trkpt>
      <trkpt lat="59.594162" lon="17.901587">
        <ele>24.871172</ele>
        <time>2024-04-04T14:37:19.900Z</time>
      </trkpt>
      <trkpt lat="59.593861" lon="17.900498">
        <ele>24.352573</ele>
        <time>2024-04-04T14:37:31.575Z</time>
      </trkpt>
      <trkpt lat="59.594165" lon="17.900334">
        <ele>24.092343</ele>
        <time>2024-04-04T14:37:36.998Z</time>
      </trkpt>
      <trkpt lat="59.594777" lon="17.900402">
        <ele>23.267601</ele>
        <time>2024-04-04T14:37:46.751Z</time>
      </trkpt>
      <trkpt lat="59.594983" lon="17.900229">
        <ele>22.959397</ele>
        <time>2024-04-04T14:37:50.350Z</time>
      </trkpt>
      <trkpt lat="59.594037" lon="17.897629">
        <ele>21.134317</ele>
        <time>2024-04-04T14:38:09.556Z</time>
      </trkpt>
      <trkpt lat="59.593886" lon="17.897264">
        <ele>20.961229</ele>
        <time>2024-04-04T14:38:12.850Z</time>
      </trkpt>
      <trkpt lat="59.593815" lon="17.897099">
        <ele>20.881712</ele>
        <time>2024-04-04T14:38:14.213Z</time>
      </trkpt>
      <trkpt lat="59.593703" lon="17.896838">
        <ele>20.756074</ele>
        <time>2024-04-04T14:38:16.472Z</time>
      </trkpt>
      <trkpt lat="59.593297" lon="17.895885">
        <ele>20.298707</ele>
        <time>2024-04-04T14:38:24.549Z</time>
      </trkpt>
      <trkpt lat="59.593128" lon="17.895506">
        <ele>20.435133</ele>
        <time>2024-04-04T14:38:28.055Z</time>
      </trkpt>
      <trkpt lat="59.592263" lon="17.893811">
        <ele>21.236321</ele>
        <time>2024-04-04T14:38:49.794Z</time>
      </trkpt>
      <trkpt lat="59.593034" lon="17.893188">
        <ele>22.093636</ele>
        <time>2024-04-04T14:39:11.524Z</time>
      </trkpt>
      <trkpt lat="59.593440" lon="17.892785">
        <ele>22.682172</ele>
        <time>2024-04-04T14:39:23.417Z</time>
      </trkpt>
      <trkpt lat="59.593550" lon="17.892136">
        <ele>23.130880</ele>
        <time>2024-04-04T14:39:32.596Z</time>
      </trkpt>
      <trkpt lat="59.593573" lon="17.891792">
        <ele>23.358365</ele>
        <time>2024-04-04T14:39:37.175Z</time>
      </trkpt>
      <trkpt lat="59.593506" lon="17.891360">
        <ele>23.654582</ele>
        <time>2024-04-04T14:39:42.840Z</time>
      </trkpt>
      <trkpt lat="59.593218" lon="17.890028">
        <ele>24.178914</ele>
        <time>2024-04-04T14:39:59.490Z</time>
      </trkpt>
      <trkpt lat="59.593675" lon="17.889708">
        <ele>24.476989</ele>
        <time>2024-04-04T14:40:06.986Z</time>
      </trkpt>
      <trkpt lat="59.593931" lon="17.889491">
        <ele>24.648245</ele>
        <time>2024-04-04T14:40:11.189Z</time>
      </trkpt>
      <trkpt lat="59.594410" lon="17.888885">
        <ele>25.152121</ele>
        <time>2024-04-04T14:40:21.058Z</time>
      </trkpt>
      <trkpt lat="59.597251" lon="17.884497">
        <ele>31.192896</ele>
        <time>2024-04-04T14:41:40.520Z</time>
      </trkpt>
      <trkpt lat="59.598019" lon="17.883315">
        <ele>32.640140</ele>
        <time>2024-04-04T14:42:00.527Z</time>
      </trkpt>
      <trkpt lat="59.598435" lon="17.882842">
        <ele>33.353677</ele>
        <time>2024-04-04T14:42:10.884Z</time>
      </trkpt>
      <trkpt lat="59.599068" lon="17.882263">
        <ele>33.979283</ele>
        <time>2024-04-04T14:42:24.677Z</time>
      </trkpt>
      <trkpt lat="59.599288" lon="17.882110">
        <ele>34.141306</ele>
        <time>2024-04-04T14:42:28.728Z</time>
      </trkpt>
      <trkpt lat="59.599776" lon="17.881920">
        <ele>34.486836</ele>
        <time>2024-04-04T14:42:37.131Z</time>
      </trkpt>
      <trkpt lat="59.600166" lon="17.881923">
        <ele>34.757770</ele>
        <time>2024-04-04T14:42:43.272Z</time>
      </trkpt>
      <trkpt lat="59.600442" lon="17.881955">
        <ele>34.858864</ele>
        <time>2024-04-04T14:42:47.642Z</time>
      </trkpt>
      <trkpt lat="59.600546" lon="17.881967">
        <ele>34.850844</ele>
        <time>2024-04-04T14:42:49.472Z</time>
      </trkpt>
      <trkpt lat="59.601782" lon="17.882374">
        <ele>34.754379</ele>
        <time>2024-04-04T14:43:08.830Z</time>
      </trkpt>
      <trkpt lat="59.602541" lon="17.882486">
        <ele>34.090966</ele>
        <time>2024-04-04T14:43:18.188Z</time>
      </trkpt>
      <trkpt lat="59.602708" lon="17.882466">
        <ele>33.846835</ele>
        <time>2024-04-04T14:43:20.118Z</time>
      </trkpt>
      <trkpt lat="59.603616" lon="17.882131">
        <ele>32.499004</ele>
        <time>2024-04-04T14:43:30.655Z</time>
      </trkpt>
      <trkpt lat="59.605294" lon="17.881390">
        <ele>29.861809</ele>
        <time>2024-04-04T14:43:49.447Z</time>
      </trkpt>
      <trkpt lat="59.605418" lon="17.881320">
        <ele>29.662218</ele>
        <time>2024-04-04T14:43:51.218Z</time>
      </trkpt>
      <trkpt lat="59.605613" lon="17.881209">
        <ele>29.348146</ele>
        <time>2024-04-04T14:43:53.869Z</time>
      </trkpt>
      <trkpt lat="59.605860" lon="17.880984">
        <ele>29.387587</ele>
        <time>2024-04-04T14:43:58.046Z</time>
      </trkpt>
      <trkpt lat="59.606257" lon="17.880554">
        <ele>29.505800</ele>
        <time>2024-04-04T14:44:05.314Z</time>
      </trkpt>
      <trkpt lat="59.607674" lon="17.878397">
        <ele>28.913043</ele>
        <time>2024-04-04T14:44:35.745Z</time>
      </trkpt>
      <trkpt lat="59.607863" lon="17.878042">
        <ele>28.584745</ele>
        <time>2024-04-04T14:44:38.867Z</time>
      </trkpt>
      <trkpt lat="59.608030" lon="17.877642">
        <ele>28.254368</ele>
        <time>2024-04-04T14:44:41.812Z</time>
      </trkpt>
      <trkpt lat="59.608241" lon="17.876904">
        <ele>27.714359</ele>
        <time>2024-04-04T14:44:46.360Z</time>
      </trkpt>
      <trkpt lat="59.608719" lon="17.874466">
        <ele>23.333785</ele>
        <time>2024-04-04T14:44:59.274Z</time>
      </trkpt>
      <trkpt lat="59.609110" lon="17.872473">
        <ele>20.299696</ele>
        <time>2024-04-04T14:45:10.168Z</time>
      </trkpt>
      <trkpt lat="59.609041" lon="17.872441">
        <ele>20.175482</ele>
        <time>2024-04-04T14:45:12.368Z</time>
      </trkpt>
      <trkpt lat="59.609249" lon="17.871428">
        <ele>19.206149</ele>
        <time>2024-04-04T14:45:18.535Z</time>
      </trkpt>
      <trkpt lat="59.609670" lon="17.869838">
        <ele>17.996960</ele>
        <time>2024-04-04T14:45:30.154Z</time>
      </trkpt>
      <trkpt lat="59.610259" lon="17.868886">
        <ele>18.199966</ele>
        <time>2024-04-04T14:45:41.846Z</time>
      </trkpt>
      <trkpt lat="59.610744" lon="17.867847">
        <ele>18.390792</ele>
        <time>2024-04-04T14:45:54.462Z</time>
      </trkpt>
      <trkpt lat="59.610834" lon="17.867712">
        <ele>18.420937</ele>
        <time>2024-04-04T14:45:56.409Z</time>
      </trkpt>
      <trkpt lat="59.610928" lon="17.867570">
        <ele>18.468642</ele>
        <time>2024-04-04T14:45:58.841Z</time>
      </trkpt>
      <trkpt lat="59.611095" lon="17.867332">
        <ele>18.557544</ele>
        <time>2024-04-04T14:46:02.456Z</time>
      </trkpt>
      <trkpt lat="59.611330" lon="17.867185">
        <ele>18.663982</ele>
        <time>2024-04-04T14:46:07.084Z</time>
      </trkpt>
      <trkpt lat="59.611540" lon="17.867013">
        <ele>18.762141</ele>
        <time>2024-04-04T14:46:10.729Z</time>
      </trkpt>
      <trkpt lat="59.612252" lon="17.866148">
        <ele>19.123022</ele>
        <time>2024-04-04T14:46:23.922Z</time>
      </trkpt>
      <trkpt lat="59.612258" lon="17.865186">
        <ele>19.135580</ele>
        <time>2024-04-04T14:46:31.552Z</time>
      </trkpt>
      <trkpt lat="59.612340" lon="17.864594">
        <ele>19.065968</ele>
        <time>2024-04-04T14:46:36.160Z</time>
      </trkpt>
      <trkpt lat="59.612423" lon="17.864165">
        <ele>19.013877</ele>
        <time>2024-04-04T14:46:39.441Z</time>
      </trkpt>
      <trkpt lat="59.612631" lon="17.863589">
        <ele>18.933615</ele>
        <time>2024-04-04T14:46:44.184Z</time>
      </trkpt>
      <trkpt lat="59.612754" lon="17.863296">
        <ele>18.890433</ele>
        <time>2024-04-04T14:46:46.662Z</time>
      </trkpt>
      <trkpt lat="59.612865" lon="17.863117">
        <ele>18.858317</ele>
        <time>2024-04-04T14:46:48.424Z</time>
      </trkpt>
      <trkpt lat="59.613633" lon="17.862178">
        <ele>18.670063</ele>
        <time>2024-04-04T14:47:01.257Z</time>
      </trkpt>
      <trkpt lat="59.613750" lon="17.862133">
        <ele>18.645975</ele>
        <time>2024-04-04T14:47:02.910Z</time>
      </trkpt>
      <trkpt lat="59.613858" lon="17.862221">
        <ele>18.622369</ele>
        <time>2024-04-04T14:47:04.488Z</time>
      </trkpt>
      <trkpt lat="59.614047" lon="17.862360">
        <ele>18.581617</ele>
        <time>2024-04-04T14:47:07.635Z</time>
      </trkpt>
      <trkpt lat="59.614186" lon="17.862464">
        <ele>18.551583</ele>
        <time>2024-04-04T14:47:09.701Z</time>
      </trkpt>
      <trkpt lat="59.614297" lon="17.862490">
        <ele>18.528994</ele>
        <time>2024-04-04T14:47:11.720Z</time>
      </trkpt>
      <trkpt lat="59.614386" lon="17.862418">
        <ele>18.509561</ele>
        <time>2024-04-04T14:47:13.062Z</time>
      </trkpt>
      <trkpt lat="59.614876" lon="17.861566">
        <ele>18.070305</ele>
        <time>2024-04-04T14:47:22.196Z</time>
      </trkpt>
      <trkpt lat="59.614814" lon="17.860810">
        <ele>17.581927</ele>
        <time>2024-04-04T14:47:26.982Z</time>
      </trkpt>
      <trkpt lat="59.614787" lon="17.860452">
        <ele>17.351115</ele>
        <time>2024-04-04T14:47:29.157Z</time>
      </trkpt>
      <trkpt lat="59.614785" lon="17.860206">
        <ele>17.194227</ele>
        <time>2024-04-04T14:47:30.744Z</time>
      </trkpt>
      <trkpt lat="59.614816" lon="17.859978">
        <ele>17.043675</ele>
        <time>2024-04-04T14:47:32.103Z</time>
      </trkpt>
      <trkpt lat="59.614937" lon="17.859630">
        <ele>16.774391</ele>
        <time>2024-04-04T14:47:34.539Z</time>
      </trkpt>
      <trkpt lat="59.615163" lon="17.859454">
        <ele>16.468165</ele>
        <time>2024-04-04T14:47:37.212Z</time>
      </trkpt>
      <trkpt lat="59.616219" lon="17.859540">
        <ele>13.857306</ele>
        <time>2024-04-04T14:47:48.475Z</time>
      </trkpt>
      <trkpt lat="59.618314" lon="17.859074">
        <ele>8.203652</ele>
        <time>2024-04-04T14:48:09.801Z</time>
      </trkpt>
      <trkpt lat="59.618536" lon="17.858884">
        <ele>7.584110</ele>
        <time>2024-04-04T14:48:12.396Z</time>
      </trkpt>
      <trkpt lat="59.618729" lon="17.858588">
        <ele>6.958552</ele>
        <time>2024-04-04T14:48:15.151Z</time>
      </trkpt>
      <trkpt lat="59.618841" lon="17.858268">
        <ele>6.496371</ele>
        <time>2024-04-04T14:48:17.463Z</time>
      </trkpt>
      <trkpt lat="59.618888" lon="17.858111">
        <ele>6.549446</ele>
        <time>2024-04-04T14:48:19.020Z</time>
      </trkpt>
      <trkpt lat="59.618914" lon="17.858023">
        <ele>6.579095</ele>
        <time>2024-04-04T14:48:20.006Z</time>
      </trkpt>
      <trkpt lat="59.618878" lon="17.857926">
        <ele>6.614097</ele>
        <time>2024-04-04T14:48:20.753Z</time>
      </trkpt>
      <trkpt lat="59.618835" lon="17.857571">
        <ele>6.720292</ele>
        <time>2024-04-04T14:48:23.160Z</time>
      </trkpt>
      <trkpt lat="59.618907" lon="17.857305">
        <ele>6.808061</ele>
        <time>2024-04-04T14:48:25.283Z</time>
      </trkpt>
      <trkpt lat="59.618967" lon="17.857110">
        <ele>6.874463</ele>
        <time>2024-04-04T14:48:26.890Z</time>
      </trkpt>
      <trkpt lat="59.619253" lon="17.856146">
        <ele>7.199595</ele>
        <time>2024-04-04T14:48:36.888Z</time>
      </trkpt>
      <trkpt lat="59.619845" lon="17.853900">
        <ele>9.155460</ele>
        <time>2024-04-04T14:49:07.520Z</time>
      </trkpt>
      <trkpt lat="59.620209" lon="17.852520">
        <ele>10.944389</ele>
        <time>2024-04-04T14:49:26.255Z</time>
      </trkpt>
      <trkpt lat="59.620245" lon="17.852398">
        <ele>11.106738</ele>
        <time>2024-04-04T14:49:27.742Z</time>
      </trkpt>
      <trkpt lat="59.620017" lon="17.851860">
        <ele>11.941757</ele>
        <time>2024-04-04T14:49:38.430Z</time>
      </trkpt>
      <trkpt lat="59.619845" lon="17.851532">
        <ele>12.535558</ele>
        <time>2024-04-04T14:49:45.801Z</time>
      </trkpt>
      <trkpt lat="59.620017" lon="17.851860">
        <ele>13.129358</ele>
        <time>2024-04-04T14:49:52.971Z</time>
      </trkpt>
      <trkpt lat="59.620061" lon="17.851584">
        <ele>13.493040</ele>
        <time>2024-04-04T14:49:57.293Z</time>
      </trkpt>
      <trkpt lat="59.620131" lon="17.851812">
        <ele>13.828240</ele>
        <time>2024-04-04T14:50:01.022Z</time>
      </trkpt>
      <trkpt lat="59.620137" lon="17.850444">
        <ele>15.547504</ele>
        <time>2024-04-04T14:50:21.511Z</time>
      </trkpt>
      <trkpt lat="59.620170" lon="17.850193">
        <ele>15.873426</ele>
        <time>2024-04-04T14:50:25.636Z</time>
      </trkpt>
      <trkpt lat="59.620269" lon="17.849906">
        <ele>16.372457</ele>
        <time>2024-04-04T14:50:31.047Z</time>
      </trkpt>
      <trkpt lat="59.620577" lon="17.849380">
        <ele>17.659114</ele>
        <time>2024-04-04T14:50:44.462Z</time>
      </trkpt>
      <trkpt lat="59.620754" lon="17.849133">
        <ele>18.344026</ele>
        <time>2024-04-04T14:50:52.127Z</time>
      </trkpt>
      <trkpt lat="59.621005" lon="17.848920">
        <ele>19.207561</ele>
        <time>2024-04-04T14:51:01.620Z</time>
      </trkpt>
      <trkpt lat="59.621229" lon="17.848807">
        <ele>19.938428</ele>
        <time>2024-04-04T14:51:09.574Z</time>
      </trkpt>
      <trkpt lat="59.621885" lon="17.848722">
        <ele>21.913203</ele>
        <time>2024-04-04T14:51:31.394Z</time>
      </trkpt>
      <trkpt lat="59.621949" lon="17.848692">
        <ele>22.034834</ele>
        <time>2024-04-04T14:51:33.184Z</time>
      </trkpt>
      <trkpt lat="59.622002" lon="17.848644">
        <ele>22.142633</ele>
        <time>2024-04-04T14:51:34.858Z</time>
      </trkpt>
      <trkpt lat="59.622499" lon="17.849021">
        <ele>23.127003</ele>
        <time>2024-04-04T14:51:50.397Z</time>
      </trkpt>
      <trkpt lat="59.622916" lon="17.849278">
        <ele>23.934717</ele>
        <time>2024-04-04T14:52:02.451Z</time>
      </trkpt>
      <trkpt lat="59.623157" lon="17.849540">
        <ele>24.443289</ele>
        <time>2024-04-04T14:52:09.543Z</time>
      </trkpt>
      <trkpt lat="59.623229" lon="17.849607">
        <ele>24.590439</ele>
        <time>2024-04-04T14:52:11.710Z</time>
      </trkpt>
      <trkpt lat="59.623259" lon="17.850013">
        <ele>24.974133</ele>
        <time>2024-04-04T14:52:16.779Z</time>
      </trkpt>
      <trkpt lat="59.623387" lon="17.850297">
        <ele>25.009789</ele>
        <time>2024-04-04T14:52:21.543Z</time>
      </trkpt>
      <trkpt lat="59.623460" lon="17.850458">
        <ele>24.938443</ele>
        <time>2024-04-04T14:52:24.211Z</time>
      </trkpt>
      <trkpt lat="59.623560" lon="17.850635">
        <ele>24.850879</ele>
        <time>2024-04-04T14:52:27.104Z</time>
      </trkpt>
      <trkpt lat="59.624289" lon="17.852000">
        <ele>24.195856</ele>
        <time>2024-04-04T14:52:46.465Z</time>
      </trkpt>
      <trkpt lat="59.624439" lon="17.852291">
        <ele>24.058758</ele>
        <time>2024-04-04T14:52:49.821Z</time>
      </trkpt>
      <trkpt lat="59.625038" lon="17.853443">
        <ele>21.704099</ele>
        <time>2024-04-04T14:54:14.006Z</time>
      </trkpt>
      <trkpt lat="59.625408" lon="17.854173">
        <ele>19.843776</ele>
        <time>2024-04-04T14:55:05.543Z</time>
      </trkpt>
      <trkpt lat="59.625614" lon="17.854681">
        <ele>18.671757</ele>
        <time>2024-04-04T14:55:37.983Z</time>
      </trkpt>
      <trkpt lat="59.625755" lon="17.855030">
        <ele>17.867737</ele>
        <time>2024-04-04T14:56:00.675Z</time>
      </trkpt>
      <trkpt lat="59.626264" lon="17.856281">
        <ele>15.326476</ele>
        <time>2024-04-04T14:57:20.693Z</time>
      </trkpt>
      <trkpt lat="59.626478" lon="17.856726">
        <ele>14.372945</ele>
        <time>2024-04-04T14:57:51.667Z</time>
      </trkpt>
      <trkpt lat="59.626532" lon="17.856830">
        <ele>14.141491</ele>
        <time>2024-04-04T14:57:58.966Z</time>
      </trkpt>
      <trkpt lat="59.626660" lon="17.856991">
        <ele>13.675680</ele>
        <time>2024-04-04T14:58:14.556Z</time>
      </trkpt>
      <trkpt lat="59.626863" lon="17.857100">
        <ele>13.029758</ele>
        <time>2024-04-04T14:58:36.074Z</time>
      </trkpt>
      <trkpt lat="59.627077" lon="17.857352">
        <ele>12.264960</ele>
        <time>2024-04-04T14:59:02.680Z</time>
      </trkpt>
      <trkpt lat="59.627119" lon="17.857442">
        <ele>12.074802</ele>
        <time>2024-04-04T14:59:08.996Z</time>
      </trkpt>
      <trkpt lat="59.627198" lon="17.857820">
        <ele>11.798222</ele>
        <time>2024-04-04T14:59:31.428Z</time>
      </trkpt>
      <trkpt lat="59.627231" lon="17.857812">
        <ele>11.762113</ele>
        <time>2024-04-04T14:59:31.812Z</time>
      </trkpt>
      <trkpt lat="59.627302" lon="17.857794">
        <ele>11.684368</ele>
        <time>2024-04-04T14:59:32.722Z</time>
      </trkpt>
      <trkpt lat="59.627808" lon="17.857627">
        <ele>11.127199</ele>
        <time>2024-04-04T14:59:39.235Z</time>
      </trkpt>
      <trkpt lat="59.627926" lon="17.857604">
        <ele>10.998418</ele>
        <time>2024-04-04T14:59:40.655Z</time>
      </trkpt>
      <trkpt lat="59.628067" lon="17.857578">
        <ele>10.844612</ele>
        <time>2024-04-04T14:59:42.323Z</time>
      </trkpt>
      <trkpt lat="59.628308" lon="17.857540">
        <ele>10.582030</ele>
        <time>2024-04-04T14:59:45.116Z</time>
      </trkpt>
      <trkpt lat="59.629145" lon="17.857345">
        <ele>10.034557</ele>
        <time>2024-04-04T14:59:55.406Z</time>
      </trkpt>
      <trkpt lat="59.629535" lon="17.857242">
        <ele>10.027330</ele>
        <time>2024-04-04T15:00:01.127Z</time>
      </trkpt>
      <trkpt lat="59.630040" lon="17.857107">
        <ele>10.017971</ele>
        <time>2024-04-04T15:00:09.746Z</time>
      </trkpt>
      <trkpt lat="59.630221" lon="17.857058">
        <ele>10.014616</ele>
        <time>2024-04-04T15:00:12.573Z</time>
      </trkpt>
      <trkpt lat="59.630294" lon="17.857039">
        <ele>10.013263</ele>
        <time>2024-04-04T15:00:13.601Z</time>
      </trkpt>
      <trkpt lat="59.630431" lon="17.857003">
        <ele>10.010725</ele>
        <time>2024-04-04T15:00:16.001Z</time>
      </trkpt>
      <trkpt lat="59.630828" lon="17.856852">
        <ele>10.187102</ele>
        <time>2024-04-04T15:00:22.635Z</time>
      </trkpt>
      <trkpt lat="59.630966" lon="17.856799">
        <ele>10.288813</ele>
        <time>2024-04-04T15:00:24.979Z</time>
      </trkpt>
      <trkpt lat="59.630944" lon="17.857021">
        <ele>10.371565</ele>
        <time>2024-04-04T15:00:27.018Z</time>
      </trkpt>
      <trkpt lat="59.631735" lon="17.856819">
        <ele>10.948625</ele>
        <time>2024-04-04T15:00:41.718Z</time>
      </trkpt>
      <trkpt lat="59.631888" lon="17.856789">
        <ele>11.059867</ele>
        <time>2024-04-04T15:00:44.477Z</time>
      </trkpt>
      <trkpt lat="59.632165" lon="17.856655">
        <ele>11.266190</ele>
        <time>2024-04-04T15:00:49.501Z</time>
      </trkpt>
      <trkpt lat="59.632408" lon="17.856460">
        <ele>11.428822</ele>
        <time>2024-04-04T15:00:54.164Z</time>
      </trkpt>
      <trkpt lat="59.632591" lon="17.856230">
        <ele>11.556713</ele>
        <time>2024-04-04T15:00:58.130Z</time>
      </trkpt>
      <trkpt lat="59.633051" lon="17.856033">
        <ele>11.834336</ele>
        <time>2024-04-04T15:01:06.689Z</time>
      </trkpt>
      <trkpt lat="59.633642" lon="17.856050">
        <ele>12.182982</ele>
        <time>2024-04-04T15:01:16.832Z</time>
      </trkpt>
      <trkpt lat="59.633967" lon="17.856016">
        <ele>12.365207</ele>
        <time>2024-04-04T15:01:21.952Z</time>
      </trkpt>
      <trkpt lat="59.634060" lon="17.856206">
        <ele>12.283427</ele>
        <time>2024-04-04T15:01:24.210Z</time>
      </trkpt>
      <trkpt lat="59.634093" lon="17.856273">
        <ele>12.254501</ele>
        <time>2024-04-04T15:01:24.883Z</time>
      </trkpt>
      <trkpt lat="59.634110" lon="17.856728">
        <ele>12.113422</ele>
        <time>2024-04-04T15:01:28.105Z</time>
      </trkpt>
      <trkpt lat="59.634241" lon="17.856839">
        <ele>12.026249</ele>
        <time>2024-04-04T15:01:30.184Z</time>
      </trkpt>
      <trkpt lat="59.634483" lon="17.856931">
        <ele>11.875512</ele>
        <time>2024-04-04T15:01:33.401Z</time>
      </trkpt>
      <trkpt lat="59.634241" lon="17.856839">
        <ele>11.724774</ele>
        <time>2024-04-04T15:01:36.581Z</time>
      </trkpt>
      <trkpt lat="59.634110" lon="17.856728">
        <ele>11.637601</ele>
        <time>2024-04-04T15:01:38.457Z</time>
      </trkpt>
      <trkpt lat="59.634241" lon="17.856839">
        <ele>11.550429</ele>
        <time>2024-04-04T15:01:40.206Z</time>
      </trkpt>
      <trkpt lat="59.634073" lon="17.858097">
        <ele>11.083477</ele>
        <time>2024-04-04T15:01:51.216Z</time>
      </trkpt>
      <trkpt lat="59.634019" lon="17.858565">
        <ele>10.856351</ele>
        <time>2024-04-04T15:01:55.076Z</time>
      </trkpt>
      <trkpt lat="59.634068" lon="17.859066">
        <ele>10.614910</ele>
        <time>2024-04-04T15:01:59.419Z</time>
      </trkpt>
      <trkpt lat="59.633980" lon="17.859878">
        <ele>10.221988</ele>
        <time>2024-04-04T15:02:06.533Z</time>
      </trkpt>
      <trkpt lat="59.633930" lon="17.860169">
        <ele>10.076567</ele>
        <time>2024-04-04T15:02:09.462Z</time>
      </trkpt>
      <trkpt lat="59.633915" lon="17.860256">
        <ele>10.033075</ele>
        <time>2024-04-04T15:02:10.380Z</time>
      </trkpt>
      <trkpt lat="59.634041" lon="17.860393">
        <ele>9.898504</ele>
        <time>2024-04-04T15:02:12.070Z</time>
      </trkpt>
      <trkpt lat="59.634462" lon="17.860556">
        <ele>9.642206</ele>
        <time>2024-04-04T15:02:18.064Z</time>
      </trkpt>
      <trkpt lat="59.634958" lon="17.860532">
        <ele>9.931073</ele>
        <time>2024-04-04T15:02:26.099Z</time>
      </trkpt>
      <trkpt lat="59.635129" lon="17.860524">
        <ele>10.030661</ele>
        <time>2024-04-04T15:02:28.466Z</time>
      </trkpt>
      <trkpt lat="59.636063" lon="17.860525">
        <ele>10.574454</ele>
        <time>2024-04-04T15:02:46.363Z</time>
      </trkpt>
      <trkpt lat="59.636451" lon="17.860513">
        <ele>10.609911</ele>
        <time>2024-04-04T15:02:54.274Z</time>
      </trkpt>
      <trkpt lat="59.637044" lon="17.860495">
        <ele>10.560577</ele>
        <time>2024-04-04T15:03:03.532Z</time>
      </trkpt>
      <trkpt lat="59.637218" lon="17.860483">
        <ele>10.546094</ele>
        <time>2024-04-04T15:03:06.113Z</time>
      </trkpt>
      <trkpt lat="59.637326" lon="17.860422">
        <ele>10.536752</ele>
        <time>2024-04-04T15:03:07.516Z</time>
      </trkpt>
      <trkpt lat="59.637518" lon="17.860200">
        <ele>10.518253</ele>
        <time>2024-04-04T15:03:10.449Z</time>
      </trkpt>
      <trkpt lat="59.637599" lon="17.860464">
        <ele>10.505267</ele>
        <time>2024-04-04T15:03:13.045Z</time>
      </trkpt>
      <trkpt lat="59.637603" lon="17.860653">
        <ele>10.497314</ele>
        <time>2024-04-04T15:03:14.668Z</time>
      </trkpt>
      <trkpt lat="59.637562" lon="17.860816">
        <ele>10.489658</ele>
        <time>2024-04-04T15:03:16.370Z</time>
      </trkpt>
      <trkpt lat="59.637421" lon="17.861290">
        <ele>10.233079</ele>
        <time>2024-04-04T15:03:21.043Z</time>
      </trkpt>
      <trkpt lat="59.637410" lon="17.861519">
        <ele>10.094903</ele>
        <time>2024-04-04T15:03:23.143Z</time>
      </trkpt>
      <trkpt lat="59.637325" lon="17.861946">
        <ele>9.819239</ele>
        <time>2024-04-04T15:03:27.017Z</time>
      </trkpt>
      <trkpt lat="59.636965" lon="17.863170">
        <ele>8.968595</ele>
        <time>2024-04-04T15:03:38.962Z</time>
      </trkpt>
      <trkpt lat="59.636631" lon="17.864883">
        <ele>8.219000</ele>
        <time>2024-04-04T15:03:54.834Z</time>
      </trkpt>
      <trkpt lat="59.636561" lon="17.865352">
        <ele>8.141023</ele>
        <time>2024-04-04T15:03:59.339Z</time>
      </trkpt>
      <trkpt lat="59.636427" lon="17.867881">
        <ele>7.905243</ele>
        <time>2024-04-04T15:04:25.032Z</time>
      </trkpt>
      <trkpt lat="59.636413" lon="17.869307">
        <ele>8.560248</ele>
        <time>2024-04-04T15:04:42.182Z</time>
      </trkpt>
      <trkpt lat="59.636451" lon="17.869673">
        <ele>8.731840</ele>
        <time>2024-04-04T15:04:46.716Z</time>
      </trkpt>
      <trkpt lat="59.636746" lon="17.871354">
        <ele>9.600754</ele>
        <time>2024-04-04T15:05:09.444Z</time>
      </trkpt>
      <trkpt lat="59.636971" lon="17.873160">
        <ele>10.780722</ele>
        <time>2024-04-04T15:05:33.797Z</time>
      </trkpt>
      <trkpt lat="59.637035" lon="17.874264">
        <ele>11.485662</ele>
        <time>2024-04-04T15:05:44.669Z</time>
      </trkpt>
      <trkpt lat="59.637132" lon="17.874811">
        <ele>11.864163</ele>
        <time>2024-04-04T15:05:50.061Z</time>
      </trkpt>
      <trkpt lat="59.637863" lon="17.876578">
        <ele>13.397992</ele>
        <time>2024-04-04T15:06:12.714Z</time>
      </trkpt>
      <trkpt lat="59.638009" lon="17.876992">
        <ele>13.737086</ele>
        <time>2024-04-04T15:06:18.165Z</time>
      </trkpt>
      <trkpt lat="59.638203" lon="17.878298">
        <ele>14.774987</ele>
        <time>2024-04-04T15:06:33.066Z</time>
      </trkpt>
      <trkpt lat="59.638239" lon="17.879097">
        <ele>15.426546</ele>
        <time>2024-04-04T15:06:41.977Z</time>
      </trkpt>
      <trkpt lat="59.638473" lon="17.880226">
        <ele>16.417671</ele>
        <time>2024-04-04T15:06:55.479Z</time>
      </trkpt>
      <trkpt lat="59.638503" lon="17.880516">
        <ele>16.658104</ele>
        <time>2024-04-04T15:06:58.593Z</time>
      </trkpt>
      <trkpt lat="59.639179" lon="17.880681">
        <ele>17.288950</ele>
        <time>2024-04-04T15:07:11.999Z</time>
      </trkpt>
      <trkpt lat="59.639297" lon="17.880794">
        <ele>17.377712</ele>
        <time>2024-04-04T15:07:14.400Z</time>
      </trkpt>
      <trkpt lat="59.639347" lon="17.881572">
        <ele>17.646105</ele>
        <time>2024-04-04T15:07:21.529Z</time>
      </trkpt>
      <trkpt lat="59.639421" lon="17.882230">
        <ele>17.876794</ele>
        <time>2024-04-04T15:07:27.198Z</time>
      </trkpt>
      <trkpt lat="59.639536" lon="17.882744">
        <ele>18.069159</ele>
        <time>2024-04-04T15:07:31.570Z</time>
      </trkpt>
      <trkpt lat="59.639632" lon="17.882977">
        <ele>18.164862</ele>
        <time>2024-04-04T15:07:33.998Z</time>
      </trkpt>
      <trkpt lat="59.639839" lon="17.883147">
        <ele>17.940312</ele>
        <time>2024-04-04T15:07:37.099Z</time>
      </trkpt>
      <trkpt lat="59.640217" lon="17.883260">
        <ele>17.557296</ele>
        <time>2024-04-04T15:07:42.270Z</time>
      </trkpt>
      <trkpt lat="59.640594" lon="17.883463">
        <ele>17.165842</ele>
        <time>2024-04-04T15:07:47.105Z</time>
      </trkpt>
      <trkpt lat="59.640682" lon="17.883799">
        <ele>16.974212</ele>
        <time>2024-04-04T15:07:49.355Z</time>
      </trkpt>
      <trkpt lat="59.640758" lon="17.884355">
        <ele>16.682550</ele>
        <time>2024-04-04T15:07:52.708Z</time>
      </trkpt>
      <trkpt lat="59.640858" lon="17.884648">
        <ele>16.503521</ele>
        <time>2024-04-04T15:07:54.676Z</time>
      </trkpt>
      <trkpt lat="59.641171" lon="17.885318">
        <ele>15.906938</ele>
        <time>2024-04-04T15:07:59.708Z</time>
      </trkpt>
      <trkpt lat="59.641250" lon="17.885404">
        <ele>15.779256</ele>
        <time>2024-04-04T15:08:00.688Z</time>
      </trkpt>
      <trkpt lat="59.641481" lon="17.885407">
        <ele>15.452140</ele>
        <time>2024-04-04T15:08:03.247Z</time>
      </trkpt>
      <trkpt lat="59.642225" lon="17.885123">
        <ele>14.379169</ele>
        <time>2024-04-04T15:08:12.048Z</time>
      </trkpt>
      <trkpt lat="59.642398" lon="17.885185">
        <ele>14.130206</ele>
        <time>2024-04-04T15:08:14.174Z</time>
      </trkpt>
      <trkpt lat="59.642708" lon="17.885378">
        <ele>13.893309</ele>
        <time>2024-04-04T15:08:18.243Z</time>
      </trkpt>
      <trkpt lat="59.643053" lon="17.885490">
        <ele>14.134744</ele>
        <time>2024-04-04T15:08:22.892Z</time>
      </trkpt>
      <trkpt lat="59.643473" lon="17.885706">
        <ele>14.434425</ele>
        <time>2024-04-04T15:08:29.833Z</time>
      </trkpt>
      <trkpt lat="59.644399" lon="17.885477">
        <ele>15.114084</ele>
        <time>2024-04-04T15:08:49.463Z</time>
      </trkpt>
      <trkpt lat="59.645215" lon="17.885388">
        <ele>16.871075</ele>
        <time>2024-04-04T15:09:08.592Z</time>
      </trkpt>
      <trkpt lat="59.645545" lon="17.885406">
        <ele>17.580815</ele>
        <time>2024-04-04T15:09:16.464Z</time>
      </trkpt>
      <trkpt lat="59.645681" lon="17.885451">
        <ele>17.877263</ele>
        <time>2024-04-04T15:09:19.603Z</time>
      </trkpt>
      <trkpt lat="59.645771" lon="17.885544">
        <ele>18.095547</ele>
        <time>2024-04-04T15:09:22.307Z</time>
      </trkpt>
      <trkpt lat="59.646045" lon="17.886002">
        <ele>18.866655</ele>
        <time>2024-04-04T15:09:31.008Z</time>
      </trkpt>
      <trkpt lat="59.646215" lon="17.886154">
        <ele>19.191312</ele>
        <time>2024-04-04T15:09:35.350Z</time>
      </trkpt>
      <trkpt lat="59.646567" lon="17.886168">
        <ele>19.777424</ele>
        <time>2024-04-04T15:09:43.728Z</time>
      </trkpt>
      <trkpt lat="59.647380" lon="17.886013">
        <ele>21.137136</ele>
        <time>2024-04-04T15:10:02.240Z</time>
      </trkpt>
      <trkpt lat="59.647444" lon="17.886006">
        <ele>21.243843</ele>
        <time>2024-04-04T15:10:03.490Z</time>
      </trkpt>
      <trkpt lat="59.648269" lon="17.885881">
        <ele>21.749475</ele>
        <time>2024-04-04T15:10:18.094Z</time>
      </trkpt>
      <trkpt lat="59.648713" lon="17.885756">
        <ele>21.563355</ele>
        <time>2024-04-04T15:10:24.572Z</time>
      </trkpt>
      <trkpt lat="59.648822" lon="17.885639">
        <ele>21.511894</ele>
        <time>2024-04-04T15:10:26.193Z</time>
      </trkpt>
      <trkpt lat="59.648884" lon="17.885403">
        <ele>21.456115</ele>
        <time>2024-04-04T15:10:27.881Z</time>
      </trkpt>
      <trkpt lat="59.648896" lon="17.885258">
        <ele>21.425302</ele>
        <time>2024-04-04T15:10:28.853Z</time>
      </trkpt>
      <trkpt lat="59.648848" lon="17.884688">
        <ele>21.304123</ele>
        <time>2024-04-04T15:10:32.376Z</time>
      </trkpt>
      <trkpt lat="59.648882" lon="17.884496">
        <ele>21.261459</ele>
        <time>2024-04-04T15:10:33.620Z</time>
      </trkpt>
      <trkpt lat="59.648969" lon="17.884385">
        <ele>21.218500</ele>
        <time>2024-04-04T15:10:34.806Z</time>
      </trkpt>
      <trkpt lat="59.649702" lon="17.884042">
        <ele>20.006177</ele>
        <time>2024-04-04T15:10:43.177Z</time>
      </trkpt>
      <trkpt lat="59.650252" lon="17.883394">
        <ele>18.858848</ele>
        <time>2024-04-04T15:10:50.131Z</time>
      </trkpt>
      <trkpt lat="59.650388" lon="17.883178">
        <ele>18.546281</ele>
        <time>2024-04-04T15:10:52.052Z</time>
      </trkpt>
      <trkpt lat="59.650837" lon="17.881985">
        <ele>17.703777</ele>
        <time>2024-04-04T15:11:00.695Z</time>
      </trkpt>
      <trkpt lat="59.650917" lon="17.881567">
        <ele>17.569981</ele>
        <time>2024-04-04T15:11:03.463Z</time>
      </trkpt>
      <trkpt lat="59.650962" lon="17.880600">
        <ele>17.279302</ele>
        <time>2024-04-04T15:11:09.820Z</time>
      </trkpt>
      <trkpt lat="59.651107" lon="17.879964">
        <ele>17.070444</ele>
        <time>2024-04-04T15:11:14.921Z</time>
      </trkpt>
      <trkpt lat="59.651261" lon="17.879413">
        <ele>16.894361</ele>
        <time>2024-04-04T15:11:19.912Z</time>
      </trkpt>
      <trkpt lat="59.651455" lon="17.878974">
        <ele>17.116945</ele>
        <time>2024-04-04T15:11:24.847Z</time>
      </trkpt>
      <trkpt lat="59.652122" lon="17.877830">
        <ele>17.783615</ele>
        <time>2024-04-04T15:11:40.678Z</time>
      </trkpt>
      <trkpt lat="59.652635" lon="17.877311">
        <ele>18.218795</ele>
        <time>2024-04-04T15:11:51.574Z</time>
      </trkpt>
      <trkpt lat="59.653120" lon="17.876963">
        <ele>18.576683</ele>
        <time>2024-04-04T15:12:01.580Z</time>
      </trkpt>
      <trkpt lat="59.654450" lon="17.875760">
        <ele>19.443477</ele>
        <time>2024-04-04T15:12:27.031Z</time>
      </trkpt>
      <trkpt lat="59.654972" lon="17.875245">
        <ele>19.272794</ele>
        <time>2024-04-04T15:12:35.428Z</time>
      </trkpt>
      <trkpt lat="59.655222" lon="17.874877">
        <ele>19.181622</ele>
        <time>2024-04-04T15:12:39.595Z</time>
      </trkpt>
      <trkpt lat="59.655514" lon="17.874039">
        <ele>19.031119</ele>
        <time>2024-04-04T15:12:46.206Z</time>
      </trkpt>
      <trkpt lat="59.655781" lon="17.873679">
        <ele>18.926988</ele>
        <time>2024-04-04T15:12:50.289Z</time>
      </trkpt>
      <trkpt lat="59.656045" lon="17.873107">
        <ele>18.763696</ele>
        <time>2024-04-04T15:12:55.310Z</time>
      </trkpt>
      <trkpt lat="59.656302" lon="17.872746">
        <ele>18.632225</ele>
        <time>2024-04-04T15:12:59.452Z</time>
      </trkpt>
      <trkpt lat="59.656582" lon="17.872005">
        <ele>18.437199</ele>
        <time>2024-04-04T15:13:05.772Z</time>
      </trkpt>
      <trkpt lat="59.656695" lon="17.871813">
        <ele>18.375071</ele>
        <time>2024-04-04T15:13:07.870Z</time>
      </trkpt>
      <trkpt lat="59.657080" lon="17.871627">
        <ele>18.209738</ele>
        <time>2024-04-04T15:13:13.412Z</time>
      </trkpt>
      <trkpt lat="59.657186" lon="17.871456">
        <ele>18.215725</ele>
        <time>2024-04-04T15:13:15.314Z</time>
      </trkpt>
      <trkpt lat="59.657447" lon="17.870486">
        <ele>18.244604</ele>
        <time>2024-04-04T15:13:23.828Z</time>
      </trkpt>
      <trkpt lat="59.657788" lon="17.869612">
        <ele>18.273621</ele>
        <time>2024-04-04T15:13:33.002Z</time>
      </trkpt>
      <trkpt lat="59.658052" lon="17.868841">
        <ele>18.298096</ele>
        <time>2024-04-04T15:13:40.068Z</time>
      </trkpt>
      <trkpt lat="59.658148" lon="17.868781">
        <ele>18.304402</ele>
        <time>2024-04-04T15:13:41.480Z</time>
      </trkpt>
      <trkpt lat="59.658401" lon="17.869383">
        <ele>18.346183</ele>
        <time>2024-04-04T15:13:46.755Z</time>
      </trkpt>
      <trkpt lat="59.658863" lon="17.870319">
        <ele>18.416005</ele>
        <time>2024-04-04T15:13:56.090Z</time>
      </trkpt>
      <trkpt lat="59.658971" lon="17.870432">
        <ele>18.428907</ele>
        <time>2024-04-04T15:13:58.094Z</time>
      </trkpt>
      <trkpt lat="59.659022" lon="17.870429">
        <ele>18.434296</ele>
        <time>2024-04-04T15:13:59.065Z</time>
      </trkpt>
      <trkpt lat="59.659067" lon="17.870377">
        <ele>18.439799</ele>
        <time>2024-04-04T15:13:59.655Z</time>
      </trkpt>
      <trkpt lat="59.659218" lon="17.869954">
        <ele>18.467434</ele>
        <time>2024-04-04T15:14:04.142Z</time>
      </trkpt>
      <trkpt lat="59.659471" lon="17.869499">
        <ele>18.609810</ele>
        <time>2024-04-04T15:14:09.793Z</time>
      </trkpt>
      <trkpt lat="59.660734" lon="17.867783">
        <ele>20.297349</ele>
        <time>2024-04-04T15:14:39.456Z</time>
      </trkpt>
      <trkpt lat="59.661038" lon="17.867269">
        <ele>20.700153</ele>
        <time>2024-04-04T15:14:48.232Z</time>
      </trkpt>
      <trkpt lat="59.661306" lon="17.866753">
        <ele>21.053324</ele>
        <time>2024-04-04T15:14:55.916Z</time>
      </trkpt>
      <trkpt lat="59.661534" lon="17.866315">
        <ele>21.353454</ele>
        <time>2024-04-04T15:15:02.177Z</time>
      </trkpt>
      <trkpt lat="59.661717" lon="17.865674">
        <ele>21.704803</ele>
        <time>2024-04-04T15:15:09.535Z</time>
      </trkpt>
      <trkpt lat="59.662075" lon="17.863755">
        <ele>22.027957</ele>
        <time>2024-04-04T15:15:24.979Z</time>
      </trkpt>
      <trkpt lat="59.662152" lon="17.863264">
        <ele>21.957947</ele>
        <time>2024-04-04T15:15:28.323Z</time>
      </trkpt>
      <trkpt lat="59.662181" lon="17.862836">
        <ele>21.899143</ele>
        <time>2024-04-04T15:15:31.160Z</time>
      </trkpt>
      <trkpt lat="59.662241" lon="17.862415">
        <ele>21.839575</ele>
        <time>2024-04-04T15:15:34.030Z</time>
      </trkpt>
      <trkpt lat="59.662320" lon="17.861852">
        <ele>21.760006</ele>
        <time>2024-04-04T15:15:38.040Z</time>
      </trkpt>
      <trkpt lat="59.662503" lon="17.860803">
        <ele>21.611069</ele>
        <time>2024-04-04T15:15:46.017Z</time>
      </trkpt>
      <trkpt lat="59.662583" lon="17.860643">
        <ele>21.581260</ele>
        <time>2024-04-04T15:15:47.654Z</time>
      </trkpt>
      <trkpt lat="59.662700" lon="17.860520">
        <ele>21.546533</ele>
        <time>2024-04-04T15:15:49.572Z</time>
      </trkpt>
      <trkpt lat="59.663127" lon="17.860376">
        <ele>21.432985</ele>
        <time>2024-04-04T15:15:55.285Z</time>
      </trkpt>
      <trkpt lat="59.664050" lon="17.859657">
        <ele>21.203069</ele>
        <time>2024-04-04T15:16:09.477Z</time>
      </trkpt>
      <trkpt lat="59.664285" lon="17.859371">
        <ele>21.180734</ele>
        <time>2024-04-04T15:16:13.239Z</time>
      </trkpt>
      <trkpt lat="59.664566" lon="17.858817">
        <ele>21.148625</ele>
        <time>2024-04-04T15:16:18.741Z</time>
      </trkpt>
      <trkpt lat="59.664808" lon="17.858170">
        <ele>21.115700</ele>
        <time>2024-04-04T15:16:24.659Z</time>
      </trkpt>
      <trkpt lat="59.664850" lon="17.857940">
        <ele>21.105698</ele>
        <time>2024-04-04T15:16:26.418Z</time>
      </trkpt>
      <trkpt lat="59.664846" lon="17.856771">
        <ele>21.097922</ele>
        <time>2024-04-04T15:16:35.456Z</time>
      </trkpt>
      <trkpt lat="59.664896" lon="17.856444">
        <ele>21.127003</ele>
        <time>2024-04-04T15:16:38.091Z</time>
      </trkpt>
      <trkpt lat="59.665044" lon="17.856033">
        <ele>21.169966</ele>
        <time>2024-04-04T15:16:42.084Z</time>
      </trkpt>
      <trkpt lat="59.665062" lon="17.855756">
        <ele>21.193737</ele>
        <time>2024-04-04T15:16:44.259Z</time>
      </trkpt>
      <trkpt lat="59.665043" lon="17.855467">
        <ele>21.218543</ele>
        <time>2024-04-04T15:16:46.522Z</time>
      </trkpt>
      <trkpt lat="59.664893" lon="17.854656">
        <ele>21.292054</ele>
        <time>2024-04-04T15:16:53.139Z</time>
      </trkpt>
      <trkpt lat="59.664876" lon="17.854332">
        <ele>21.319780</ele>
        <time>2024-04-04T15:16:55.706Z</time>
      </trkpt>
      <trkpt lat="59.664885" lon="17.853659">
        <ele>21.372628</ele>
        <time>2024-04-04T15:17:01.256Z</time>
      </trkpt>
      <trkpt lat="59.664772" lon="17.853020">
        <ele>21.346960</ele>
        <time>2024-04-04T15:17:07.014Z</time>
      </trkpt>
      <trkpt lat="59.664722" lon="17.852509">
        <ele>21.327226</ele>
        <time>2024-04-04T15:17:11.077Z</time>
      </trkpt>
      <trkpt lat="59.664772" lon="17.851677">
        <ele>21.295461</ele>
        <time>2024-04-04T15:17:17.141Z</time>
      </trkpt>
      <trkpt lat="59.664947" lon="17.851327">
        <ele>21.276789</ele>
        <time>2024-04-04T15:17:20.451Z</time>
      </trkpt>
      <trkpt lat="59.664919" lon="17.850418">
        <ele>21.242263</ele>
        <time>2024-04-04T15:17:26.424Z</time>
      </trkpt>
      <trkpt lat="59.664989" lon="17.850414">
        <ele>21.255003</ele>
        <time>2024-04-04T15:17:34.197Z</time>
      </trkpt>
      <trkpt lat="59.665014" lon="17.849978">
        <ele>21.389650</ele>
        <time>2024-04-04T15:17:38.327Z</time>
      </trkpt>
      <trkpt lat="59.665159" lon="17.849236">
        <ele>21.633784</ele>
        <time>2024-04-04T15:17:47.125Z</time>
      </trkpt>
      <trkpt lat="59.665162" lon="17.849218">
        <ele>21.639600</ele>
        <time>2024-04-04T15:17:47.355Z</time>
      </trkpt>
      <trkpt lat="59.665199" lon="17.848903">
        <ele>21.738838</ele>
        <time>2024-04-04T15:17:51.106Z</time>
      </trkpt>
      <trkpt lat="59.665203" lon="17.848101">
        <ele>21.984944</ele>
        <time>2024-04-04T15:18:00.945Z</time>
      </trkpt>
      <trkpt lat="59.665172" lon="17.848089">
        <ele>22.004135</ele>
        <time>2024-04-04T15:18:01.719Z</time>
      </trkpt>
      <trkpt lat="59.665231" lon="17.847653">
        <ele>22.142641</ele>
        <time>2024-04-04T15:18:06.090Z</time>
      </trkpt>
      <trkpt lat="59.665296" lon="17.847329">
        <ele>22.249617</ele>
        <time>2024-04-04T15:18:09.389Z</time>
      </trkpt>
      <trkpt lat="59.665410" lon="17.846978">
        <ele>22.404697</ele>
        <time>2024-04-04T15:18:13.380Z</time>
      </trkpt>
      <trkpt lat="59.665524" lon="17.846574">
        <ele>22.630326</ele>
        <time>2024-04-04T15:18:18.223Z</time>
      </trkpt>
      <trkpt lat="59.666198" lon="17.846086">
        <ele>23.323112</ele>
        <time>2024-04-04T15:18:31.566Z</time>
      </trkpt>
      <trkpt lat="59.666403" lon="17.845833">
        <ele>23.556303</ele>
        <time>2024-04-04T15:18:36.088Z</time>
      </trkpt>
      <trkpt lat="59.666780" lon="17.845152">
        <ele>24.048932</ele>
        <time>2024-04-04T15:18:45.866Z</time>
      </trkpt>
      <trkpt lat="59.666899" lon="17.844924">
        <ele>24.144645</ele>
        <time>2024-04-04T15:18:48.647Z</time>
      </trkpt>
      <trkpt lat="59.667023" lon="17.844431">
        <ele>24.290737</ele>
        <time>2024-04-04T15:18:53.454Z</time>
      </trkpt>
      <trkpt lat="59.667097" lon="17.844024">
        <ele>24.405479</ele>
        <time>2024-04-04T15:18:56.893Z</time>
      </trkpt>
      <trkpt lat="59.667220" lon="17.843595">
        <ele>24.536332</ele>
        <time>2024-04-04T15:19:01.159Z</time>
      </trkpt>
      <trkpt lat="59.667395" lon="17.843265">
        <ele>24.663259</ele>
        <time>2024-04-04T15:19:05.194Z</time>
      </trkpt>
      <trkpt lat="59.667610" lon="17.842992">
        <ele>24.797407</ele>
        <time>2024-04-04T15:19:09.178Z</time>
      </trkpt>
      <trkpt lat="59.667843" lon="17.842790">
        <ele>24.931001</ele>
        <time>2024-04-04T15:19:13.279Z</time>
      </trkpt>
      <trkpt lat="59.668340" lon="17.842590">
        <ele>25.146770</ele>
        <time>2024-04-04T15:19:21.847Z</time>
      </trkpt>
      <trkpt lat="59.668509" lon="17.842459">
        <ele>25.215956</ele>
        <time>2024-04-04T15:19:25.383Z</time>
      </trkpt>
      <trkpt lat="59.668801" lon="17.842143">
        <ele>25.342810</ele>
        <time>2024-04-04T15:19:31.432Z</time>
      </trkpt>
      <trkpt lat="59.669152" lon="17.841599">
        <ele>25.512729</ele>
        <time>2024-04-04T15:19:38.789Z</time>
      </trkpt>
      <trkpt lat="59.669945" lon="17.841083">
        <ele>25.673311</ele>
        <time>2024-04-04T15:19:50.638Z</time>
      </trkpt>
      <trkpt lat="59.670780" lon="17.840144">
        <ele>25.603743</ele>
        <time>2024-04-04T15:20:03.807Z</time>
      </trkpt>
      <trkpt lat="59.672137" lon="17.839475">
        <ele>26.480811</ele>
        <time>2024-04-04T15:20:26.490Z</time>
      </trkpt>
      <trkpt lat="59.672535" lon="17.839057">
        <ele>26.933883</ele>
        <time>2024-04-04T15:20:35.996Z</time>
      </trkpt>
      <trkpt lat="59.672986" lon="17.838439">
        <ele>27.589036</ele>
        <time>2024-04-04T15:20:48.095Z</time>
      </trkpt>
      <trkpt lat="59.673139" lon="17.838113">
        <ele>28.031105</ele>
        <time>2024-04-04T15:20:53.274Z</time>
      </trkpt>
      <trkpt lat="59.673223" lon="17.837643">
        <ele>28.526310</ele>
        <time>2024-04-04T15:20:59.168Z</time>
      </trkpt>
      <trkpt lat="59.673258" lon="17.836963">
        <ele>29.205215</ele>
        <time>2024-04-04T15:21:07.340Z</time>
      </trkpt>
      <trkpt lat="59.673548" lon="17.835908">
        <ele>30.398295</ele>
        <time>2024-04-04T15:21:21.069Z</time>
      </trkpt>
      <trkpt lat="59.673740" lon="17.834998">
        <ele>31.218686</ele>
        <time>2024-04-04T15:21:31.929Z</time>
      </trkpt>
      <trkpt lat="59.673936" lon="17.834562">
        <ele>31.599025</ele>
        <time>2024-04-04T15:21:38.205Z</time>
      </trkpt>
      <trkpt lat="59.674171" lon="17.834252">
        <ele>31.963366</ele>
        <time>2024-04-04T15:21:44.085Z</time>
      </trkpt>
      <trkpt lat="59.674438" lon="17.834020">
        <ele>32.339591</ele>
        <time>2024-04-04T15:21:50.042Z</time>
      </trkpt>
      <trkpt lat="59.674998" lon="17.833811">
        <ele>33.074909</ele>
        <time>2024-04-04T15:22:01.118Z</time>
      </trkpt>
      <trkpt lat="59.675252" lon="17.833596">
        <ele>33.254212</ele>
        <time>2024-04-04T15:22:05.928Z</time>
      </trkpt>
      <trkpt lat="59.675858" lon="17.832207">
        <ele>33.365421</ele>
        <time>2024-04-04T15:22:20.137Z</time>
      </trkpt>
      <trkpt lat="59.676220" lon="17.830937">
        <ele>33.446983</ele>
        <time>2024-04-04T15:22:30.455Z</time>
      </trkpt>
      <trkpt lat="59.676379" lon="17.830430">
        <ele>33.354399</ele>
        <time>2024-04-04T15:22:34.731Z</time>
      </trkpt>
      <trkpt lat="59.676517" lon="17.830081">
        <ele>33.285634</ele>
        <time>2024-04-04T15:22:37.824Z</time>
      </trkpt>
      <trkpt lat="59.676743" lon="17.829601">
        <ele>33.183823</ele>
        <time>2024-04-04T15:22:42.428Z</time>
      </trkpt>
      <trkpt lat="59.676924" lon="17.829308">
        <ele>33.112002</ele>
        <time>2024-04-04T15:22:45.626Z</time>
      </trkpt>
      <trkpt lat="59.677064" lon="17.829166">
        <ele>33.063676</ele>
        <time>2024-04-04T15:22:47.680Z</time>
      </trkpt>
      <trkpt lat="59.677505" lon="17.828652">
        <ele>32.906464</ele>
        <time>2024-04-04T15:22:54.702Z</time>
      </trkpt>
      <trkpt lat="59.677939" lon="17.828346">
        <ele>32.525844</ele>
        <time>2024-04-04T15:23:01.044Z</time>
      </trkpt>
      <trkpt lat="59.678442" lon="17.828267">
        <ele>32.094876</ele>
        <time>2024-04-04T15:23:07.538Z</time>
      </trkpt>
      <trkpt lat="59.679303" lon="17.828405">
        <ele>31.354279</ele>
        <time>2024-04-04T15:23:17.818Z</time>
      </trkpt>
      <trkpt lat="59.679445" lon="17.828312">
        <ele>31.166073</ele>
        <time>2024-04-04T15:23:19.433Z</time>
      </trkpt>
      <trkpt lat="59.679535" lon="17.828188">
        <ele>31.028114</ele>
        <time>2024-04-04T15:23:20.785Z</time>
      </trkpt>
      <trkpt lat="59.679959" lon="17.827301">
        <ele>30.252089</ele>
        <time>2024-04-04T15:23:28.290Z</time>
      </trkpt>
      <trkpt lat="59.680109" lon="17.826950">
        <ele>29.959940</ele>
        <time>2024-04-04T15:23:31.164Z</time>
      </trkpt>
      <trkpt lat="59.680182" lon="17.826661">
        <ele>29.754646</ele>
        <time>2024-04-04T15:23:33.007Z</time>
      </trkpt>
      <trkpt lat="59.680266" lon="17.826131">
        <ele>29.401748</ele>
        <time>2024-04-04T15:23:36.211Z</time>
      </trkpt>
      <trkpt lat="59.680406" lon="17.825566">
        <ele>29.009023</ele>
        <time>2024-04-04T15:23:39.903Z</time>
      </trkpt>
      <trkpt lat="59.680526" lon="17.825240">
        <ele>28.771373</ele>
        <time>2024-04-04T15:23:42.387Z</time>
      </trkpt>
      <trkpt lat="59.680647" lon="17.824911">
        <ele>28.531607</ele>
        <time>2024-04-04T15:23:44.777Z</time>
      </trkpt>
      <trkpt lat="59.681033" lon="17.824286">
        <ele>27.949906</ele>
        <time>2024-04-04T15:23:50.902Z</time>
      </trkpt>
      <trkpt lat="59.681380" lon="17.823972">
        <ele>27.504781</ele>
        <time>2024-04-04T15:23:55.677Z</time>
      </trkpt>
      <trkpt lat="59.681478" lon="17.823796">
        <ele>27.350437</ele>
        <time>2024-04-04T15:23:57.261Z</time>
      </trkpt>
      <trkpt lat="59.682714" lon="17.820287">
        <ele>24.450203</ele>
        <time>2024-04-04T15:24:22.147Z</time>
      </trkpt>
      <trkpt lat="59.683201" lon="17.819150">
        <ele>23.845701</ele>
        <time>2024-04-04T15:24:31.415Z</time>
      </trkpt>
      <trkpt lat="59.684417" lon="17.816501">
        <ele>22.523854</ele>
        <time>2024-04-04T15:24:55.182Z</time>
      </trkpt>
      <trkpt lat="59.684774" lon="17.815925">
        <ele>22.226613</ele>
        <time>2024-04-04T15:25:01.144Z</time>
      </trkpt>
      <trkpt lat="59.685051" lon="17.815589">
        <ele>22.016925</ele>
        <time>2024-04-04T15:25:05.274Z</time>
      </trkpt>
      <trkpt lat="59.685363" lon="17.815289">
        <ele>21.785166</ele>
        <time>2024-04-04T15:25:09.642Z</time>
      </trkpt>
      <trkpt lat="59.685735" lon="17.815042">
        <ele>21.512171</ele>
        <time>2024-04-04T15:25:14.609Z</time>
      </trkpt>
      <trkpt lat="59.686060" lon="17.814904">
        <ele>21.280893</ele>
        <time>2024-04-04T15:25:18.830Z</time>
      </trkpt>
      <trkpt lat="59.686388" lon="17.814844">
        <ele>21.051693</ele>
        <time>2024-04-04T15:25:22.996Z</time>
      </trkpt>
      <trkpt lat="59.686720" lon="17.814840">
        <ele>20.820676</ele>
        <time>2024-04-04T15:25:27.231Z</time>
      </trkpt>
      <trkpt lat="59.687030" lon="17.814900">
        <ele>20.636156</ele>
        <time>2024-04-04T15:25:31.274Z</time>
      </trkpt>
      <trkpt lat="59.687383" lon="17.815046">
        <ele>20.594535</ele>
        <time>2024-04-04T15:25:36.086Z</time>
      </trkpt>
      <trkpt lat="59.688539" lon="17.815731">
        <ele>20.455271</ele>
        <time>2024-04-04T15:25:53.598Z</time>
      </trkpt>
      <trkpt lat="59.688843" lon="17.815865">
        <ele>20.524036</ele>
        <time>2024-04-04T15:25:58.603Z</time>
      </trkpt>
      <trkpt lat="59.689521" lon="17.816011">
        <ele>20.972386</ele>
        <time>2024-04-04T15:26:10.044Z</time>
      </trkpt>
      <trkpt lat="59.690113" lon="17.815989">
        <ele>21.361643</ele>
        <time>2024-04-04T15:26:20.510Z</time>
      </trkpt>
      <trkpt lat="59.690372" lon="17.815910">
        <ele>21.533919</ele>
        <time>2024-04-04T15:26:25.322Z</time>
      </trkpt>
      <trkpt lat="59.690793" lon="17.815738">
        <ele>22.020683</ele>
        <time>2024-04-04T15:26:33.719Z</time>
      </trkpt>
      <trkpt lat="59.691301" lon="17.815405">
        <ele>22.733182</ele>
        <time>2024-04-04T15:26:44.851Z</time>
      </trkpt>
      <trkpt lat="59.691709" lon="17.815050">
        <ele>23.326537</ele>
        <time>2024-04-04T15:26:54.131Z</time>
      </trkpt>
      <trkpt lat="59.692062" lon="17.814653">
        <ele>23.867015</ele>
        <time>2024-04-04T15:27:02.495Z</time>
      </trkpt>
      <trkpt lat="59.692439" lon="17.814137">
        <ele>24.303529</ele>
        <time>2024-04-04T15:27:11.931Z</time>
      </trkpt>
      <trkpt lat="59.693725" lon="17.812002">
        <ele>25.496654</ele>
        <time>2024-04-04T15:27:41.750Z</time>
      </trkpt>
      <trkpt lat="59.694820" lon="17.810123">
        <ele>25.394619</ele>
        <time>2024-04-04T15:28:01.939Z</time>
      </trkpt>
      <trkpt lat="59.695573" lon="17.808967">
        <ele>25.386486</ele>
        <time>2024-04-04T15:28:15.271Z</time>
      </trkpt>
      <trkpt lat="59.696370" lon="17.807964">
        <ele>25.387026</ele>
        <time>2024-04-04T15:28:29.862Z</time>
      </trkpt>
      <trkpt lat="59.696976" lon="17.807306">
        <ele>25.422213</ele>
        <time>2024-04-04T15:28:40.567Z</time>
      </trkpt>
      <trkpt lat="59.697863" lon="17.806547">
        <ele>25.473179</ele>
        <time>2024-04-04T15:28:54.926Z</time>
      </trkpt>
      <trkpt lat="59.699504" lon="17.805375">
        <ele>25.542831</ele>
        <time>2024-04-04T15:29:20.274Z</time>
      </trkpt>
      <trkpt lat="59.699849" lon="17.805196">
        <ele>25.630735</ele>
        <time>2024-04-04T15:29:26.110Z</time>
      </trkpt>
      <trkpt lat="59.700183" lon="17.805086">
        <ele>25.827650</ele>
        <time>2024-04-04T15:29:31.828Z</time>
      </trkpt>
      <trkpt lat="59.700574" lon="17.805050">
        <ele>26.055298</ele>
        <time>2024-04-04T15:29:38.635Z</time>
      </trkpt>
      <trkpt lat="59.700694" lon="17.805053">
        <ele>26.125095</ele>
        <time>2024-04-04T15:29:40.698Z</time>
      </trkpt>
      <trkpt lat="59.701243" lon="17.805155">
        <ele>26.445789</ele>
        <time>2024-04-04T15:29:50.243Z</time>
      </trkpt>
      <trkpt lat="59.702093" lon="17.805625">
        <ele>26.935383</ele>
        <time>2024-04-04T15:30:06.693Z</time>
      </trkpt>
      <trkpt lat="59.702322" lon="17.805883">
        <ele>27.078566</ele>
        <time>2024-04-04T15:30:10.801Z</time>
      </trkpt>
      <trkpt lat="59.702421" lon="17.806095">
        <ele>27.157787</ele>
        <time>2024-04-04T15:30:13.386Z</time>
      </trkpt>
      <trkpt lat="59.702648" lon="17.806898">
        <ele>27.410210</ele>
        <time>2024-04-04T15:30:21.021Z</time>
      </trkpt>
      <trkpt lat="59.702786" lon="17.807180">
        <ele>27.517948</ele>
        <time>2024-04-04T15:30:24.384Z</time>
      </trkpt>
      <trkpt lat="59.703150" lon="17.807539">
        <ele>27.347781</ele>
        <time>2024-04-04T15:30:30.933Z</time>
      </trkpt>
      <trkpt lat="59.703338" lon="17.807635">
        <ele>27.201357</ele>
        <time>2024-04-04T15:30:33.624Z</time>
      </trkpt>
      <trkpt lat="59.703478" lon="17.807654">
        <ele>27.095518</ele>
        <time>2024-04-04T15:30:35.695Z</time>
      </trkpt>
      <trkpt lat="59.703606" lon="17.807650">
        <ele>26.998964</ele>
        <time>2024-04-04T15:30:37.489Z</time>
      </trkpt>
      <trkpt lat="59.703738" lon="17.807581">
        <ele>26.896003</ele>
        <time>2024-04-04T15:30:39.367Z</time>
      </trkpt>
      <trkpt lat="59.703833" lon="17.807489">
        <ele>26.816258</ele>
        <time>2024-04-04T15:30:40.750Z</time>
      </trkpt>
      <trkpt lat="59.704240" lon="17.806919">
        <ele>26.440404</ele>
        <time>2024-04-04T15:30:46.618Z</time>
      </trkpt>
      <trkpt lat="59.704452" lon="17.806731">
        <ele>26.265237</ele>
        <time>2024-04-04T15:30:49.125Z</time>
      </trkpt>
      <trkpt lat="59.705005" lon="17.806550">
        <ele>24.857331</ele>
        <time>2024-04-04T15:30:55.313Z</time>
      </trkpt>
      <trkpt lat="59.705328" lon="17.806304">
        <ele>23.912599</ele>
        <time>2024-04-04T15:30:59.009Z</time>
      </trkpt>
      <trkpt lat="59.705482" lon="17.806106">
        <ele>23.411442</ele>
        <time>2024-04-04T15:31:00.877Z</time>
      </trkpt>
      <trkpt lat="59.706210" lon="17.805135">
        <ele>21.027306</ele>
        <time>2024-04-04T15:31:09.682Z</time>
      </trkpt>
      <trkpt lat="59.706575" lon="17.804535">
        <ele>19.783855</ele>
        <time>2024-04-04T15:31:14.393Z</time>
      </trkpt>
      <trkpt lat="59.707404" lon="17.802983">
        <ele>16.793689</ele>
        <time>2024-04-04T15:31:26.552Z</time>
      </trkpt>
      <trkpt lat="59.707619" lon="17.802935">
        <ele>16.546043</ele>
        <time>2024-04-04T15:31:28.992Z</time>
      </trkpt>
      <trkpt lat="59.707944" lon="17.803122">
        <ele>16.436914</ele>
        <time>2024-04-04T15:31:32.951Z</time>
      </trkpt>
      <trkpt lat="59.708117" lon="17.803141">
        <ele>16.381040</ele>
        <time>2024-04-04T15:31:35.070Z</time>
      </trkpt>
      <trkpt lat="59.708340" lon="17.803039">
        <ele>16.307238</ele>
        <time>2024-04-04T15:31:38.077Z</time>
      </trkpt>
      <trkpt lat="59.709007" lon="17.802489">
        <ele>16.074284</ele>
        <time>2024-04-04T15:31:49.735Z</time>
      </trkpt>
      <trkpt lat="59.710210" lon="17.801715">
        <ele>17.621385</ele>
        <time>2024-04-04T15:32:15.039Z</time>
      </trkpt>
      <trkpt lat="59.710593" lon="17.801605">
        <ele>18.204938</ele>
        <time>2024-04-04T15:32:23.691Z</time>
      </trkpt>
      <trkpt lat="59.710961" lon="17.801585">
        <ele>18.752359</ele>
        <time>2024-04-04T15:32:32.318Z</time>
      </trkpt>
      <trkpt lat="59.711155" lon="17.801662">
        <ele>18.988699</ele>
        <time>2024-04-04T15:32:36.908Z</time>
      </trkpt>
      <trkpt lat="59.711378" lon="17.801817">
        <ele>19.270978</ele>
        <time>2024-04-04T15:32:42.268Z</time>
      </trkpt>
      <trkpt lat="59.711903" lon="17.802254">
        <ele>19.951139</ele>
        <time>2024-04-04T15:32:53.960Z</time>
      </trkpt>
      <trkpt lat="59.712169" lon="17.802408">
        <ele>20.282158</ele>
        <time>2024-04-04T15:32:59.057Z</time>
      </trkpt>
      <trkpt lat="59.712402" lon="17.802466">
        <ele>20.562673</ele>
        <time>2024-04-04T15:33:03.243Z</time>
      </trkpt>
      <trkpt lat="59.712534" lon="17.802443">
        <ele>20.720961</ele>
        <time>2024-04-04T15:33:05.327Z</time>
      </trkpt>
      <trkpt lat="59.712639" lon="17.802425">
        <ele>20.846857</ele>
        <time>2024-04-04T15:33:07.015Z</time>
      </trkpt>
      <trkpt lat="59.713045" lon="17.802120">
        <ele>20.718818</ele>
        <time>2024-04-04T15:33:13.801Z</time>
      </trkpt>
      <trkpt lat="59.713266" lon="17.801953">
        <ele>20.631426</ele>
        <time>2024-04-04T15:33:16.973Z</time>
      </trkpt>
      <trkpt lat="59.713518" lon="17.801858">
        <ele>20.536640</ele>
        <time>2024-04-04T15:33:20.477Z</time>
      </trkpt>
      <trkpt lat="59.714059" lon="17.801842">
        <ele>20.336711</ele>
        <time>2024-04-04T15:33:27.307Z</time>
      </trkpt>
      <trkpt lat="59.714484" lon="17.801847">
        <ele>20.205399</ele>
        <time>2024-04-04T15:33:32.631Z</time>
      </trkpt>
      <trkpt lat="59.714721" lon="17.801899">
        <ele>20.200330</ele>
        <time>2024-04-04T15:33:35.569Z</time>
      </trkpt>
      <trkpt lat="59.715140" lon="17.802120">
        <ele>20.191113</ele>
        <time>2024-04-04T15:33:41.672Z</time>
      </trkpt>
      <trkpt lat="59.716110" lon="17.802415">
        <ele>20.170252</ele>
        <time>2024-04-04T15:33:57.637Z</time>
      </trkpt>
      <trkpt lat="59.716434" lon="17.802389">
        <ele>20.094364</ele>
        <time>2024-04-04T15:34:03.337Z</time>
      </trkpt>
      <trkpt lat="59.716853" lon="17.802278">
        <ele>19.970043</ele>
        <time>2024-04-04T15:34:09.763Z</time>
      </trkpt>
      <trkpt lat="59.717203" lon="17.802183">
        <ele>19.866150</ele>
        <time>2024-04-04T15:34:14.401Z</time>
      </trkpt>
      <trkpt lat="59.717491" lon="17.802053">
        <ele>19.779283</ele>
        <time>2024-04-04T15:34:18.022Z</time>
      </trkpt>
      <trkpt lat="59.717674" lon="17.801817">
        <ele>19.715085</ele>
        <time>2024-04-04T15:34:20.752Z</time>
      </trkpt>
      <trkpt lat="59.717860" lon="17.801554">
        <ele>19.647902</ele>
        <time>2024-04-04T15:34:23.656Z</time>
      </trkpt>
      <trkpt lat="59.717982" lon="17.801368">
        <ele>19.580710</ele>
        <time>2024-04-04T15:34:25.949Z</time>
      </trkpt>
      <trkpt lat="59.718100" lon="17.801000">
        <ele>19.477816</ele>
        <time>2024-04-04T15:34:28.760Z</time>
      </trkpt>
      <trkpt lat="59.718197" lon="17.800527">
        <ele>19.357339</ele>
        <time>2024-04-04T15:34:32.196Z</time>
      </trkpt>
      <trkpt lat="59.718302" lon="17.799831">
        <ele>19.185933</ele>
        <time>2024-04-04T15:34:36.973Z</time>
      </trkpt>
      <trkpt lat="59.718426" lon="17.799139">
        <ele>19.012660</ele>
        <time>2024-04-04T15:34:41.592Z</time>
      </trkpt>
      <trkpt lat="59.718461" lon="17.798993">
        <ele>18.974519</ele>
        <time>2024-04-04T15:34:42.571Z</time>
      </trkpt>
      <trkpt lat="59.718494" lon="17.798862">
        <ele>18.939968</ele>
        <time>2024-04-04T15:34:43.884Z</time>
      </trkpt>
      <trkpt lat="59.718567" lon="17.798520">
        <ele>18.852346</ele>
        <time>2024-04-04T15:34:46.183Z</time>
      </trkpt>
      <trkpt lat="59.718674" lon="17.798189">
        <ele>18.834161</ele>
        <time>2024-04-04T15:34:49.283Z</time>
      </trkpt>
      <trkpt lat="59.718884" lon="17.797708">
        <ele>18.974143</ele>
        <time>2024-04-04T15:34:54.540Z</time>
      </trkpt>
      <trkpt lat="59.718988" lon="17.797550">
        <ele>19.031306</ele>
        <time>2024-04-04T15:34:57.056Z</time>
      </trkpt>
      <trkpt lat="59.719175" lon="17.797358">
        <ele>19.123185</ele>
        <time>2024-04-04T15:35:00.809Z</time>
      </trkpt>
      <trkpt lat="59.719215" lon="17.797322">
        <ele>19.142351</ele>
        <time>2024-04-04T15:35:01.918Z</time>
      </trkpt>
      <trkpt lat="59.719659" lon="17.797058">
        <ele>19.344599</ele>
        <time>2024-04-04T15:35:10.906Z</time>
      </trkpt>
      <trkpt lat="59.720077" lon="17.796946">
        <ele>19.528640</ele>
        <time>2024-04-04T15:35:17.340Z</time>
      </trkpt>
      <trkpt lat="59.720371" lon="17.796847">
        <ele>19.611600</ele>
        <time>2024-04-04T15:35:21.500Z</time>
      </trkpt>
      <trkpt lat="59.721025" lon="17.796531">
        <ele>19.722562</ele>
        <time>2024-04-04T15:35:31.547Z</time>
      </trkpt>
      <trkpt lat="59.721246" lon="17.796350">
        <ele>19.761976</ele>
        <time>2024-04-04T15:35:35.370Z</time>
      </trkpt>
      <trkpt lat="59.721694" lon="17.795797">
        <ele>19.848962</ele>
        <time>2024-04-04T15:35:43.775Z</time>
      </trkpt>
      <trkpt lat="59.721782" lon="17.795665">
        <ele>19.867150</ele>
        <time>2024-04-04T15:35:45.524Z</time>
      </trkpt>
      <trkpt lat="59.721874" lon="17.795518">
        <ele>19.893506</ele>
        <time>2024-04-04T15:35:47.265Z</time>
      </trkpt>
      <trkpt lat="59.722529" lon="17.794606">
        <ele>20.152184</ele>
        <time>2024-04-04T15:35:59.972Z</time>
      </trkpt>
      <trkpt lat="59.722948" lon="17.793997">
        <ele>20.320090</ele>
        <time>2024-04-04T15:36:09.217Z</time>
      </trkpt>
      <trkpt lat="59.723093" lon="17.793799">
        <ele>20.376992</ele>
        <time>2024-04-04T15:36:12.535Z</time>
      </trkpt>
      <trkpt lat="59.723151" lon="17.793715">
        <ele>20.400205</ele>
        <time>2024-04-04T15:36:13.958Z</time>
      </trkpt>
      <trkpt lat="59.723718" lon="17.792949">
        <ele>19.569066</ele>
        <time>2024-04-04T15:36:23.633Z</time>
      </trkpt>
      <trkpt lat="59.724068" lon="17.792460">
        <ele>18.803113</ele>
        <time>2024-04-04T15:36:28.360Z</time>
      </trkpt>
      <trkpt lat="59.724036" lon="17.792078">
        <ele>18.453818</ele>
        <time>2024-04-04T15:36:30.379Z</time>
      </trkpt>
      <trkpt lat="59.724022" lon="17.791911">
        <ele>18.301112</ele>
        <time>2024-04-04T15:36:31.362Z</time>
      </trkpt>
      <trkpt lat="59.723964" lon="17.791187">
        <ele>17.639857</ele>
        <time>2024-04-04T15:36:35.163Z</time>
      </trkpt>
      <trkpt lat="59.723931" lon="17.790776">
        <ele>17.264454</ele>
        <time>2024-04-04T15:36:37.270Z</time>
      </trkpt>
      <trkpt lat="59.723901" lon="17.790388">
        <ele>16.785165</ele>
        <time>2024-04-04T15:36:39.299Z</time>
      </trkpt>
      <trkpt lat="59.723873" lon="17.790055">
        <ele>16.365949</ele>
        <time>2024-04-04T15:36:41.014Z</time>
      </trkpt>
      <trkpt lat="59.723912" lon="17.790028">
        <ele>16.264209</ele>
        <time>2024-04-04T15:36:45.192Z</time>
      </trkpt>
      <trkpt lat="59.723863" lon="17.789498">
        <ele>15.595104</ele>
        <time>2024-04-04T15:37:12.609Z</time>
      </trkpt>
      <trkpt lat="59.723847" lon="17.789330">
        <ele>15.382800</ele>
        <time>2024-04-04T15:37:21.334Z</time>
      </trkpt>
      <trkpt lat="59.723911" lon="17.789071">
        <ele>15.024632</ele>
        <time>2024-04-04T15:37:36.070Z</time>
      </trkpt>
      <trkpt lat="59.723897" lon="17.788905">
        <ele>14.815637</ele>
        <time>2024-04-04T15:37:37.325Z</time>
      </trkpt>
      <trkpt lat="59.723835" lon="17.788882">
        <ele>14.660284</ele>
        <time>2024-04-04T15:37:37.997Z</time>
      </trkpt>
      <trkpt lat="59.723738" lon="17.788669">
        <ele>14.303864</ele>
        <time>2024-04-04T15:37:39.487Z</time>
      </trkpt>
      <trkpt lat="59.723677" lon="17.788233">
        <ele>13.741995</ele>
        <time>2024-04-04T15:37:41.908Z</time>
      </trkpt>
      <trkpt lat="59.723658" lon="17.787796">
        <ele>13.197330</ele>
        <time>2024-04-04T15:37:44.313Z</time>
      </trkpt>
      <trkpt lat="59.723661" lon="17.787640">
        <ele>13.003474</ele>
        <time>2024-04-04T15:37:45.271Z</time>
      </trkpt>
      <trkpt lat="59.723762" lon="17.787626">
        <ele>12.815013</ele>
        <time>2024-04-04T15:37:46.602Z</time>
      </trkpt>
      <trkpt lat="59.723985" lon="17.787566">
        <ele>12.835930</ele>
        <time>2024-04-04T15:37:49.409Z</time>
      </trkpt>
      <trkpt lat="59.724278" lon="17.787409">
        <ele>12.864141</ele>
        <time>2024-04-04T15:37:53.532Z</time>
      </trkpt>
      <trkpt lat="59.725369" lon="17.786565">
        <ele>12.972991</ele>
        <time>2024-04-04T15:38:13.516Z</time>
      </trkpt>
      <trkpt lat="59.725718" lon="17.786258">
        <ele>13.243200</ele>
        <time>2024-04-04T15:38:20.871Z</time>
      </trkpt>
      <trkpt lat="59.725755" lon="17.786056">
        <ele>13.336233</ele>
        <time>2024-04-04T15:38:22.696Z</time>
      </trkpt>
      <trkpt lat="59.726129" lon="17.785568">
        <ele>13.720612</ele>
        <time>2024-04-04T15:38:31.053Z</time>
      </trkpt>
      <trkpt lat="59.726117" lon="17.785490">
        <ele>13.755913</ele>
        <time>2024-04-04T15:38:31.967Z</time>
      </trkpt>
      <trkpt lat="59.726090" lon="17.785354">
        <ele>13.819183</ele>
        <time>2024-04-04T15:38:33.245Z</time>
      </trkpt>
      <trkpt lat="59.726078" lon="17.785277">
        <ele>13.854070</ele>
        <time>2024-04-04T15:38:34.380Z</time>
      </trkpt>
      <trkpt lat="59.726047" lon="17.785083">
        <ele>13.942164</ele>
        <time>2024-04-04T15:38:36.098Z</time>
      </trkpt>
      <trkpt lat="59.726555" lon="17.784920">
        <ele>14.384021</ele>
        <time>2024-04-04T15:38:45.366Z</time>
      </trkpt>
      <trkpt lat="59.727473" lon="17.784468">
        <ele>14.950530</ele>
        <time>2024-04-04T15:39:01.490Z</time>
      </trkpt>
      <trkpt lat="59.726555" lon="17.784920">
        <ele>15.465723</ele>
        <time>2024-04-04T15:39:16.761Z</time>
      </trkpt>
      <trkpt lat="59.726047" lon="17.785083">
        <ele>16.178492</ele>
        <time>2024-04-04T15:39:26.226Z</time>
      </trkpt>
      <trkpt lat="59.726003" lon="17.784827">
        <ele>16.385507</ele>
        <time>2024-04-04T15:39:28.794Z</time>
      </trkpt>
      <trkpt lat="59.725849" lon="17.783495">
        <ele>17.431479</ele>
        <time>2024-04-04T15:39:43.409Z</time>
      </trkpt>
      <trkpt lat="59.725592" lon="17.782408">
        <ele>18.404133</ele>
        <time>2024-04-04T15:39:57.723Z</time>
      </trkpt>
      <trkpt lat="59.725633" lon="17.782334">
        <ele>18.527394</ele>
        <time>2024-04-04T15:39:58.955Z</time>
      </trkpt>
      <trkpt lat="59.725737" lon="17.782142">
        <ele>18.843315</ele>
        <time>2024-04-04T15:40:02.406Z</time>
      </trkpt>
      <trkpt lat="59.725814" lon="17.781913">
        <ele>19.151888</ele>
        <time>2024-04-04T15:40:06.139Z</time>
      </trkpt>
      <trkpt lat="59.726692" lon="17.780823">
        <ele>21.455071</ele>
        <time>2024-04-04T15:40:31.701Z</time>
      </trkpt>
      <trkpt lat="59.726776" lon="17.780661">
        <ele>21.715583</ele>
        <time>2024-04-04T15:40:34.230Z</time>
      </trkpt>
      <trkpt lat="59.727154" lon="17.779564">
        <ele>22.934120</ele>
        <time>2024-04-04T15:40:48.840Z</time>
      </trkpt>
      <trkpt lat="59.727206" lon="17.779245">
        <ele>23.205033</ele>
        <time>2024-04-04T15:40:52.149Z</time>
      </trkpt>
      <trkpt lat="59.727289" lon="17.778792">
        <ele>23.594512</ele>
        <time>2024-04-04T15:40:56.891Z</time>
      </trkpt>
      <trkpt lat="59.727378" lon="17.778582">
        <ele>23.816204</ele>
        <time>2024-04-04T15:40:59.733Z</time>
      </trkpt>
      <trkpt lat="59.727490" lon="17.778591">
        <ele>23.995879</ele>
        <time>2024-04-04T15:41:01.914Z</time>
      </trkpt>
      <trkpt lat="59.727720" lon="17.778821">
        <ele>24.408748</ele>
        <time>2024-04-04T15:41:07.241Z</time>
      </trkpt>
      <trkpt lat="59.727869" lon="17.779231">
        <ele>24.817162</ele>
        <time>2024-04-04T15:41:12.377Z</time>
      </trkpt>
      <trkpt lat="59.727973" lon="17.779436">
        <ele>25.052172</ele>
        <time>2024-04-04T15:41:15.717Z</time>
      </trkpt>
      <trkpt lat="59.728110" lon="17.779607">
        <ele>25.324499</ele>
        <time>2024-04-04T15:41:19.465Z</time>
      </trkpt>
      <trkpt lat="59.728115" lon="17.779609">
        <ele>25.333217</ele>
        <time>2024-04-04T15:41:19.585Z</time>
      </trkpt>
      <trkpt lat="59.728110" lon="17.779607">
        <ele>25.341935</ele>
        <time>2024-04-04T15:41:19.707Z</time>
      </trkpt>
      <trkpt lat="59.727973" lon="17.779436">
        <ele>25.618585</ele>
        <time>2024-04-04T15:41:23.474Z</time>
      </trkpt>
      <trkpt lat="59.727869" lon="17.779231">
        <ele>25.869170</ele>
        <time>2024-04-04T15:41:27.015Z</time>
      </trkpt>
      <trkpt lat="59.727720" lon="17.778821">
        <ele>26.304652</ele>
        <time>2024-04-04T15:41:32.993Z</time>
      </trkpt>
      <trkpt lat="59.727490" lon="17.778591">
        <ele>26.744883</ele>
        <time>2024-04-04T15:41:37.988Z</time>
      </trkpt>
      <trkpt lat="59.727378" lon="17.778582">
        <ele>26.936465</ele>
        <time>2024-04-04T15:41:40.532Z</time>
      </trkpt>
      <trkpt lat="59.727570" lon="17.778212">
        <ele>27.393978</ele>
        <time>2024-04-04T15:41:46.257Z</time>
      </trkpt>
      <trkpt lat="59.727793" lon="17.777973">
        <ele>27.827192</ele>
        <time>2024-04-04T15:41:52.091Z</time>
      </trkpt>
      <trkpt lat="59.727982" lon="17.777695">
        <ele>28.192961</ele>
        <time>2024-04-04T15:41:56.708Z</time>
      </trkpt>
      <trkpt lat="59.728132" lon="17.777554">
        <ele>28.203465</ele>
        <time>2024-04-04T15:42:00.167Z</time>
      </trkpt>
      <trkpt lat="59.728387" lon="17.778042">
        <ele>28.225887</ele>
        <time>2024-04-04T15:42:07.407Z</time>
      </trkpt>
      <trkpt lat="59.728481" lon="17.778060">
        <ele>28.231863</ele>
        <time>2024-04-04T15:42:09.048Z</time>
      </trkpt>
      <trkpt lat="59.728719" lon="17.777941">
        <ele>28.247395</ele>
        <time>2024-04-04T15:42:13.808Z</time>
      </trkpt>
      <trkpt lat="59.728779" lon="17.778088">
        <ele>28.253429</ele>
        <time>2024-04-04T15:42:14.972Z</time>
      </trkpt>
      <trkpt lat="59.728825" lon="17.778379">
        <ele>28.263157</ele>
        <time>2024-04-04T15:42:17.626Z</time>
      </trkpt>
      <trkpt lat="59.728868" lon="17.778651">
        <ele>28.272251</ele>
        <time>2024-04-04T15:42:19.375Z</time>
      </trkpt>
      <trkpt lat="59.729088" lon="17.779352">
        <ele>28.298592</ele>
        <time>2024-04-04T15:42:24.130Z</time>
      </trkpt>
      <trkpt lat="59.729279" lon="17.779577">
        <ele>28.032132</ele>
        <time>2024-04-04T15:42:26.808Z</time>
      </trkpt>
      <trkpt lat="59.729399" lon="17.779615">
        <ele>27.742932</ele>
        <time>2024-04-04T15:42:28.173Z</time>
      </trkpt>
      <trkpt lat="59.729531" lon="17.779588">
        <ele>27.427124</ele>
        <time>2024-04-04T15:42:29.659Z</time>
      </trkpt>
      <trkpt lat="59.729545" lon="17.779642">
        <ele>27.354277</ele>
        <time>2024-04-04T15:42:30.152Z</time>
      </trkpt>
      <trkpt lat="59.729717" lon="17.780361">
        <ele>26.399531</ele>
        <time>2024-04-04T15:42:36.226Z</time>
      </trkpt>
      <trkpt lat="59.729905" lon="17.780971">
        <ele>25.541811</ele>
        <time>2024-04-04T15:42:41.666Z</time>
      </trkpt>
      <trkpt lat="59.730340" lon="17.780823">
        <ele>24.491455</ele>
        <time>2024-04-04T15:42:46.349Z</time>
      </trkpt>
      <trkpt lat="59.730843" lon="17.780904">
        <ele>23.271578</ele>
        <time>2024-04-04T15:42:51.391Z</time>
      </trkpt>
      <trkpt lat="59.730947" lon="17.780866">
        <ele>23.013444</ele>
        <time>2024-04-04T15:42:52.553Z</time>
      </trkpt>
      <trkpt lat="59.731061" lon="17.780740">
        <ele>22.694897</ele>
        <time>2024-04-04T15:42:54.088Z</time>
      </trkpt>
      <trkpt lat="59.731136" lon="17.780597">
        <ele>22.440979</ele>
        <time>2024-04-04T15:42:55.083Z</time>
      </trkpt>
      <trkpt lat="59.731371" lon="17.779863">
        <ele>21.371082</ele>
        <time>2024-04-04T15:42:59.859Z</time>
      </trkpt>
      <trkpt lat="59.731464" lon="17.779651">
        <ele>21.025286</ele>
        <time>2024-04-04T15:43:01.693Z</time>
      </trkpt>
      <trkpt lat="59.731565" lon="17.779414">
        <ele>20.643428</ele>
        <time>2024-04-04T15:43:03.214Z</time>
      </trkpt>
      <trkpt lat="59.731997" lon="17.778586">
        <ele>19.380936</ele>
        <time>2024-04-04T15:43:09.638Z</time>
      </trkpt>
      <trkpt lat="59.732245" lon="17.778312">
        <ele>18.996844</ele>
        <time>2024-04-04T15:43:12.789Z</time>
      </trkpt>
      <trkpt lat="59.732816" lon="17.777808">
        <ele>18.151214</ele>
        <time>2024-04-04T15:43:19.864Z</time>
      </trkpt>
      <trkpt lat="59.732968" lon="17.777548">
        <ele>17.879657</ele>
        <time>2024-04-04T15:43:22.292Z</time>
      </trkpt>
      <trkpt lat="59.733196" lon="17.776925">
        <ele>17.354583</ele>
        <time>2024-04-04T15:43:27.218Z</time>
      </trkpt>
      <trkpt lat="59.733834" lon="17.775046">
        <ele>17.437739</ele>
        <time>2024-04-04T15:43:44.704Z</time>
      </trkpt>
      <trkpt lat="59.734906" lon="17.772490">
        <ele>17.554380</ele>
        <time>2024-04-04T15:44:13.476Z</time>
      </trkpt>
      <trkpt lat="59.735154" lon="17.770385">
        <ele>17.253434</ele>
        <time>2024-04-04T15:44:27.814Z</time>
      </trkpt>
      <trkpt lat="59.736286" lon="17.765722">
        <ele>14.418024</ele>
        <time>2024-04-04T15:44:58.166Z</time>
      </trkpt>
      <trkpt lat="59.736461" lon="17.765001">
        <ele>14.069057</ele>
        <time>2024-04-04T15:45:03.363Z</time>
      </trkpt>
      <trkpt lat="59.736718" lon="17.763978">
        <ele>13.851795</ele>
        <time>2024-04-04T15:45:11.743Z</time>
      </trkpt>
      <trkpt lat="59.736892" lon="17.763460">
        <ele>14.052278</ele>
        <time>2024-04-04T15:45:17.073Z</time>
      </trkpt>
      <trkpt lat="59.737149" lon="17.762885">
        <ele>14.299791</ele>
        <time>2024-04-04T15:45:24.205Z</time>
      </trkpt>
      <trkpt lat="59.738153" lon="17.761057">
        <ele>15.091607</ele>
        <time>2024-04-04T15:45:49.191Z</time>
      </trkpt>
      <trkpt lat="59.738370" lon="17.760432">
        <ele>15.269228</ele>
        <time>2024-04-04T15:45:55.519Z</time>
      </trkpt>
      <trkpt lat="59.738724" lon="17.758793">
        <ele>15.686541</ele>
        <time>2024-04-04T15:46:09.696Z</time>
      </trkpt>
      <trkpt lat="59.738844" lon="17.758307">
        <ele>15.923318</ele>
        <time>2024-04-04T15:46:13.923Z</time>
      </trkpt>
      <trkpt lat="59.739044" lon="17.757692">
        <ele>16.290691</ele>
        <time>2024-04-04T15:46:19.786Z</time>
      </trkpt>
      <trkpt lat="59.740070" lon="17.758465">
        <ele>17.383748</ele>
        <time>2024-04-04T15:46:40.810Z</time>
      </trkpt>
      <trkpt lat="59.741149" lon="17.758874">
        <ele>19.746372</ele>
        <time>2024-04-04T15:47:07.526Z</time>
      </trkpt>
      <trkpt lat="59.741430" lon="17.759081">
        <ele>20.435545</ele>
        <time>2024-04-04T15:47:15.173Z</time>
      </trkpt>
      <trkpt lat="59.741572" lon="17.759259">
        <ele>20.821721</ele>
        <time>2024-04-04T15:47:19.455Z</time>
      </trkpt>
      <trkpt lat="59.742636" lon="17.760915">
        <ele>23.075817</ele>
        <time>2024-04-04T15:47:51.826Z</time>
      </trkpt>
      <trkpt lat="59.742954" lon="17.761407">
        <ele>23.656310</ele>
        <time>2024-04-04T15:47:59.587Z</time>
      </trkpt>
      <trkpt lat="59.743171" lon="17.761632">
        <ele>24.008783</ele>
        <time>2024-04-04T15:48:03.714Z</time>
      </trkpt>
      <trkpt lat="59.743329" lon="17.761725">
        <ele>24.215945</ele>
        <time>2024-04-04T15:48:06.286Z</time>
      </trkpt>
      <trkpt lat="59.743770" lon="17.761781">
        <ele>23.335099</ele>
        <time>2024-04-04T15:48:12.289Z</time>
      </trkpt>
      <trkpt lat="59.744382" lon="17.761491">
        <ele>22.080907</ele>
        <time>2024-04-04T15:48:19.287Z</time>
      </trkpt>
      <trkpt lat="59.745253" lon="17.761004">
        <ele>20.151869</ele>
        <time>2024-04-04T15:48:28.318Z</time>
      </trkpt>
      <trkpt lat="59.745865" lon="17.760739">
        <ele>18.481635</ele>
        <time>2024-04-04T15:48:34.561Z</time>
      </trkpt>
      <trkpt lat="59.746279" lon="17.760662">
        <ele>17.372901</ele>
        <time>2024-04-04T15:48:38.836Z</time>
      </trkpt>
      <trkpt lat="59.746347" lon="17.760649">
        <ele>17.190745</ele>
        <time>2024-04-04T15:48:39.578Z</time>
      </trkpt>
      <trkpt lat="59.746803" lon="17.760651">
        <ele>15.974854</ele>
        <time>2024-04-04T15:48:44.480Z</time>
      </trkpt>
      <trkpt lat="59.747889" lon="17.760944">
        <ele>16.726118</ele>
        <time>2024-04-04T15:49:00.434Z</time>
      </trkpt>
      <trkpt lat="59.748483" lon="17.761050">
        <ele>17.222482</ele>
        <time>2024-04-04T15:49:15.273Z</time>
      </trkpt>
      <trkpt lat="59.748694" lon="17.760998">
        <ele>17.501685</ele>
        <time>2024-04-04T15:49:21.020Z</time>
      </trkpt>
      <trkpt lat="59.748962" lon="17.760868">
        <ele>18.198534</ele>
        <time>2024-04-04T15:49:28.443Z</time>
      </trkpt>
      <trkpt lat="59.749455" lon="17.760626">
        <ele>19.481292</ele>
        <time>2024-04-04T15:49:41.647Z</time>
      </trkpt>
      <trkpt lat="59.749675" lon="17.760565">
        <ele>20.042375</ele>
        <time>2024-04-04T15:49:47.482Z</time>
      </trkpt>
      <trkpt lat="59.749844" lon="17.760597">
        <ele>20.471183</ele>
        <time>2024-04-04T15:49:51.556Z</time>
      </trkpt>
      <trkpt lat="59.750020" lon="17.760707">
        <ele>20.937248</ele>
        <time>2024-04-04T15:49:56.215Z</time>
      </trkpt>
      <trkpt lat="59.750250" lon="17.760985">
        <ele>21.617419</ele>
        <time>2024-04-04T15:50:02.473Z</time>
      </trkpt>
      <trkpt lat="59.750970" lon="17.761912">
        <ele>22.658485</ele>
        <time>2024-04-04T15:50:21.364Z</time>
      </trkpt>
      <trkpt lat="59.751553" lon="17.762379">
        <ele>23.301276</ele>
        <time>2024-04-04T15:50:32.283Z</time>
      </trkpt>
      <trkpt lat="59.751787" lon="17.762476">
        <ele>23.545690</ele>
        <time>2024-04-04T15:50:35.953Z</time>
      </trkpt>
      <trkpt lat="59.752190" lon="17.762339">
        <ele>23.636902</ele>
        <time>2024-04-04T15:50:42.456Z</time>
      </trkpt>
      <trkpt lat="59.752430" lon="17.762207">
        <ele>23.533441</ele>
        <time>2024-04-04T15:50:45.862Z</time>
      </trkpt>
      <trkpt lat="59.752763" lon="17.762111">
        <ele>23.393649</ele>
        <time>2024-04-04T15:50:50.593Z</time>
      </trkpt>
      <trkpt lat="59.752970" lon="17.762067">
        <ele>23.307161</ele>
        <time>2024-04-04T15:50:53.762Z</time>
      </trkpt>
      <trkpt lat="59.753984" lon="17.761889">
        <ele>22.839163</ele>
        <time>2024-04-04T15:51:06.168Z</time>
      </trkpt>
      <trkpt lat="59.754832" lon="17.761932">
        <ele>22.327572</ele>
        <time>2024-04-04T15:51:16.773Z</time>
      </trkpt>
      <trkpt lat="59.755549" lon="17.761885">
        <ele>21.909228</ele>
        <time>2024-04-04T15:51:26.465Z</time>
      </trkpt>
      <trkpt lat="59.756193" lon="17.761886">
        <ele>22.773692</ele>
        <time>2024-04-04T15:51:36.819Z</time>
      </trkpt>
      <trkpt lat="59.756897" lon="17.761966">
        <ele>23.720242</ele>
        <time>2024-04-04T15:51:53.350Z</time>
      </trkpt>
      <trkpt lat="59.757186" lon="17.761891">
        <ele>24.111477</ele>
        <time>2024-04-04T15:52:00.897Z</time>
      </trkpt>
      <trkpt lat="59.757513" lon="17.761615">
        <ele>24.479741</ele>
        <time>2024-04-04T15:52:09.296Z</time>
      </trkpt>
      <trkpt lat="59.757899" lon="17.760854">
        <ele>24.921002</ele>
        <time>2024-04-04T15:52:19.482Z</time>
      </trkpt>
      <trkpt lat="59.758102" lon="17.760572">
        <ele>25.121976</ele>
        <time>2024-04-04T15:52:23.027Z</time>
      </trkpt>
      <trkpt lat="59.758274" lon="17.760466">
        <ele>25.268067</ele>
        <time>2024-04-04T15:52:26.747Z</time>
      </trkpt>
      <trkpt lat="59.758380" lon="17.760453">
        <ele>25.354216</ele>
        <time>2024-04-04T15:52:28.206Z</time>
      </trkpt>
      <trkpt lat="59.758594" lon="17.760525">
        <ele>25.530285</ele>
        <time>2024-04-04T15:52:33.317Z</time>
      </trkpt>
      <trkpt lat="59.758785" lon="17.760742">
        <ele>25.708793</ele>
        <time>2024-04-04T15:52:36.110Z</time>
      </trkpt>
      <trkpt lat="59.758914" lon="17.761114">
        <ele>25.560365</ele>
        <time>2024-04-04T15:52:39.705Z</time>
      </trkpt>
      <trkpt lat="59.758971" lon="17.761356">
        <ele>25.368037</ele>
        <time>2024-04-04T15:52:41.323Z</time>
      </trkpt>
      <trkpt lat="59.759000" lon="17.761587">
        <ele>25.196651</ele>
        <time>2024-04-04T15:52:43.407Z</time>
      </trkpt>
      <trkpt lat="59.759035" lon="17.761960">
        <ele>24.923506</ele>
        <time>2024-04-04T15:52:45.385Z</time>
      </trkpt>
      <trkpt lat="59.759050" lon="17.762151">
        <ele>24.784342</ele>
        <time>2024-04-04T15:52:46.475Z</time>
      </trkpt>
      <trkpt lat="59.759075" lon="17.762404">
        <ele>24.598734</ele>
        <time>2024-04-04T15:52:47.965Z</time>
      </trkpt>
      <trkpt lat="59.759233" lon="17.762932">
        <ele>24.156593</ele>
        <time>2024-04-04T15:52:51.317Z</time>
      </trkpt>
      <trkpt lat="59.759428" lon="17.763201">
        <ele>23.817190</ele>
        <time>2024-04-04T15:52:53.629Z</time>
      </trkpt>
      <trkpt lat="59.759623" lon="17.763367">
        <ele>23.513918</ele>
        <time>2024-04-04T15:52:56.005Z</time>
      </trkpt>
      <trkpt lat="59.759721" lon="17.763398">
        <ele>23.372070</ele>
        <time>2024-04-04T15:52:57.163Z</time>
      </trkpt>
      <trkpt lat="59.759842" lon="17.763389">
        <ele>23.201151</ele>
        <time>2024-04-04T15:52:58.731Z</time>
      </trkpt>
      <trkpt lat="59.760167" lon="17.763211">
        <ele>23.093013</ele>
        <time>2024-04-04T15:53:03.107Z</time>
      </trkpt>
      <trkpt lat="59.760588" lon="17.762836">
        <ele>22.945010</ele>
        <time>2024-04-04T15:53:09.246Z</time>
      </trkpt>
      <trkpt lat="59.760759" lon="17.762739">
        <ele>22.887966</ele>
        <time>2024-04-04T15:53:11.373Z</time>
      </trkpt>
      <trkpt lat="59.760902" lon="17.762655">
        <ele>22.840133</ele>
        <time>2024-04-04T15:53:13.270Z</time>
      </trkpt>
      <trkpt lat="59.761068" lon="17.762574">
        <ele>22.785304</ele>
        <time>2024-04-04T15:53:15.595Z</time>
      </trkpt>
      <trkpt lat="59.761509" lon="17.762609">
        <ele>22.643737</ele>
        <time>2024-04-04T15:53:23.139Z</time>
      </trkpt>
      <trkpt lat="59.761620" lon="17.762652">
        <ele>22.695792</ele>
        <time>2024-04-04T15:53:25.545Z</time>
      </trkpt>
      <trkpt lat="59.761668" lon="17.762671">
        <ele>22.759838</ele>
        <time>2024-04-04T15:53:26.583Z</time>
      </trkpt>
      <trkpt lat="59.761930" lon="17.762805">
        <ele>23.113869</ele>
        <time>2024-04-04T15:53:32.010Z</time>
      </trkpt>
      <trkpt lat="59.762148" lon="17.762925">
        <ele>23.409892</ele>
        <time>2024-04-04T15:53:36.840Z</time>
      </trkpt>
      <trkpt lat="59.762566" lon="17.763157">
        <ele>23.977831</ele>
        <time>2024-04-04T15:53:45.774Z</time>
      </trkpt>
      <trkpt lat="59.762838" lon="17.763347">
        <ele>24.355137</ele>
        <time>2024-04-04T15:53:51.987Z</time>
      </trkpt>
      <trkpt lat="59.763082" lon="17.763569">
        <ele>24.706342</ele>
        <time>2024-04-04T15:53:57.468Z</time>
      </trkpt>
      <trkpt lat="59.763821" lon="17.764451">
        <ele>25.567287</ele>
        <time>2024-04-04T15:54:14.280Z</time>
      </trkpt>
      <trkpt lat="59.764283" lon="17.765249">
        <ele>26.118363</ele>
        <time>2024-04-04T15:54:25.127Z</time>
      </trkpt>
      <trkpt lat="59.764685" lon="17.766021">
        <ele>26.631004</ele>
        <time>2024-04-04T15:54:34.657Z</time>
      </trkpt>
      <trkpt lat="59.765148" lon="17.766682">
        <ele>27.340665</ele>
        <time>2024-04-04T15:54:45.051Z</time>
      </trkpt>
      <trkpt lat="59.766297" lon="17.767901">
        <ele>29.077226</ele>
        <time>2024-04-04T15:55:11.317Z</time>
      </trkpt>
      <trkpt lat="59.767114" lon="17.768768">
        <ele>31.283969</ele>
        <time>2024-04-04T15:55:33.775Z</time>
      </trkpt>
      <trkpt lat="59.767785" lon="17.769378">
        <ele>33.041976</ele>
        <time>2024-04-04T15:55:52.834Z</time>
      </trkpt>
      <trkpt lat="59.767966" lon="17.769499">
        <ele>33.426912</ele>
        <time>2024-04-04T15:55:57.913Z</time>
      </trkpt>
      <trkpt lat="59.768393" lon="17.769770">
        <ele>34.296125</ele>
        <time>2024-04-04T15:56:10.051Z</time>
      </trkpt>
      <trkpt lat="59.769052" lon="17.770088">
        <ele>35.611122</ele>
        <time>2024-04-04T15:56:25.476Z</time>
      </trkpt>
      <trkpt lat="59.769846" lon="17.770210">
        <ele>36.338021</ele>
        <time>2024-04-04T15:56:40.634Z</time>
      </trkpt>
      <trkpt lat="59.769911" lon="17.770232">
        <ele>36.274884</ele>
        <time>2024-04-04T15:56:41.313Z</time>
      </trkpt>
      <trkpt lat="59.770209" lon="17.770330">
        <ele>35.985655</ele>
        <time>2024-04-04T15:56:46.247Z</time>
      </trkpt>
      <trkpt lat="59.770526" lon="17.770527">
        <ele>35.667607</ele>
        <time>2024-04-04T15:56:50.383Z</time>
      </trkpt>
      <trkpt lat="59.770753" lon="17.770687">
        <ele>35.436967</ele>
        <time>2024-04-04T15:56:53.055Z</time>
      </trkpt>
      <trkpt lat="59.771114" lon="17.771032">
        <ele>35.053368</ele>
        <time>2024-04-04T15:56:57.424Z</time>
      </trkpt>
      <trkpt lat="59.771468" lon="17.771508">
        <ele>34.360259</ele>
        <time>2024-04-04T15:57:01.875Z</time>
      </trkpt>
      <trkpt lat="59.772048" lon="17.772432">
        <ele>32.813173</ele>
        <time>2024-04-04T15:57:09.694Z</time>
      </trkpt>
      <trkpt lat="59.772296" lon="17.772769">
        <ele>32.187932</ele>
        <time>2024-04-04T15:57:12.922Z</time>
      </trkpt>
      <trkpt lat="59.773306" lon="17.773834">
        <ele>30.575886</ele>
        <time>2024-04-04T15:57:26.565Z</time>
      </trkpt>
      <trkpt lat="59.773649" lon="17.774254">
        <ele>30.219459</ele>
        <time>2024-04-04T15:57:31.745Z</time>
      </trkpt>
      <trkpt lat="59.774236" lon="17.775064">
        <ele>29.587221</ele>
        <time>2024-04-04T15:57:41.070Z</time>
      </trkpt>
      <trkpt lat="59.774505" lon="17.775436">
        <ele>29.164619</ele>
        <time>2024-04-04T15:57:45.339Z</time>
      </trkpt>
      <trkpt lat="59.775044" lon="17.776221">
        <ele>28.265806</ele>
        <time>2024-04-04T15:57:53.812Z</time>
      </trkpt>
      <trkpt lat="59.776708" lon="17.778603">
        <ele>24.707615</ele>
        <time>2024-04-04T15:58:16.150Z</time>
      </trkpt>
      <trkpt lat="59.777304" lon="17.779576">
        <ele>23.247075</ele>
        <time>2024-04-04T15:58:24.721Z</time>
      </trkpt>
      <trkpt lat="59.777733" lon="17.780485">
        <ele>22.289942</ele>
        <time>2024-04-04T15:58:31.665Z</time>
      </trkpt>
      <trkpt lat="59.778356" lon="17.782040">
        <ele>20.779075</ele>
        <time>2024-04-04T15:58:43.293Z</time>
      </trkpt>
      <trkpt lat="59.778602" lon="17.782538">
        <ele>20.760019</ele>
        <time>2024-04-04T15:58:47.755Z</time>
      </trkpt>
      <trkpt lat="59.778864" lon="17.782959">
        <ele>20.741735</ele>
        <time>2024-04-04T15:58:52.248Z</time>
      </trkpt>
      <trkpt lat="59.779171" lon="17.783348">
        <ele>20.721979</ele>
        <time>2024-04-04T15:58:57.482Z</time>
      </trkpt>
      <trkpt lat="59.779522" lon="17.783660">
        <ele>20.701115</ele>
        <time>2024-04-04T15:59:03.781Z</time>
      </trkpt>
      <trkpt lat="59.780259" lon="17.784140">
        <ele>21.175991</ele>
        <time>2024-04-04T15:59:18.385Z</time>
      </trkpt>
      <trkpt lat="59.780609" lon="17.784401">
        <ele>21.611012</ele>
        <time>2024-04-04T15:59:25.945Z</time>
      </trkpt>
      <trkpt lat="59.781002" lon="17.784816">
        <ele>22.128906</ele>
        <time>2024-04-04T15:59:34.899Z</time>
      </trkpt>
      <trkpt lat="59.781497" lon="17.785289">
        <ele>22.768067</ele>
        <time>2024-04-04T15:59:45.875Z</time>
      </trkpt>
      <trkpt lat="59.782459" lon="17.786129">
        <ele>24.180144</ele>
        <time>2024-04-04T16:00:06.302Z</time>
      </trkpt>
      <trkpt lat="59.782632" lon="17.786238">
        <ele>24.424220</ele>
        <time>2024-04-04T16:00:09.580Z</time>
      </trkpt>
      <trkpt lat="59.782709" lon="17.786286">
        <ele>24.532751</ele>
        <time>2024-04-04T16:00:11.593Z</time>
      </trkpt>
      <trkpt lat="59.783335" lon="17.786383">
        <ele>25.443032</ele>
        <time>2024-04-04T16:00:24.500Z</time>
      </trkpt>
      <trkpt lat="59.783620" lon="17.786498">
        <ele>25.974703</ele>
        <time>2024-04-04T16:00:31.025Z</time>
      </trkpt>
      <trkpt lat="59.784522" lon="17.787146">
        <ele>27.728203</ele>
        <time>2024-04-04T16:00:53.183Z</time>
      </trkpt>
      <trkpt lat="59.785649" lon="17.788412">
        <ele>29.444069</ele>
        <time>2024-04-04T16:01:21.044Z</time>
      </trkpt>
      <trkpt lat="59.786385" lon="17.788645">
        <ele>30.256648</ele>
        <time>2024-04-04T16:01:33.698Z</time>
      </trkpt>
      <trkpt lat="59.786745" lon="17.788575">
        <ele>30.625211</ele>
        <time>2024-04-04T16:01:39.477Z</time>
      </trkpt>
      <trkpt lat="59.786999" lon="17.788380">
        <ele>30.885194</ele>
        <time>2024-04-04T16:01:44.072Z</time>
      </trkpt>
      <trkpt lat="59.787228" lon="17.788089">
        <ele>31.144720</ele>
        <time>2024-04-04T16:01:48.756Z</time>
      </trkpt>
      <trkpt lat="59.787767" lon="17.787241">
        <ele>31.801103</ele>
        <time>2024-04-04T16:02:01.748Z</time>
      </trkpt>
      <trkpt lat="59.788320" lon="17.786579">
        <ele>32.537502</ele>
        <time>2024-04-04T16:02:15.195Z</time>
      </trkpt>
      <trkpt lat="59.789242" lon="17.785335">
        <ele>34.098607</ele>
        <time>2024-04-04T16:02:40.271Z</time>
      </trkpt>
      <trkpt lat="59.789538" lon="17.785045">
        <ele>34.560900</ele>
        <time>2024-04-04T16:02:46.784Z</time>
      </trkpt>
      <trkpt lat="59.789834" lon="17.784946">
        <ele>34.421432</ele>
        <time>2024-04-04T16:02:51.759Z</time>
      </trkpt>
      <trkpt lat="59.790903" lon="17.784736">
        <ele>33.128459</ele>
        <time>2024-04-04T16:03:04.853Z</time>
      </trkpt>
      <trkpt lat="59.791082" lon="17.784775">
        <ele>32.911714</ele>
        <time>2024-04-04T16:03:06.719Z</time>
      </trkpt>
      <trkpt lat="59.791264" lon="17.784917">
        <ele>32.676374</ele>
        <time>2024-04-04T16:03:08.857Z</time>
      </trkpt>
      <trkpt lat="59.791652" lon="17.785398">
        <ele>31.388122</ele>
        <time>2024-04-04T16:03:13.503Z</time>
      </trkpt>
      <trkpt lat="59.791842" lon="17.785584">
        <ele>30.650044</ele>
        <time>2024-04-04T16:03:15.669Z</time>
      </trkpt>
      <trkpt lat="59.792160" lon="17.785812">
        <ele>29.471967</ele>
        <time>2024-04-04T16:03:19.053Z</time>
      </trkpt>
      <trkpt lat="59.792525" lon="17.785904">
        <ele>28.189818</ele>
        <time>2024-04-04T16:03:22.694Z</time>
      </trkpt>
      <trkpt lat="59.793240" lon="17.785968">
        <ele>25.520844</ele>
        <time>2024-04-04T16:03:29.719Z</time>
      </trkpt>
      <trkpt lat="59.793579" lon="17.786141">
        <ele>23.914714</ele>
        <time>2024-04-04T16:03:33.073Z</time>
      </trkpt>
      <trkpt lat="59.793702" lon="17.786322">
        <ele>23.212407</ele>
        <time>2024-04-04T16:03:34.514Z</time>
      </trkpt>
      <trkpt lat="59.793797" lon="17.786552">
        <ele>22.525354</ele>
        <time>2024-04-04T16:03:35.920Z</time>
      </trkpt>
      <trkpt lat="59.793906" lon="17.787064">
        <ele>21.241782</ele>
        <time>2024-04-04T16:03:38.543Z</time>
      </trkpt>
      <trkpt lat="59.794062" lon="17.788041">
        <ele>18.875234</ele>
        <time>2024-04-04T16:03:43.429Z</time>
      </trkpt>
      <trkpt lat="59.794145" lon="17.788303">
        <ele>18.160408</ele>
        <time>2024-04-04T16:03:44.933Z</time>
      </trkpt>
      <trkpt lat="59.794271" lon="17.788521">
        <ele>17.616249</ele>
        <time>2024-04-04T16:03:46.552Z</time>
      </trkpt>
      <trkpt lat="59.794543" lon="17.788860">
        <ele>16.689567</ele>
        <time>2024-04-04T16:03:49.672Z</time>
      </trkpt>
      <trkpt lat="59.794695" lon="17.788338">
        <ele>15.813727</ele>
        <time>2024-04-04T16:03:52.640Z</time>
      </trkpt>
      <trkpt lat="59.794824" lon="17.788002">
        <ele>15.199957</ele>
        <time>2024-04-04T16:03:54.770Z</time>
      </trkpt>
      <trkpt lat="59.795372" lon="17.786935">
        <ele>12.985750</ele>
        <time>2024-04-04T16:04:03.093Z</time>
      </trkpt>
      <trkpt lat="59.795761" lon="17.786185">
        <ele>12.981721</ele>
        <time>2024-04-04T16:04:10.541Z</time>
      </trkpt>
      <trkpt lat="59.795963" lon="17.785727">
        <ele>13.097091</ele>
        <time>2024-04-04T16:04:16.126Z</time>
      </trkpt>
      <trkpt lat="59.796043" lon="17.785478">
        <ele>13.153053</ele>
        <time>2024-04-04T16:04:18.900Z</time>
      </trkpt>
      <trkpt lat="59.796280" lon="17.784528">
        <ele>13.353906</ele>
        <time>2024-04-04T16:04:28.748Z</time>
      </trkpt>
      <trkpt lat="59.796547" lon="17.783593">
        <ele>13.613885</ele>
        <time>2024-04-04T16:04:38.912Z</time>
      </trkpt>
      <trkpt lat="59.797061" lon="17.782275">
        <ele>14.155993</ele>
        <time>2024-04-04T16:04:55.149Z</time>
      </trkpt>
      <trkpt lat="59.797922" lon="17.779790">
        <ele>14.549941</ele>
        <time>2024-04-04T16:05:17.920Z</time>
      </trkpt>
      <trkpt lat="59.798289" lon="17.779021">
        <ele>14.486544</ele>
        <time>2024-04-04T16:05:25.329Z</time>
      </trkpt>
      <trkpt lat="59.798334" lon="17.778942">
        <ele>14.479407</ele>
        <time>2024-04-04T16:05:26.233Z</time>
      </trkpt>
      <trkpt lat="59.798454" lon="17.778733">
        <ele>14.460438</ele>
        <time>2024-04-04T16:05:28.505Z</time>
      </trkpt>
      <trkpt lat="59.799212" lon="17.777656">
        <ele>14.054787</ele>
        <time>2024-04-04T16:05:41.614Z</time>
      </trkpt>
      <trkpt lat="59.800073" lon="17.776143">
        <ele>13.395652</ele>
        <time>2024-04-04T16:05:56.612Z</time>
      </trkpt>
      <trkpt lat="59.800644" lon="17.775222">
        <ele>12.226870</ele>
        <time>2024-04-04T16:06:05.053Z</time>
      </trkpt>
      <trkpt lat="59.801538" lon="17.773209">
        <ele>10.182371</ele>
        <time>2024-04-04T16:06:19.924Z</time>
      </trkpt>
      <trkpt lat="59.802669" lon="17.770960">
        <ele>8.260008</ele>
        <time>2024-04-04T16:06:39.234Z</time>
      </trkpt>
      <trkpt lat="59.803358" lon="17.769504">
        <ele>7.634063</ele>
        <time>2024-04-04T16:06:52.437Z</time>
      </trkpt>
      <trkpt lat="59.804586" lon="17.771453">
        <ele>6.706034</ele>
        <time>2024-04-04T16:07:13.074Z</time>
      </trkpt>
      <trkpt lat="59.805047" lon="17.772062">
        <ele>6.393371</ele>
        <time>2024-04-04T16:07:20.255Z</time>
      </trkpt>
      <trkpt lat="59.805357" lon="17.772361">
        <ele>6.198732</ele>
        <time>2024-04-04T16:07:24.742Z</time>
      </trkpt>
      <trkpt lat="59.805718" lon="17.772616">
        <ele>6.165310</ele>
        <time>2024-04-04T16:07:29.778Z</time>
      </trkpt>
      <trkpt lat="59.807059" lon="17.773328">
        <ele>6.101768</ele>
        <time>2024-04-04T16:07:50.557Z</time>
      </trkpt>
      <trkpt lat="59.807300" lon="17.773463">
        <ele>6.249608</ele>
        <time>2024-04-04T16:07:56.013Z</time>
      </trkpt>
      <trkpt lat="59.807547" lon="17.773611">
        <ele>6.451579</ele>
        <time>2024-04-04T16:08:00.171Z</time>
      </trkpt>
      <trkpt lat="59.808012" lon="17.773867">
        <ele>6.829334</ele>
        <time>2024-04-04T16:08:08.675Z</time>
      </trkpt>
      <trkpt lat="59.808979" lon="17.774385">
        <ele>7.706670</ele>
        <time>2024-04-04T16:08:28.013Z</time>
      </trkpt>
      <trkpt lat="59.809393" lon="17.774643">
        <ele>8.344895</ele>
        <time>2024-04-04T16:08:36.884Z</time>
      </trkpt>
      <trkpt lat="59.809941" lon="17.775051">
        <ele>9.205686</ele>
        <time>2024-04-04T16:08:49.277Z</time>
      </trkpt>
      <trkpt lat="59.810125" lon="17.775227">
        <ele>9.506045</ele>
        <time>2024-04-04T16:08:53.834Z</time>
      </trkpt>
      <trkpt lat="59.810644" lon="17.775906">
        <ele>10.229799</ele>
        <time>2024-04-04T16:09:06.968Z</time>
      </trkpt>
      <trkpt lat="59.810962" lon="17.776255">
        <ele>10.383211</ele>
        <time>2024-04-04T16:09:13.905Z</time>
      </trkpt>
      <trkpt lat="59.811036" lon="17.776282">
        <ele>10.414988</ele>
        <time>2024-04-04T16:09:15.425Z</time>
      </trkpt>
      <trkpt lat="59.811198" lon="17.776235">
        <ele>10.484137</ele>
        <time>2024-04-04T16:09:18.228Z</time>
      </trkpt>
      <trkpt lat="59.811547" lon="17.775964">
        <ele>10.642384</ele>
        <time>2024-04-04T16:09:24.318Z</time>
      </trkpt>
      <trkpt lat="59.812029" lon="17.775502">
        <ele>10.868382</ele>
        <time>2024-04-04T16:09:31.865Z</time>
      </trkpt>
      <trkpt lat="59.812064" lon="17.775160">
        <ele>10.878759</ele>
        <time>2024-04-04T16:09:34.088Z</time>
      </trkpt>
      <trkpt lat="59.812176" lon="17.774989">
        <ele>10.809898</ele>
        <time>2024-04-04T16:09:35.804Z</time>
      </trkpt>
      <trkpt lat="59.813502" lon="17.773835">
        <ele>10.104028</ele>
        <time>2024-04-04T16:09:53.824Z</time>
      </trkpt>
      <trkpt lat="59.813687" lon="17.773747">
        <ele>10.113665</ele>
        <time>2024-04-04T16:09:56.735Z</time>
      </trkpt>
      <trkpt lat="59.813862" lon="17.773805">
        <ele>10.388850</ele>
        <time>2024-04-04T16:09:59.525Z</time>
      </trkpt>
      <trkpt lat="59.816192" lon="17.775392">
        <ele>14.695615</ele>
        <time>2024-04-04T16:10:55.749Z</time>
      </trkpt>
      <trkpt lat="59.816485" lon="17.775631">
        <ele>15.359630</ele>
        <time>2024-04-04T16:11:03.411Z</time>
      </trkpt>
      <trkpt lat="59.816682" lon="17.775873">
        <ele>15.845126</ele>
        <time>2024-04-04T16:11:09.086Z</time>
      </trkpt>
      <trkpt lat="59.816804" lon="17.776152">
        <ele>16.234926</ele>
        <time>2024-04-04T16:11:13.235Z</time>
      </trkpt>
      <trkpt lat="59.816843" lon="17.776269">
        <ele>16.382912</ele>
        <time>2024-04-04T16:11:15.207Z</time>
      </trkpt>
      <trkpt lat="59.816965" lon="17.776705">
        <ele>16.822085</ele>
        <time>2024-04-04T16:11:20.859Z</time>
      </trkpt>
      <trkpt lat="59.817106" lon="17.777655">
        <ele>17.575594</ele>
        <time>2024-04-04T16:11:32.638Z</time>
      </trkpt>
      <trkpt lat="59.817181" lon="17.777821">
        <ele>17.745369</ele>
        <time>2024-04-04T16:11:34.862Z</time>
      </trkpt>
      <trkpt lat="59.817256" lon="17.777883">
        <ele>17.868260</ele>
        <time>2024-04-04T16:11:36.522Z</time>
      </trkpt>
      <trkpt lat="59.817544" lon="17.777928">
        <ele>18.305364</ele>
        <time>2024-04-04T16:11:42.466Z</time>
      </trkpt>
      <trkpt lat="59.818375" lon="17.777894">
        <ele>19.427314</ele>
        <time>2024-04-04T16:11:57.708Z</time>
      </trkpt>
      <trkpt lat="59.818533" lon="17.777960">
        <ele>19.536071</ele>
        <time>2024-04-04T16:12:00.973Z</time>
      </trkpt>
      <trkpt lat="59.818602" lon="17.778058">
        <ele>19.593185</ele>
        <time>2024-04-04T16:12:02.483Z</time>
      </trkpt>
      <trkpt lat="59.819032" lon="17.778847">
        <ele>19.987271</ele>
        <time>2024-04-04T16:12:13.984Z</time>
      </trkpt>
      <trkpt lat="59.819150" lon="17.779254">
        <ele>20.146384</ele>
        <time>2024-04-04T16:12:18.179Z</time>
      </trkpt>
      <trkpt lat="59.819236" lon="17.779894">
        <ele>20.370734</ele>
        <time>2024-04-04T16:12:23.677Z</time>
      </trkpt>
      <trkpt lat="59.819365" lon="17.780401">
        <ele>20.471756</ele>
        <time>2024-04-04T16:12:27.771Z</time>
      </trkpt>
      <trkpt lat="59.819467" lon="17.780932">
        <ele>20.132562</ele>
        <time>2024-04-04T16:12:31.636Z</time>
      </trkpt>
      <trkpt lat="59.819495" lon="17.782081">
        <ele>19.446142</ele>
        <time>2024-04-04T16:12:38.904Z</time>
      </trkpt>
      <trkpt lat="59.819518" lon="17.782238">
        <ele>19.348562</ele>
        <time>2024-04-04T16:12:39.899Z</time>
      </trkpt>
      <trkpt lat="59.819572" lon="17.782399">
        <ele>19.233074</ele>
        <time>2024-04-04T16:12:41.108Z</time>
      </trkpt>
      <trkpt lat="59.819811" lon="17.782507">
        <ele>18.942168</ele>
        <time>2024-04-04T16:12:43.905Z</time>
      </trkpt>
      <trkpt lat="59.819894" lon="17.782596">
        <ele>18.830249</ele>
        <time>2024-04-04T16:12:44.974Z</time>
      </trkpt>
      <trkpt lat="59.820048" lon="17.782863">
        <ele>18.587774</ele>
        <time>2024-04-04T16:12:47.188Z</time>
      </trkpt>
      <trkpt lat="59.820275" lon="17.783038">
        <ele>18.182526</ele>
        <time>2024-04-04T16:12:49.768Z</time>
      </trkpt>
      <trkpt lat="59.821139" lon="17.783062">
        <ele>15.919455</ele>
        <time>2024-04-04T16:12:58.636Z</time>
      </trkpt>
      <trkpt lat="59.821665" lon="17.782849">
        <ele>14.513586</ele>
        <time>2024-04-04T16:13:04.211Z</time>
      </trkpt>
      <trkpt lat="59.821740" lon="17.782811">
        <ele>14.310887</ele>
        <time>2024-04-04T16:13:05.056Z</time>
      </trkpt>
      <trkpt lat="59.822220" lon="17.782571">
        <ele>13.292275</ele>
        <time>2024-04-04T16:13:10.370Z</time>
      </trkpt>
      <trkpt lat="59.822693" lon="17.782231">
        <ele>12.521028</ele>
        <time>2024-04-04T16:13:15.982Z</time>
      </trkpt>
      <trkpt lat="59.823317" lon="17.781438">
        <ele>11.385538</ele>
        <time>2024-04-04T16:13:24.694Z</time>
      </trkpt>
      <trkpt lat="59.824014" lon="17.780439">
        <ele>10.653169</ele>
        <time>2024-04-04T16:13:35.508Z</time>
      </trkpt>
      <trkpt lat="59.824737" lon="17.779004">
        <ele>10.154753</ele>
        <time>2024-04-04T16:13:49.347Z</time>
      </trkpt>
      <trkpt lat="59.825007" lon="17.778761">
        <ele>10.031907</ele>
        <time>2024-04-04T16:13:53.524Z</time>
      </trkpt>
      <trkpt lat="59.827033" lon="17.777630">
        <ele>9.606406</ele>
        <time>2024-04-04T16:14:23.337Z</time>
      </trkpt>
      <trkpt lat="59.826977" lon="17.776812">
        <ele>9.538287</ele>
        <time>2024-04-04T16:14:29.108Z</time>
      </trkpt>
      <trkpt lat="59.827043" lon="17.775634">
        <ele>9.440485</ele>
        <time>2024-04-04T16:14:37.528Z</time>
      </trkpt>
      <trkpt lat="59.827046" lon="17.774864">
        <ele>9.376948</ele>
        <time>2024-04-04T16:14:43.054Z</time>
      </trkpt>
      <trkpt lat="59.826951" lon="17.772973">
        <ele>9.592423</ele>
        <time>2024-04-04T16:14:57.373Z</time>
      </trkpt>
      <trkpt lat="59.826943" lon="17.772794">
        <ele>9.613430</ele>
        <time>2024-04-04T16:14:58.776Z</time>
      </trkpt>
      <trkpt lat="59.826929" lon="17.772428">
        <ele>9.656337</ele>
        <time>2024-04-04T16:15:01.829Z</time>
      </trkpt>
      <trkpt lat="59.826890" lon="17.771577">
        <ele>9.756226</ele>
        <time>2024-04-04T16:15:08.980Z</time>
      </trkpt>
      <trkpt lat="59.826859" lon="17.770998">
        <ele>9.931772</ele>
        <time>2024-04-04T16:15:13.822Z</time>
      </trkpt>
      <trkpt lat="59.826844" lon="17.770709">
        <ele>10.080560</ele>
        <time>2024-04-04T16:15:16.356Z</time>
      </trkpt>
      <trkpt lat="59.826808" lon="17.769582">
        <ele>10.658878</ele>
        <time>2024-04-04T16:15:26.348Z</time>
      </trkpt>
      <trkpt lat="59.826821" lon="17.769230">
        <ele>10.839629</ele>
        <time>2024-04-04T16:15:29.674Z</time>
      </trkpt>
      <trkpt lat="59.826871" lon="17.768774">
        <ele>11.078646</ele>
        <time>2024-04-04T16:15:34.094Z</time>
      </trkpt>
      <trkpt lat="59.826999" lon="17.768158">
        <ele>11.420004</ele>
        <time>2024-04-04T16:15:40.602Z</time>
      </trkpt>
      <trkpt lat="59.827892" lon="17.765176">
        <ele>14.651116</ele>
        <time>2024-04-04T16:16:20.389Z</time>
      </trkpt>
      <trkpt lat="59.828119" lon="17.764197">
        <ele>15.642922</ele>
        <time>2024-04-04T16:16:33.323Z</time>
      </trkpt>
      <trkpt lat="59.828423" lon="17.762475">
        <ele>17.215274</ele>
        <time>2024-04-04T16:16:53.919Z</time>
      </trkpt>
      <trkpt lat="59.828837" lon="17.761129">
        <ele>18.347666</ele>
        <time>2024-04-04T16:17:10.015Z</time>
      </trkpt>
      <trkpt lat="59.828927" lon="17.760767">
        <ele>18.463176</ele>
        <time>2024-04-04T16:17:13.803Z</time>
      </trkpt>
      <trkpt lat="59.829000" lon="17.760279">
        <ele>18.608798</ele>
        <time>2024-04-04T16:17:18.425Z</time>
      </trkpt>
      <trkpt lat="59.829077" lon="17.757532">
        <ele>19.405914</ele>
        <time>2024-04-04T16:17:40.122Z</time>
      </trkpt>
      <trkpt lat="59.829128" lon="17.756832">
        <ele>19.623295</ele>
        <time>2024-04-04T16:17:45.581Z</time>
      </trkpt>
      <trkpt lat="59.829189" lon="17.756333">
        <ele>19.781125</ele>
        <time>2024-04-04T16:17:49.893Z</time>
      </trkpt>
      <trkpt lat="59.829404" lon="17.754806">
        <ele>20.268488</ele>
        <time>2024-04-04T16:18:04.773Z</time>
      </trkpt>
      <trkpt lat="59.829503" lon="17.754314">
        <ele>20.426129</ele>
        <time>2024-04-04T16:18:09.853Z</time>
      </trkpt>
      <trkpt lat="59.829608" lon="17.753945">
        <ele>20.547121</ele>
        <time>2024-04-04T16:18:13.734Z</time>
      </trkpt>
      <trkpt lat="59.829836" lon="17.753384">
        <ele>20.752981</ele>
        <time>2024-04-04T16:18:20.308Z</time>
      </trkpt>
      <trkpt lat="59.830005" lon="17.753085">
        <ele>20.881372</ele>
        <time>2024-04-04T16:18:24.171Z</time>
      </trkpt>
      <trkpt lat="59.830155" lon="17.752740">
        <ele>21.011534</ele>
        <time>2024-04-04T16:18:28.505Z</time>
      </trkpt>
      <trkpt lat="59.830251" lon="17.752474">
        <ele>21.104973</ele>
        <time>2024-04-04T16:18:31.040Z</time>
      </trkpt>
      <trkpt lat="59.830396" lon="17.751736">
        <ele>21.331062</ele>
        <time>2024-04-04T16:18:37.838Z</time>
      </trkpt>
      <trkpt lat="59.830884" lon="17.749905">
        <ele>20.907675</ele>
        <time>2024-04-04T16:18:51.699Z</time>
      </trkpt>
      <trkpt lat="59.831227" lon="17.748601">
        <ele>20.542852</ele>
        <time>2024-04-04T16:19:00.618Z</time>
      </trkpt>
      <trkpt lat="59.831331" lon="17.747980">
        <ele>20.560990</ele>
        <time>2024-04-04T16:19:05.182Z</time>
      </trkpt>
      <trkpt lat="59.831487" lon="17.746462">
        <ele>20.797359</ele>
        <time>2024-04-04T16:19:18.041Z</time>
      </trkpt>
      <trkpt lat="59.831542" lon="17.745983">
        <ele>20.872315</ele>
        <time>2024-04-04T16:19:21.906Z</time>
      </trkpt>
      <trkpt lat="59.831627" lon="17.745703">
        <ele>20.922218</ele>
        <time>2024-04-04T16:19:24.575Z</time>
      </trkpt>
      <trkpt lat="59.831767" lon="17.745486">
        <ele>20.976088</ele>
        <time>2024-04-04T16:19:27.664Z</time>
      </trkpt>
      <trkpt lat="59.832070" lon="17.745166">
        <ele>21.079658</ele>
        <time>2024-04-04T16:19:33.980Z</time>
      </trkpt>
      <trkpt lat="59.832227" lon="17.745078">
        <ele>21.128510</ele>
        <time>2024-04-04T16:19:37.305Z</time>
      </trkpt>
      <trkpt lat="59.832349" lon="17.744956">
        <ele>21.169405</ele>
        <time>2024-04-04T16:19:39.768Z</time>
      </trkpt>
      <trkpt lat="59.832413" lon="17.744652">
        <ele>21.219013</ele>
        <time>2024-04-04T16:19:42.867Z</time>
      </trkpt>
      <trkpt lat="59.832468" lon="17.743799">
        <ele>21.348452</ele>
        <time>2024-04-04T16:19:50.678Z</time>
      </trkpt>
      <trkpt lat="59.832550" lon="17.743655">
        <ele>21.381207</ele>
        <time>2024-04-04T16:19:52.281Z</time>
      </trkpt>
      <trkpt lat="59.832650" lon="17.743579">
        <ele>21.413268</ele>
        <time>2024-04-04T16:19:53.997Z</time>
      </trkpt>
      <trkpt lat="59.833104" lon="17.743938">
        <ele>21.559586</ele>
        <time>2024-04-04T16:20:00.726Z</time>
      </trkpt>
      <trkpt lat="59.833166" lon="17.743976">
        <ele>21.571491</ele>
        <time>2024-04-04T16:20:01.504Z</time>
      </trkpt>
      <trkpt lat="59.833151" lon="17.744108">
        <ele>21.516971</ele>
        <time>2024-04-04T16:20:02.336Z</time>
      </trkpt>
      <trkpt lat="59.833386" lon="17.744286">
        <ele>21.315394</ele>
        <time>2024-04-04T16:20:05.344Z</time>
      </trkpt>
      <trkpt lat="59.833812" lon="17.744371">
        <ele>20.972172</ele>
        <time>2024-04-04T16:20:10.680Z</time>
      </trkpt>
      <trkpt lat="59.834276" lon="17.744637">
        <ele>20.585072</ele>
        <time>2024-04-04T16:20:16.777Z</time>
      </trkpt>
      <trkpt lat="59.834764" lon="17.744803">
        <ele>20.188185</ele>
        <time>2024-04-04T16:20:22.769Z</time>
      </trkpt>
      <trkpt lat="59.834978" lon="17.744808">
        <ele>20.100391</ele>
        <time>2024-04-04T16:20:25.421Z</time>
      </trkpt>
      <trkpt lat="59.835418" lon="17.744618">
        <ele>19.994747</ele>
        <time>2024-04-04T16:20:31.555Z</time>
      </trkpt>
      <trkpt lat="59.835886" lon="17.744238">
        <ele>19.876146</ele>
        <time>2024-04-04T16:20:38.964Z</time>
      </trkpt>
      <trkpt lat="59.835931" lon="17.744201">
        <ele>19.864722</ele>
        <time>2024-04-04T16:20:39.705Z</time>
      </trkpt>
      <trkpt lat="59.835921" lon="17.744152">
        <ele>19.858486</ele>
        <time>2024-04-04T16:20:40.047Z</time>
      </trkpt>
      <trkpt lat="59.835904" lon="17.744057">
        <ele>19.846597</ele>
        <time>2024-04-04T16:20:40.756Z</time>
      </trkpt>
      <trkpt lat="59.836840" lon="17.743338">
        <ele>19.681557</ele>
        <time>2024-04-04T16:20:55.893Z</time>
      </trkpt>
      <trkpt lat="59.837277" lon="17.743039">
        <ele>19.648056</ele>
        <time>2024-04-04T16:21:02.769Z</time>
      </trkpt>
      <trkpt lat="59.837628" lon="17.742836">
        <ele>19.621558</ele>
        <time>2024-04-04T16:21:08.200Z</time>
      </trkpt>
      <trkpt lat="59.838910" lon="17.742248">
        <ele>19.401305</ele>
        <time>2024-04-04T16:21:26.147Z</time>
      </trkpt>
      <trkpt lat="59.839328" lon="17.742108">
        <ele>19.302592</ele>
        <time>2024-04-04T16:21:31.952Z</time>
      </trkpt>
      <trkpt lat="59.840643" lon="17.741880">
        <ele>19.339921</ele>
        <time>2024-04-04T16:21:51.310Z</time>
      </trkpt>
      <trkpt lat="59.842066" lon="17.741556">
        <ele>19.504099</ele>
        <time>2024-04-04T16:22:15.441Z</time>
      </trkpt>
      <trkpt lat="59.842502" lon="17.741400">
        <ele>19.383391</ele>
        <time>2024-04-04T16:22:22.267Z</time>
      </trkpt>
      <trkpt lat="59.842964" lon="17.741175">
        <ele>19.253789</ele>
        <time>2024-04-04T16:22:28.551Z</time>
      </trkpt>
      <trkpt lat="59.843591" lon="17.740812">
        <ele>18.952609</ele>
        <time>2024-04-04T16:22:36.695Z</time>
      </trkpt>
      <trkpt lat="59.843905" lon="17.740645">
        <ele>18.556887</ele>
        <time>2024-04-04T16:22:40.614Z</time>
      </trkpt>
      <trkpt lat="59.844273" lon="17.740572">
        <ele>18.106608</ele>
        <time>2024-04-04T16:22:44.957Z</time>
      </trkpt>
      <trkpt lat="59.844487" lon="17.740548">
        <ele>17.845638</ele>
        <time>2024-04-04T16:22:47.421Z</time>
      </trkpt>
      <trkpt lat="59.845006" lon="17.740036">
        <ele>17.140389</ele>
        <time>2024-04-04T16:22:54.101Z</time>
      </trkpt>
      <trkpt lat="59.845666" lon="17.739676">
        <ele>16.669569</ele>
        <time>2024-04-04T16:23:02.353Z</time>
      </trkpt>
      <trkpt lat="59.846545" lon="17.739319">
        <ele>16.221675</ele>
        <time>2024-04-04T16:23:14.692Z</time>
      </trkpt>
      <trkpt lat="59.847843" lon="17.738871">
        <ele>16.093604</ele>
        <time>2024-04-04T16:23:34.064Z</time>
      </trkpt>
      <trkpt lat="59.847891" lon="17.734515">
        <ele>16.809072</ele>
        <time>2024-04-04T16:24:08.162Z</time>
      </trkpt>
      <trkpt lat="59.847860" lon="17.733777">
        <ele>16.993195</ele>
        <time>2024-04-04T16:24:17.510Z</time>
      </trkpt>
      <trkpt lat="59.847826" lon="17.733345">
        <ele>17.123799</ele>
        <time>2024-04-04T16:24:22.032Z</time>
      </trkpt>
      <trkpt lat="59.847760" lon="17.732890">
        <ele>17.291994</ele>
        <time>2024-04-04T16:24:27.065Z</time>
      </trkpt>
      <trkpt lat="59.847402" lon="17.730789">
        <ele>18.079928</ele>
        <time>2024-04-04T16:24:47.617Z</time>
      </trkpt>
      <trkpt lat="59.847290" lon="17.730065">
        <ele>18.278585</ele>
        <time>2024-04-04T16:24:53.266Z</time>
      </trkpt>
      <trkpt lat="59.847270" lon="17.729927">
        <ele>18.193766</ele>
        <time>2024-04-04T16:24:54.236Z</time>
      </trkpt>
      <trkpt lat="59.847249" lon="17.729785">
        <ele>18.106350</ele>
        <time>2024-04-04T16:24:55.286Z</time>
      </trkpt>
      <trkpt lat="59.847153" lon="17.728644">
        <ele>17.423155</ele>
        <time>2024-04-04T16:25:02.792Z</time>
      </trkpt>
      <trkpt lat="59.847127" lon="17.728304">
        <ele>17.220057</ele>
        <time>2024-04-04T16:25:04.865Z</time>
      </trkpt>
      <trkpt lat="59.847088" lon="17.727800">
        <ele>16.918912</ele>
        <time>2024-04-04T16:25:07.659Z</time>
      </trkpt>
      <trkpt lat="59.847031" lon="17.727055">
        <ele>16.473882</ele>
        <time>2024-04-04T16:25:11.807Z</time>
      </trkpt>
      <trkpt lat="59.846976" lon="17.726299">
        <ele>16.040009</ele>
        <time>2024-04-04T16:25:15.955Z</time>
      </trkpt>
      <trkpt lat="59.846926" lon="17.725617">
        <ele>15.670879</ele>
        <time>2024-04-04T16:25:19.846Z</time>
      </trkpt>
      <trkpt lat="59.846914" lon="17.725450">
        <ele>15.580527</ele>
        <time>2024-04-04T16:25:20.876Z</time>
      </trkpt>
      <trkpt lat="59.846906" lon="17.725329">
        <ele>15.515164</ele>
        <time>2024-04-04T16:25:21.652Z</time>
      </trkpt>
      <trkpt lat="59.846905" lon="17.725228">
        <ele>15.461061</ele>
        <time>2024-04-04T16:25:22.216Z</time>
      </trkpt>
      <trkpt lat="59.846711" lon="17.725196">
        <ele>15.253506</ele>
        <time>2024-04-04T16:25:24.457Z</time>
      </trkpt>
      <trkpt lat="59.846402" lon="17.725083">
        <ele>14.918533</ele>
        <time>2024-04-04T16:25:28.317Z</time>
      </trkpt>
      <trkpt lat="59.846088" lon="17.724915">
        <ele>14.571860</ele>
        <time>2024-04-04T16:25:32.959Z</time>
      </trkpt>
      <trkpt lat="59.845983" lon="17.724812">
        <ele>14.447054</ele>
        <time>2024-04-04T16:25:34.713Z</time>
      </trkpt>
      <trkpt lat="59.845978" lon="17.724496">
        <ele>14.288717</ele>
        <time>2024-04-04T16:25:36.967Z</time>
      </trkpt>
      <trkpt lat="59.846084" lon="17.723647">
        <ele>14.232732</ele>
        <time>2024-04-04T16:25:42.922Z</time>
      </trkpt>
      <trkpt lat="59.845978" lon="17.724496">
        <ele>14.176747</ele>
        <time>2024-04-04T16:25:49.644Z</time>
      </trkpt>
      <trkpt lat="59.845983" lon="17.724812">
        <ele>14.156514</ele>
        <time>2024-04-04T16:25:51.914Z</time>
      </trkpt>
      <trkpt lat="59.846088" lon="17.724915">
        <ele>14.141602</ele>
        <time>2024-04-04T16:25:53.548Z</time>
      </trkpt>
      <trkpt lat="59.846402" lon="17.725083">
        <ele>14.100179</ele>
        <time>2024-04-04T16:25:58.384Z</time>
      </trkpt>
      <trkpt lat="59.846088" lon="17.724915">
        <ele>14.054649</ele>
        <time>2024-04-04T16:26:03.078Z</time>
      </trkpt>
      <trkpt lat="59.845983" lon="17.724812">
        <ele>14.013200</ele>
        <time>2024-04-04T16:26:04.783Z</time>
      </trkpt>
      <trkpt lat="59.845978" lon="17.724496">
        <ele>13.956964</ele>
        <time>2024-04-04T16:26:07.029Z</time>
      </trkpt>
      <trkpt lat="59.846084" lon="17.723647">
        <ele>13.801356</ele>
        <time>2024-04-04T16:26:13.120Z</time>
      </trkpt>
      <trkpt lat="59.846128" lon="17.723291">
        <ele>13.736145</ele>
        <time>2024-04-04T16:26:15.644Z</time>
      </trkpt>
      <trkpt lat="59.846249" lon="17.722103">
        <ele>13.520533</ele>
        <time>2024-04-04T16:26:23.709Z</time>
      </trkpt>
      <trkpt lat="59.846447" lon="17.719822">
        <ele>12.882494</ele>
        <time>2024-04-04T16:26:38.920Z</time>
      </trkpt>
      <trkpt lat="59.846514" lon="17.717597">
        <ele>12.210923</ele>
        <time>2024-04-04T16:26:53.317Z</time>
      </trkpt>
      <trkpt lat="59.846511" lon="17.716044">
        <ele>11.771104</ele>
        <time>2024-04-04T16:27:03.530Z</time>
      </trkpt>
      <trkpt lat="59.846429" lon="17.713539">
        <ele>11.079138</ele>
        <time>2024-04-04T16:27:20.258Z</time>
      </trkpt>
      <trkpt lat="59.846363" lon="17.713113">
        <ele>10.962238</ele>
        <time>2024-04-04T16:27:23.295Z</time>
      </trkpt>
      <trkpt lat="59.846323" lon="17.712437">
        <ele>10.783748</ele>
        <time>2024-04-04T16:27:27.858Z</time>
      </trkpt>
      <trkpt lat="59.846312" lon="17.712104">
        <ele>10.696239</ele>
        <time>2024-04-04T16:27:30.048Z</time>
      </trkpt>
      <trkpt lat="59.846363" lon="17.711948">
        <ele>10.647431</ele>
        <time>2024-04-04T16:27:31.297Z</time>
      </trkpt>
      <trkpt lat="59.846448" lon="17.711857">
        <ele>10.597049</ele>
        <time>2024-04-04T16:27:32.599Z</time>
      </trkpt>
      <trkpt lat="59.846445" lon="17.711777">
        <ele>10.576013</ele>
        <time>2024-04-04T16:27:33.132Z</time>
      </trkpt>
      <trkpt lat="59.846439" lon="17.711613">
        <ele>10.532894</ele>
        <time>2024-04-04T16:27:34.198Z</time>
      </trkpt>
      <trkpt lat="59.846436" lon="17.711519">
        <ele>10.508195</ele>
        <time>2024-04-04T16:27:34.810Z</time>
      </trkpt>
      <trkpt lat="59.846348" lon="17.711476">
        <ele>10.460893</ele>
        <time>2024-04-04T16:27:36.006Z</time>
      </trkpt>
      <trkpt lat="59.846309" lon="17.711377">
        <ele>10.427902</ele>
        <time>2024-04-04T16:27:36.854Z</time>
      </trkpt>
      <trkpt lat="59.846285" lon="17.711149">
        <ele>10.358947</ele>
        <time>2024-04-04T16:27:38.392Z</time>
      </trkpt>
      <trkpt lat="59.846218" lon="17.709706">
        <ele>9.692344</ele>
        <time>2024-04-04T16:27:47.697Z</time>
      </trkpt>
      <trkpt lat="59.846047" lon="17.707666">
        <ele>8.740973</ele>
        <time>2024-04-04T16:28:00.194Z</time>
      </trkpt>
      <trkpt lat="59.846060" lon="17.706787">
        <ele>8.353949</ele>
        <time>2024-04-04T16:28:05.546Z</time>
      </trkpt>
      <trkpt lat="59.845993" lon="17.705739">
        <ele>7.889570</ele>
        <time>2024-04-04T16:28:12.019Z</time>
      </trkpt>
      <trkpt lat="59.845985" lon="17.705540">
        <ele>7.801817</ele>
        <time>2024-04-04T16:28:13.265Z</time>
      </trkpt>
      <trkpt lat="59.845979" lon="17.705328">
        <ele>7.708481</ele>
        <time>2024-04-04T16:28:14.596Z</time>
      </trkpt>
      <trkpt lat="59.845903" lon="17.703856">
        <ele>7.144192</ele>
        <time>2024-04-04T16:28:24.010Z</time>
      </trkpt>
      <trkpt lat="59.845900" lon="17.703035">
        <ele>7.099904</ele>
        <time>2024-04-04T16:28:29.529Z</time>
      </trkpt>
      <trkpt lat="59.845862" lon="17.702684">
        <ele>7.080535</ele>
        <time>2024-04-04T16:28:32.073Z</time>
      </trkpt>
      <trkpt lat="59.845772" lon="17.702282">
        <ele>7.056794</ele>
        <time>2024-04-04T16:28:35.363Z</time>
      </trkpt>
      <trkpt lat="59.845474" lon="17.701573">
        <ele>7.006926</ele>
        <time>2024-04-04T16:28:42.429Z</time>
      </trkpt>
      <trkpt lat="59.845433" lon="17.701306">
        <ele>6.991865</ele>
        <time>2024-04-04T16:28:44.616Z</time>
      </trkpt>
      <trkpt lat="59.845453" lon="17.701019">
        <ele>6.976235</ele>
        <time>2024-04-04T16:28:46.863Z</time>
      </trkpt>
      <trkpt lat="59.845536" lon="17.700699">
        <ele>6.992535</ele>
        <time>2024-04-04T16:28:49.737Z</time>
      </trkpt>
      <trkpt lat="59.845655" lon="17.700393">
        <ele>7.090273</ele>
        <time>2024-04-04T16:28:52.836Z</time>
      </trkpt>
      <trkpt lat="59.846938" lon="17.698750">
        <ele>7.857284</ele>
        <time>2024-04-04T16:29:18.893Z</time>
      </trkpt>
      <trkpt lat="59.848267" lon="17.697101">
        <ele>9.032120</ele>
        <time>2024-04-04T16:29:46.857Z</time>
      </trkpt>
      <trkpt lat="59.848599" lon="17.696784">
        <ele>9.308491</ele>
        <time>2024-04-04T16:29:53.599Z</time>
      </trkpt>
      <trkpt lat="59.848755" lon="17.696558">
        <ele>9.452090</ele>
        <time>2024-04-04T16:29:57.171Z</time>
      </trkpt>
      <trkpt lat="59.848946" lon="17.696148">
        <ele>9.661147</ele>
        <time>2024-04-04T16:30:02.181Z</time>
      </trkpt>
      <trkpt lat="59.849320" lon="17.695641">
        <ele>9.997920</ele>
        <time>2024-04-04T16:30:10.367Z</time>
      </trkpt>
      <trkpt lat="59.849543" lon="17.695499">
        <ele>10.172183</ele>
        <time>2024-04-04T16:30:14.438Z</time>
      </trkpt>
      <trkpt lat="59.849619" lon="17.695501">
        <ele>10.228756</ele>
        <time>2024-04-04T16:30:15.797Z</time>
      </trkpt>
      <trkpt lat="59.850032" lon="17.694939">
        <ele>10.602950</ele>
        <time>2024-04-04T16:30:24.608Z</time>
      </trkpt>
      <trkpt lat="59.850127" lon="17.694710">
        <ele>10.719170</ele>
        <time>2024-04-04T16:30:27.096Z</time>
      </trkpt>
      <trkpt lat="59.850235" lon="17.694550">
        <ele>10.824047</ele>
        <time>2024-04-04T16:30:29.359Z</time>
      </trkpt>
      <trkpt lat="59.850279" lon="17.694320">
        <ele>10.920352</ele>
        <time>2024-04-04T16:30:31.453Z</time>
      </trkpt>
      <trkpt lat="59.850236" lon="17.694070">
        <ele>11.023753</ele>
        <time>2024-04-04T16:30:33.619Z</time>
      </trkpt>
      <trkpt lat="59.850107" lon="17.693744">
        <ele>11.186150</ele>
        <time>2024-04-04T16:30:37.374Z</time>
      </trkpt>
      <trkpt lat="59.850005" lon="17.693431">
        <ele>11.332147</ele>
        <time>2024-04-04T16:30:40.402Z</time>
      </trkpt>
      <trkpt lat="59.849829" lon="17.692650">
        <ele>11.667103</ele>
        <time>2024-04-04T16:30:48.512Z</time>
      </trkpt>
      <trkpt lat="59.849723" lon="17.692455">
        <ele>11.779539</ele>
        <time>2024-04-04T16:30:51.716Z</time>
      </trkpt>
      <trkpt lat="59.849549" lon="17.692315">
        <ele>11.925749</ele>
        <time>2024-04-04T16:30:54.602Z</time>
      </trkpt>
      <trkpt lat="59.849494" lon="17.692270">
        <ele>11.973214</ele>
        <time>2024-04-04T16:30:55.842Z</time>
      </trkpt>
      <trkpt lat="59.849408" lon="17.692166">
        <ele>12.061055</ele>
        <time>2024-04-04T16:30:58.166Z</time>
      </trkpt>
      <trkpt lat="59.849287" lon="17.691773">
        <ele>12.263175</ele>
        <time>2024-04-04T16:31:02.112Z</time>
      </trkpt>
      <trkpt lat="59.849354" lon="17.691564">
        <ele>12.371891</ele>
        <time>2024-04-04T16:31:05.011Z</time>
      </trkpt>
      <trkpt lat="59.849399" lon="17.691377">
        <ele>12.462811</ele>
        <time>2024-04-04T16:31:06.497Z</time>
      </trkpt>
      <trkpt lat="59.849431" lon="17.691277">
        <ele>12.514801</ele>
        <time>2024-04-04T16:31:07.304Z</time>
      </trkpt>
      <trkpt lat="59.849537" lon="17.691163">
        <ele>12.619975</ele>
        <time>2024-04-04T16:31:09.799Z</time>
      </trkpt>
      <trkpt lat="59.849632" lon="17.691062">
        <ele>12.713992</ele>
        <time>2024-04-04T16:31:12.141Z</time>
      </trkpt>
      <trkpt lat="59.849781" lon="17.691060">
        <ele>12.844069</ele>
        <time>2024-04-04T16:31:14.253Z</time>
      </trkpt>
      <trkpt lat="59.850032" lon="17.690845">
        <ele>13.082606</ele>
        <time>2024-04-04T16:31:19.648Z</time>
      </trkpt>
      <trkpt lat="59.850394" lon="17.690191">
        <ele>13.509335</ele>
        <time>2024-04-04T16:31:28.070Z</time>
      </trkpt>
      <trkpt lat="59.850428" lon="17.690266">
        <ele>13.549393</ele>
        <time>2024-04-04T16:31:29.112Z</time>
      </trkpt>
      <trkpt lat="59.850498" lon="17.690135">
        <ele>13.616185</ele>
        <time>2024-04-04T16:31:31.137Z</time>
      </trkpt>
      <trkpt lat="59.850581" lon="17.690317">
        <ele>13.702029</ele>
        <time>2024-04-04T16:31:32.985Z</time>
      </trkpt>
      <trkpt lat="59.850589" lon="17.690334">
        <ele>13.710164</ele>
        <time>2024-04-04T16:31:33.146Z</time>
      </trkpt>
      <trkpt lat="59.850675" lon="17.690522">
        <ele>13.798962</ele>
        <time>2024-04-04T16:31:35.332Z</time>
      </trkpt>
      <trkpt lat="59.850677" lon="17.690671">
        <ele>13.851011</ele>
        <time>2024-04-04T16:31:36.654Z</time>
      </trkpt>
      <trkpt lat="59.850645" lon="17.690806">
        <ele>13.903139</ele>
        <time>2024-04-04T16:31:38.408Z</time>
      </trkpt>
      <trkpt lat="59.850677" lon="17.690671">
        <ele>13.955267</ele>
        <time>2024-04-04T16:31:39.975Z</time>
      </trkpt>
      <trkpt lat="59.850675" lon="17.690522">
        <ele>14.007316</ele>
        <time>2024-04-04T16:31:41.056Z</time>
      </trkpt>
      <trkpt lat="59.850589" lon="17.690334">
        <ele>14.096114</ele>
        <time>2024-04-04T16:31:42.823Z</time>
      </trkpt>
      <trkpt lat="59.850581" lon="17.690317">
        <ele>14.104249</ele>
        <time>2024-04-04T16:31:43.028Z</time>
      </trkpt>
      <trkpt lat="59.850498" lon="17.690135">
        <ele>14.190093</ele>
        <time>2024-04-04T16:31:45.707Z</time>
      </trkpt>
      <trkpt lat="59.850698" lon="17.689759">
        <ele>14.381339</ele>
        <time>2024-04-04T16:31:50.093Z</time>
      </trkpt>
      <trkpt lat="59.851188" lon="17.688838">
        <ele>14.881099</ele>
        <time>2024-04-04T16:32:01.615Z</time>
      </trkpt>
      <trkpt lat="59.851309" lon="17.688635">
        <ele>15.042810</ele>
        <time>2024-04-04T16:32:05.270Z</time>
      </trkpt>
      <trkpt lat="59.851687" lon="17.687915">
        <ele>15.577441</ele>
        <time>2024-04-04T16:32:14.575Z</time>
      </trkpt>
      <trkpt lat="59.851962" lon="17.687393">
        <ele>15.965749</ele>
        <time>2024-04-04T16:32:21.872Z</time>
      </trkpt>
      <trkpt lat="59.852076" lon="17.687201">
        <ele>16.118350</ele>
        <time>2024-04-04T16:32:24.988Z</time>
      </trkpt>
      <trkpt lat="59.852375" lon="17.686642">
        <ele>16.537525</ele>
        <time>2024-04-04T16:32:33.392Z</time>
      </trkpt>
      <trkpt lat="59.852569" lon="17.686220">
        <ele>16.775249</ele>
        <time>2024-04-04T16:32:38.500Z</time>
      </trkpt>
      <trkpt lat="59.852705" lon="17.685927">
        <ele>16.925396</ele>
        <time>2024-04-04T16:32:42.008Z</time>
      </trkpt>
      <trkpt lat="59.852956" lon="17.685184">
        <ele>17.262383</ele>
        <time>2024-04-04T16:32:50.368Z</time>
      </trkpt>
      <trkpt lat="59.852905" lon="17.685130">
        <ele>17.305666</ele>
        <time>2024-04-04T16:32:51.274Z</time>
      </trkpt>
      <trkpt lat="59.853096" lon="17.684359">
        <ele>17.629196</ele>
        <time>2024-04-04T16:32:59.261Z</time>
      </trkpt>
      <trkpt lat="59.853074" lon="17.684118">
        <ele>17.721378</ele>
        <time>2024-04-04T16:33:01.136Z</time>
      </trkpt>
      <trkpt lat="59.852940" lon="17.683834">
        <ele>17.868025</ele>
        <time>2024-04-04T16:33:04.608Z</time>
      </trkpt>
      <trkpt lat="59.852953" lon="17.683673">
        <ele>17.929392</ele>
        <time>2024-04-04T16:33:05.968Z</time>
      </trkpt>
      <trkpt lat="59.852964" lon="17.683505">
        <ele>17.965755</ele>
        <time>2024-04-04T16:33:07.111Z</time>
      </trkpt>
      <trkpt lat="59.852982" lon="17.683339">
        <ele>17.956095</ele>
        <time>2024-04-04T16:33:08.685Z</time>
      </trkpt>
      <trkpt lat="59.853192" lon="17.683251">
        <ele>17.931789</ele>
        <time>2024-04-04T16:33:11.957Z</time>
      </trkpt>
      <trkpt lat="59.853239" lon="17.683184">
        <ele>17.925242</ele>
        <time>2024-04-04T16:33:12.722Z</time>
      </trkpt>
      <trkpt lat="59.853347" lon="17.682879">
        <ele>17.904014</ele>
        <time>2024-04-04T16:33:15.806Z</time>
      </trkpt>
      <trkpt lat="59.853433" lon="17.682450">
        <ele>17.877739</ele>
        <time>2024-04-04T16:33:19.181Z</time>
      </trkpt>
      <trkpt lat="59.853528" lon="17.681189">
        <ele>17.805208</ele>
        <time>2024-04-04T16:33:28.386Z</time>
      </trkpt>
      <trkpt lat="59.853663" lon="17.678103">
        <ele>16.794460</ele>
        <time>2024-04-04T16:33:48.177Z</time>
      </trkpt>
      <trkpt lat="59.853839" lon="17.675262">
        <ele>15.353509</ele>
        <time>2024-04-04T16:34:05.749Z</time>
      </trkpt>
      <trkpt lat="59.854062" lon="17.673489">
        <ele>14.306565</ele>
        <time>2024-04-04T16:34:16.532Z</time>
      </trkpt>
      <trkpt lat="59.854177" lon="17.672907">
        <ele>13.949916</ele>
        <time>2024-04-04T16:34:20.231Z</time>
      </trkpt>
      <trkpt lat="59.854449" lon="17.671559">
        <ele>13.121970</ele>
        <time>2024-04-04T16:34:28.986Z</time>
      </trkpt>
      <trkpt lat="59.854508" lon="17.671277">
        <ele>12.947864</ele>
        <time>2024-04-04T16:34:30.877Z</time>
      </trkpt>
      <trkpt lat="59.854554" lon="17.671060">
        <ele>12.813626</ele>
        <time>2024-04-04T16:34:32.279Z</time>
      </trkpt>
      <trkpt lat="59.854599" lon="17.670862">
        <ele>12.689765</ele>
        <time>2024-04-04T16:34:33.622Z</time>
      </trkpt>
      <trkpt lat="59.854831" lon="17.669830">
        <ele>12.060386</ele>
        <time>2024-04-04T16:34:40.622Z</time>
      </trkpt>
      <trkpt lat="59.855490" lon="17.667179">
        <ele>10.515570</ele>
        <time>2024-04-04T16:34:58.609Z</time>
      </trkpt>
      <trkpt lat="59.855523" lon="17.667034">
        <ele>10.432431</ele>
        <time>2024-04-04T16:34:59.607Z</time>
      </trkpt>
      <trkpt lat="59.855569" lon="17.667082">
        <ele>10.378424</ele>
        <time>2024-04-04T16:35:03.209Z</time>
      </trkpt>
      <trkpt lat="59.855843" lon="17.665941">
        <ele>9.770050</ele>
        <time>2024-04-04T16:35:10.927Z</time>
      </trkpt>
      <trkpt lat="59.855947" lon="17.665510">
        <ele>9.540782</ele>
        <time>2024-04-04T16:35:13.811Z</time>
      </trkpt>
      <trkpt lat="59.855895" lon="17.665468">
        <ele>9.487206</ele>
        <time>2024-04-04T16:35:14.508Z</time>
      </trkpt>
      <trkpt lat="59.855858" lon="17.665439">
        <ele>9.449241</ele>
        <time>2024-04-04T16:35:15.002Z</time>
      </trkpt>
      <trkpt lat="59.855848" lon="17.665311">
        <ele>9.387131</ele>
        <time>2024-04-04T16:35:15.820Z</time>
      </trkpt>
      <trkpt lat="59.855839" lon="17.665111">
        <ele>9.290854</ele>
        <time>2024-04-04T16:35:17.082Z</time>
      </trkpt>
      <trkpt lat="59.855839" lon="17.664975">
        <ele>9.225646</ele>
        <time>2024-04-04T16:35:17.845Z</time>
      </trkpt>
      <trkpt lat="59.855998" lon="17.664772">
        <ele>9.045315</ele>
        <time>2024-04-04T16:35:20.178Z</time>
      </trkpt>
      <trkpt lat="59.856040" lon="17.664649">
        <ele>8.973999</ele>
        <time>2024-04-04T16:35:21.132Z</time>
      </trkpt>
      <trkpt lat="59.856202" lon="17.663745">
        <ele>8.634757</ele>
        <time>2024-04-04T16:35:26.995Z</time>
      </trkpt>
      <trkpt lat="59.856285" lon="17.662873">
        <ele>8.626686</ele>
        <time>2024-04-04T16:35:33.071Z</time>
      </trkpt>
      <trkpt lat="59.856398" lon="17.659840">
        <ele>8.631686</ele>
        <time>2024-04-04T16:35:57.604Z</time>
      </trkpt>
      <trkpt lat="59.856420" lon="17.658752">
        <ele>8.680630</ele>
        <time>2024-04-04T16:36:06.702Z</time>
      </trkpt>
      <trkpt lat="59.856428" lon="17.658345">
        <ele>8.698938</ele>
        <time>2024-04-04T16:36:09.952Z</time>
      </trkpt>
      <trkpt lat="59.856443" lon="17.656990">
        <ele>8.759858</ele>
        <time>2024-04-04T16:36:19.672Z</time>
      </trkpt>
      <trkpt lat="59.856395" lon="17.656615">
        <ele>8.654287</ele>
        <time>2024-04-04T16:36:22.377Z</time>
      </trkpt>
      <trkpt lat="59.856394" lon="17.656114">
        <ele>8.440815</ele>
        <time>2024-04-04T16:36:26.868Z</time>
      </trkpt>
      <trkpt lat="59.856414" lon="17.655932">
        <ele>8.361432</ele>
        <time>2024-04-04T16:36:28.529Z</time>
      </trkpt>
      <trkpt lat="59.856426" lon="17.655797">
        <ele>8.303016</ele>
        <time>2024-04-04T16:36:29.711Z</time>
      </trkpt>
      <trkpt lat="59.856460" lon="17.655482">
        <ele>8.165733</ele>
        <time>2024-04-04T16:36:32.510Z</time>
      </trkpt>
      <trkpt lat="59.856473" lon="17.655037">
        <ele>7.975803</ele>
        <time>2024-04-04T16:36:36.359Z</time>
      </trkpt>
      <trkpt lat="59.856412" lon="17.654421">
        <ele>7.708278</ele>
        <time>2024-04-04T16:36:40.245Z</time>
      </trkpt>
      <trkpt lat="59.856362" lon="17.654181">
        <ele>7.597566</ele>
        <time>2024-04-04T16:36:41.912Z</time>
      </trkpt>
      <trkpt lat="59.856243" lon="17.653896">
        <ele>7.439636</ele>
        <time>2024-04-04T16:36:44.142Z</time>
      </trkpt>
      <trkpt lat="59.856126" lon="17.653752">
        <ele>7.322931</ele>
        <time>2024-04-04T16:36:45.829Z</time>
      </trkpt>
      <trkpt lat="59.856156" lon="17.653648">
        <ele>7.271827</ele>
        <time>2024-04-04T16:36:46.622Z</time>
      </trkpt>
      <trkpt lat="59.856201" lon="17.653498">
        <ele>7.205934</ele>
        <time>2024-04-04T16:36:47.586Z</time>
      </trkpt>
      <trkpt lat="59.856247" lon="17.653351">
        <ele>7.147171</ele>
        <time>2024-04-04T16:36:48.766Z</time>
      </trkpt>
      <trkpt lat="59.856308" lon="17.653421">
        <ele>7.099606</ele>
        <time>2024-04-04T16:36:49.966Z</time>
      </trkpt>
      <trkpt lat="59.856376" lon="17.653420">
        <ele>7.053663</ele>
        <time>2024-04-04T16:36:51.172Z</time>
      </trkpt>
      <trkpt lat="59.856401" lon="17.653380">
        <ele>7.031996</ele>
        <time>2024-04-04T16:36:51.759Z</time>
      </trkpt>
      <trkpt lat="59.856422" lon="17.653227">
        <ele>6.978184</ele>
        <time>2024-04-04T16:36:53.039Z</time>
      </trkpt>
      <trkpt lat="59.856465" lon="17.652179">
        <ele>6.621446</ele>
        <time>2024-04-04T16:37:02.309Z</time>
      </trkpt>
      <trkpt lat="59.856515" lon="17.652003">
        <ele>6.552841</ele>
        <time>2024-04-04T16:37:04.296Z</time>
      </trkpt>
      <trkpt lat="59.856793" lon="17.651488">
        <ele>6.296319</ele>
        <time>2024-04-04T16:37:11.391Z</time>
      </trkpt>
      <trkpt lat="59.856906" lon="17.651300">
        <ele>6.196838</ele>
        <time>2024-04-04T16:37:21.612Z</time>
      </trkpt>
      <trkpt lat="59.857032" lon="17.651074">
        <ele>6.082272</ele>
        <time>2024-04-04T16:37:33.408Z</time>
      </trkpt>
      <trkpt lat="59.857175" lon="17.650819">
        <ele>6.024199</ele>
        <time>2024-04-04T16:37:46.755Z</time>
      </trkpt>
      <trkpt lat="59.857284" lon="17.650625">
        <ele>6.024199</ele>
        <time>2024-04-04T16:37:56.912Z</time>
      </trkpt>
      <trkpt lat="59.857416" lon="17.650391">
        <ele>6.024199</ele>
        <time>2024-04-04T16:38:09.155Z</time>
      </trkpt>
      <trkpt lat="59.857692" lon="17.649898">
        <ele>6.024199</ele>
        <time>2024-04-04T16:38:34.953Z</time>
      </trkpt>
      <trkpt lat="59.857790" lon="17.649734">
        <ele>6.024199</ele>
        <time>2024-04-04T16:38:43.851Z</time>
      </trkpt>
      <trkpt lat="59.858037" lon="17.649284">
        <ele>6.024199</ele>
        <time>2024-04-04T16:38:50.169Z</time>
      </trkpt>
    </trkseg>
  </trk>
</gpx>